[[{"header":{"parameterUnit":"m.s-1","parameterCategory":1,"la1":30.6,"la2":28.766,"lo1":-90.7593,"lo2":-88.6598,"dy":0.0162,"dx":0.0183,"nx":116,"ny":114,"refTime":"2023-08-31T18:00:00:Z","depth":0,"parameterNumber":2,"parameterNumberName":"U-component_of_WINDS"},"data":[0.0,0.0,0.0,0.0,0.0,0.0,0.0,0.0,0.0,0.0,0.0,0.0,0.0,0.0,0.0,0.0,0.0,0.0,0.0,0.0,0.0,0.0,0.0,0.0,0.0,0.0,0.0,0.0,0.0,0.0,0.0,0.0,0.0,0.0,0.0,0.0,0.0,0.0,0.0,0.0,0.0,0.0,0.0,0.0,0.0,0.0,0.0,0.0,0.0,0.0,0.0,0.0,0.0,0.0,0.0,0.0,0.0,0.0,0.0,0.0,0.0,0.0,0.0,0.0,0.0,0.0,0.0,0.0,0.0,0.0,0.0,0.0,0.0,0.0,0.0,0.0,0.0,0.0,0.0,0.0,0.0,0.0,0.0,0.0,0.0,0.0,0.0,0.0,0.0,0.0,0.0,0.0,0.0,0.0,0.0,0.0,0.0,0.0,0.0,0.0,0.0,0.0,0.0,0.0,0.0,0.0,0.0,0.0,0.0,0.0,0.0,0.0,0.0,0.0,0.0,0.0,0.0,0.0,0.0,0.0,0.0,0.0,0.0,0.0,0.0,0.0,0.0,0.0,0.0,0.0,0.0,0.0,0.0,0.0,0.0,0.0,0.0,0.0,0.0,0.0,0.0,0.0,0.0,0.0,0.0,0.0,0.0,0.0,0.0,0.0,0.0,0.0,0.0,0.0,0.0,0.0,0.0,0.0,0.0,0.0,0.0,0.0,0.0,0.0,0.0,0.0,0.0,0.0,0.0,0.0,0.0,0.0,0.0,0.0,0.0,0.0,0.0,0.0,0.0,0.0,0.0,0.0,0.0,0.0,0.0,0.0,0.0,0.0,0.0,0.0,0.0,0.0,0.0,0.0,0.0,0.0,0.0,0.0,0.0,0.0,0.0,0.0,0.0,0.0,0.0,0.0,0.0,0.0,0.0,0.0,0.0,0.0,0.0,0.0,0.0,0.0,0.0,0.0,0.0,0.0,0.0,0.0,0.0,0.0,0.0,0.0,0.0,0.0,0.0,0.0,0.0,0.0,0.0,0.0,0.0,0.0,0.0,0.0,0.0,0.0,0.0,0.0,0.0,0.0,0.0,0.0,0.0,0.0,0.0,0.0,0.0,0.0,0.0,0.0,0.0,0.0,0.0,0.0,0.0,0.0,0.0,0.0,0.0,0.0,0.0,0.0,0.0,0.0,0.0,0.0,0.0,0.0,0.0,0.0,0.0,0.0,0.0,0.0,0.0,0.0,0.0,0.0,0.0,0.0,0.0,0.0,0.0,0.0,0.0,0.0,0.0,0.0,0.0,0.0,0.0,0.0,0.0,0.0,0.0,0.0,0.0,0.0,0.0,0.0,0.0,0.0,0.0,0.0,0.0,0.0,0.0,0.0,0.0,0.0,0.0,0.0,0.0,0.0,0.0,0.0,0.0,0.0,0.0,0.0,0.0,0.0,0.0,0.0,0.0,0.0,0.0,0.0,0.0,0.0,0.0,0.0,0.0,0.0,0.0,0.0,0.0,0.0,0.0,0.0,0.0,0.0,0.0,0.0,0.0,0.0,0.0,0.0,0.0,0.0,0.0,0.0,0.0,0.0,0.0,0.0,0.0,0.0,0.0,0.0,0.0,0.0,0.0,0.0,0.0,0.0,0.0,0.0,0.0,0.0,0.0,0.0,0.0,0.0,0.0,0.0,0.0,0.0,0.0,0.0,0.0,0.0,0.0,0.0,0.0,0.0,0.0,0.0,0.0,0.0,0.0,0.0,0.0,0.0,0.0,0.0,0.0,0.0,0.0,0.0,0.0,0.0,0.0,0.0,0.0,0.0,0.0,0.0,0.0,0.0,0.0,0.0,0.0,0.0,0.0,0.0,0.0,0.0,0.0,0.0,0.0,0.0,0.0,0.0,0.0,0.0,0.0,0.0,0.0,0.0,0.0,0.0,0.0,0.0,0.0,0.0,0.0,0.0,0.0,0.0,0.0,0.0,0.0,0.0,0.0,0.0,0.0,0.0,0.0,0.0,0.0,0.0,0.0,0.0,0.0,0.0,0.0,0.0,0.0,0.0,0.0,0.0,0.0,0.0,0.0,0.0,0.0,0.0,0.0,0.0,0.0,0.0,0.0,0.0,0.0,0.0,0.0,0.0,0.0,0.0,0.0,0.0,0.0,0.0,0.0,0.0,0.0,0.0,0.0,0.0,0.0,0.0,0.0,0.0,0.0,0.0,0.0,0.0,0.0,0.0,0.0,0.0,0.0,0.0,0.0,0.0,0.0,0.0,0.0,0.0,0.0,0.0,0.0,0.0,0.0,0.0,0.0,0.0,0.0,0.0,0.0,0.0,0.0,0.0,0.0,0.0,0.0,0.0,0.0,0.0,0.0,0.0,0.0,0.0,0.0,0.0,0.0,0.0,0.0,0.0,0.0,0.0,0.0,0.0,0.0,0.0,0.0,0.0,0.0,0.0,0.0,0.0,0.0,0.0,0.0,0.0,0.0,0.0,0.0,0.0,0.0,0.0,0.0,0.0,0.0,0.0,0.0,0.0,0.0,0.0,0.0,0.0,0.0,0.0,0.0,0.0,0.0,0.0,0.0,0.0,0.0,0.0,0.0,0.0,0.0,0.0,0.0,0.0,0.0,0.0,0.0,0.0,0.0,0.0,0.0,0.0,0.0,0.0,0.0,0.0,0.0,0.0,0.0,0.0,0.0,0.0,0.0,0.0,0.0,0.0,0.0,0.0,0.0,0.0,0.0,0.0,0.0,0.0,0.0,0.0,0.0,0.0,0.0,0.0,0.0,0.0,0.0,0.0,0.0,0.0,0.0,0.0,0.0,0.0,0.0,0.0,0.0,0.0,0.0,0.0,0.0,0.0,0.0,0.0,0.0,0.0,0.0,0.0,0.0,0.0,0.0,0.0,0.0,0.0,0.0,0.0,0.0,0.0,0.0,0.0,0.0,0.0,0.0,0.0,0.0,0.0,0.0,0.0,0.0,0.0,0.0,0.0,0.0,0.0,0.0,0.0,0.0,0.0,0.0,0.0,0.0,0.0,0.0,0.0,0.0,0.0,0.0,0.0,0.0,0.0,0.0,0.0,0.0,0.0,0.0,0.0,0.0,0.0,0.0,0.0,0.0,0.0,0.0,0.0,0.0,0.0,0.0,0.0,0.0,0.0,0.0,0.0,0.0,0.0,0.0,0.0,0.0,0.0,0.0,0.0,0.0,0.0,0.0,0.0,0.0,0.0,0.0,0.0,0.0,0.0,0.0,0.0,0.0,0.0,0.0,0.0,0.0,0.0,0.0,0.0,0.0,0.0,0.0,0.0,0.0,0.0,0.0,0.0,0.0,0.0,0.0,0.0,0.0,0.0,0.0,0.0,0.0,0.0,0.0,0.0,0.0,0.0,0.0,0.0,0.0,0.0,0.0,0.0,0.0,0.0,0.0,0.0,0.0,0.0,0.0,0.0,0.0,0.0,0.0,0.0,0.0,0.0,0.0,0.0,0.0,0.0,0.0,0.0,0.0,0.0,0.0,0.0,0.0,0.0,0.0,0.0,0.0,0.0,0.0,0.0,0.0,0.0,0.0,0.0,0.0,0.0,0.0,0.0,0.0,0.0,0.0,0.0,0.0,0.0,0.0,0.0,0.0,0.0,0.0,0.0,0.0,0.0,0.0,0.0,0.0,0.0,0.0,0.0,0.0,0.0,0.0,0.0,0.0,0.0,0.0,0.0,0.0,0.0,0.0,0.0,0.0,0.0,0.0,0.0,0.0,0.0,0.0,0.0,0.0,0.0,0.0,0.0,0.0,0.0,0.0,0.0,0.0,0.0,0.0,0.0,0.0,0.0,0.0,0.0,0.0,0.0,0.0,0.0,0.0,0.0,0.0,0.0,0.0,0.0,0.0,0.0,0.0,0.0,0.0,0.0,0.0,0.0,0.0,0.0,0.0,0.0,0.0,0.0,0.0,0.0,0.0,0.0,0.0,0.0,0.0,0.0,0.0,0.0,0.0,0.0,0.0,0.0,0.0,0.0,0.0,0.0,0.0,0.0,0.0,0.0,0.0,0.0,0.0,0.0,0.0,0.0,0.0,0.0,0.0,0.0,0.0,0.0,0.0,0.0,0.0,0.0,0.0,0.0,0.0,0.0,0.0,0.0,0.0,0.0,0.0,0.0,0.0,0.0,0.0,0.0,0.0,0.0,0.0,0.0,0.0,0.0,0.0,0.0,0.0,0.0,0.0,0.0,0.0,0.0,0.0,0.0,0.0,0.0,0.0,0.0,0.0,0.0,0.0,0.0,0.0,0.0,0.0,0.0,0.0,0.0,0.0,0.0,0.0,0.0,0.0,0.0,0.0,0.0,0.0,0.0,0.0,0.0,0.0,0.0,0.0,0.0,0.0,0.0,0.0,0.0,0.0,0.0,0.0,0.0,0.0,0.0,0.0,0.0,0.0,0.0,0.0,0.0,0.0,0.0,0.0,0.0,0.0,0.0,0.0,0.0,0.0,0.0,0.0,0.0,0.0,0.0,0.0,0.0,0.0,0.0,0.0,0.0,0.0,0.0,0.0,0.0,0.0,0.0,0.0,0.0,0.0,0.0,0.0,0.0,0.0,0.0,0.0,0.0,0.0,0.0,0.0,0.0,0.0,0.0,0.0,0.0,0.0,0.0,0.0,0.0,0.0,0.0,0.0,0.0,0.0,0.0,0.0,0.0,0.0,0.0,0.0,0.0,0.0,0.0,0.0,0.0,0.0,0.0,0.0,0.0,0.0,0.0,0.0,0.0,0.0,0.0,0.0,0.0,0.0,0.0,0.0,0.0,0.0,0.0,0.0,0.0,0.0,0.0,0.0,0.0,0.0,0.0,0.0,0.0,0.0,0.0,0.0,0.0,0.0,0.0,0.0,0.0,0.0,0.0,0.0,0.0,0.0,0.0,0.0,0.0,0.0,0.0,0.0,0.0,0.0,0.0,0.0,0.0,0.0,0.0,0.0,0.0,0.0,0.0,0.0,0.0,0.0,0.0,0.0,0.0,0.0,0.0,0.0,0.0,0.0,0.0,0.0,0.0,0.0,0.0,0.0,0.0,0.0,0.0,0.0,0.0,0.0,0.0,0.0,0.0,0.0,0.0,0.0,0.0,0.0,0.0,0.0,0.0,0.0,0.0,0.0,0.0,0.0,0.0,0.0,0.0,0.0,0.0,0.0,0.0,0.0,0.0,0.0,0.0,0.0,0.0,0.0,0.0,0.0,0.0,0.0,0.0,0.0,0.0,0.0,0.0,0.0,0.0,0.0,0.0,0.0,0.0,0.0,0.0,0.0,0.0,0.0,0.0,0.0,0.0,0.0,0.0,0.0,0.0,0.0,0.0,0.0,0.0,0.0,0.0,0.0,0.0,0.0,0.0,0.0,0.0,0.0,0.0,0.0,0.0,0.0,0.0,0.0,0.0,0.0,0.0,0.0,0.0,0.0,0.0,0.0,0.0,0.0,0.0,0.0,0.0,0.0,0.0,0.0,0.0,0.0,0.0,0.0,0.0,0.0,0.0,0.0,0.0,0.0,0.0,0.0,0.0,0.0,0.0,0.0,0.0,0.0,0.0,0.0,0.0,0.0,0.0,0.0,0.0,0.0,0.0,0.0,0.0,0.0,0.0,0.0,0.0,0.0,0.0,0.0,0.0,0.0,0.0,0.0,0.0,0.0,0.0,0.0,0.0,0.0,0.0,0.0,0.0,0.0,0.0,0.0,0.0,0.0,0.0,0.0,0.0,0.0,0.0,0.0,0.0,0.0,0.0,0.0,0.0,0.0,0.0,0.0,0.0,0.0,0.0,0.0,0.0,0.0,0.0,0.0,0.0,0.0,0.0,0.0,0.0,0.0,0.0,0.0,0.0,0.0,0.0,0.0,0.0,0.0,0.0,0.0,0.0,0.0,0.0,0.0,0.0,0.0,0.0,0.0,0.0,0.0,0.0,0.0,0.0,0.0,0.0,0.0,0.0,0.0,0.0,0.0,0.0,0.0,0.0,0.0,0.0,0.0,0.0,0.0,0.0,0.0,0.0,0.0,0.0,0.0,0.0,0.0,0.0,0.0,0.0,0.0,0.0,0.0,0.0,0.0,0.0,-1.9501,-1.4527,0.0,0.0,0.0,0.0,0.0,0.0,0.0,0.0,0.0,0.0,0.0,0.0,0.0,0.0,0.0,0.0,0.0,0.0,0.0,0.0,0.0,0.0,0.0,0.0,0.0,0.0,0.0,0.0,0.0,0.0,0.0,0.0,0.0,0.0,0.0,0.0,0.0,1.9649,1.662,1.2919,0.8697,1.1469,1.632,2.2683,0.0,0.0,0.0,0.0,0.0,0.0,0.0,0.0,0.0,0.0,0.0,0.0,0.0,0.0,0.0,0.0,0.0,0.0,0.0,0.0,0.0,0.0,0.0,0.0,0.0,0.0,0.0,0.0,0.0,0.0,0.0,0.0,0.0,0.0,0.0,0.0,0.0,0.0,0.0,0.0,0.0,0.0,0.0,0.0,0.0,0.0,0.0,0.0,0.0,0.0,0.0,0.0,0.0,0.0,0.0,0.0,0.0,0.0,0.0,0.0,0.0,0.0,0.0,0.0,0.0,0.0,0.0,0.0,0.0,0.0,-2.8619,-2.5216,0.0,0.0,0.0,0.0,0.0,0.0,0.0,0.0,0.0,0.0,0.0,0.0,0.0,0.0,0.0,0.0,0.0,0.0,0.0,0.0,0.0,0.0,0.0,2.4111,2.4219,2.3353,2.4606,2.5796,0.0,0.0,0.0,0.0,0.0,0.0,2.3944,2.2085,1.8867,1.4216,0.9579,0.4306,-0.1418,-0.1329,0.5138,1.6894,2.1258,0.0,0.0,0.0,0.0,0.0,0.0,0.0,0.0,0.0,0.0,0.0,0.0,0.0,0.0,0.0,0.0,0.0,0.0,0.0,0.0,0.0,0.0,0.0,0.0,0.0,0.0,0.0,0.0,0.0,0.0,0.0,0.0,0.0,0.0,0.0,0.0,0.0,0.0,0.0,0.0,0.0,0.0,0.0,0.0,0.0,0.0,0.0,0.0,0.0,0.0,0.0,0.0,0.0,0.0,0.0,0.0,0.0,0.0,0.0,0.0,0.0,0.0,0.0,-3.6836,-3.6754,-3.5819,-3.629,-3.6288,-3.5886,-3.4619,-3.3921,-3.3558,-3.2544,0.0,0.0,0.0,0.0,0.0,0.0,0.0,0.0,0.0,0.0,0.0,0.0,0.0,0.0,0.0,0.0,0.0,0.0,0.0,0.0,0.0,2.0787,1.9868,1.8589,2.1006,2.2825,2.3531,0.0,0.0,0.0,0.0,0.0,2.2354,2.002,1.5667,0.9138,-0.1108,-0.7694,-1.0724,-1.113,-0.7662,-0.0554,1.2048,2.2479,3.0573,0.0,0.0,0.0,0.0,0.0,0.0,0.0,0.0,0.0,0.0,0.0,0.0,0.0,0.0,0.0,0.0,0.0,0.0,0.0,0.0,0.0,0.0,0.0,0.0,0.0,0.0,0.0,0.0,0.0,0.0,0.0,0.0,0.0,0.0,0.0,0.0,0.0,0.0,0.0,0.0,0.0,-1.3783,-2.4162,0.0,0.0,0.0,0.0,0.0,0.0,0.0,0.0,0.0,0.0,0.0,0.0,0.0,-3.4644,-3.5432,-3.6901,-3.7569,-3.7636,-3.9446,-4.0255,-4.0075,-4.0038,-4.0357,-4.0846,-4.047,0.0,-3.5022,-3.4968,0.0,0.0,0.0,0.0,0.0,0.0,0.0,0.0,0.0,0.0,0.0,0.0,0.0,0.0,0.0,0.0,0.0,0.0,0.0,0.0,0.0,1.2706,1.0678,0.8527,0.978,1.189,1.4708,1.7887,0.0,0.0,0.0,2.1254,1.7402,1.4145,0.7654,-0.207,-0.961,-1.4843,-1.7921,-1.8013,-1.4201,-0.689,0.0226,0.9935,2.1421,2.8491,0.0,0.0,0.0,0.0,0.0,0.0,0.0,0.0,0.0,0.0,0.0,0.0,0.0,0.0,0.0,0.0,0.0,0.0,0.0,0.0,0.0,0.0,0.0,0.0,0.0,0.0,0.0,0.0,0.0,0.0,0.0,0.0,0.0,0.0,0.0,0.0,0.0,0.0,0.0,-0.8207,-1.9581,-2.7067,-3.0294,-3.1692,0.0,0.0,0.0,0.0,0.0,0.0,0.0,0.0,0.0,-3.6339,-3.6074,-3.6621,-3.8104,-3.8807,-3.916,-3.916,-4.0358,-4.0742,-4.0486,-4.1028,-4.0931,-4.0276,-4.1073,-3.9994,-3.7675,-3.7613,-3.6054,-3.3663,0.0,0.0,0.0,0.0,-3.2835,-3.3556,0.0,0.0,0.0,0.0,0.0,0.0,0.0,0.0,0.0,0.0,0.0,0.0,0.7089,0.4072,0.1104,-0.2095,-0.1287,0.0982,0.4722,0.8769,1.2523,1.58,1.678,1.5411,1.142,0.5919,-0.1672,-1.1503,-1.5911,-1.9551,-2.2329,-2.3189,-1.9615,-1.2446,-1.1632,-0.2605,1.2665,2.2524,2.4343,2.0641,0.0,0.0,0.0,0.0,0.0,0.0,0.0,0.0,0.0,0.0,0.0,0.0,0.0,0.0,0.0,0.0,0.0,0.0,0.0,0.0,0.0,0.0,0.0,0.0,0.0,0.0,0.0,0.0,0.0,0.0,0.0,0.0,0.0,0.0,0.0,0.0,0.0,-1.4879,-2.2456,-2.7512,-3.0937,-3.2646,0.0,0.0,0.0,0.0,0.0,0.0,-3.5351,-3.475,-3.5562,-3.807,-3.7719,-3.8238,-3.9783,-4.0003,-4.007,-4.007,-4.0442,-4.0424,-4.0063,-4.0876,-4.0472,-3.9224,-4.0438,-4.0167,-3.8925,-3.9017,-3.8141,-3.6561,-3.5367,-3.4903,-3.4915,-3.5227,-3.525,-3.5338,0.0,0.0,0.0,0.0,0.0,0.0,0.0,0.0,0.0,0.0,0.0,0.5301,-0.0157,-0.3652,-0.7281,-1.147,-0.9045,-0.6625,-0.501,0.0772,0.5222,0.7748,0.9154,0.8281,0.491,-0.4655,-1.145,-1.526,-1.9474,-2.2003,-2.3005,-2.6532,-2.5629,-2.1127,-2.2504,-1.1256,0.8864,0.9587,0.9752,0.95,0.9244,0.0,0.0,0.0,0.0,0.0,0.0,0.0,0.0,0.0,0.0,0.0,0.0,0.0,0.0,0.0,0.0,0.0,0.0,0.0,0.0,0.0,0.0,0.0,0.0,0.0,0.0,0.0,0.0,0.0,0.0,0.0,0.0,0.0,0.0,0.0,0.0,0.0,0.0,-3.0541,-3.2757,0.0,0.0,0.0,0.0,-3.4889,-3.5696,-3.6622,-3.7669,-3.6987,-3.7269,-3.8807,-3.8824,-3.8841,-3.8975,-3.975,-4.007,-4.007,-3.9952,-3.9834,-3.9798,-3.9747,-3.966,-3.9568,-3.9658,-3.8823,-3.7478,-3.8352,-3.864,-3.842,-3.6824,-3.6201,-3.6229,-3.6213,-3.6709,-3.7239,0.0,0.0,0.0,0.0,0.0,0.0,0.0,0.0,1.2827,0.8884,0.4097,-0.1166,-0.706,-1.1736,-1.596,-1.9749,-1.9881,-1.7859,-1.3351,-0.8841,-0.4076,0.1017,0.2669,0.1314,-0.3264,-0.8628,-1.2742,-1.5685,-1.7399,-1.9726,-2.26,-2.3138,-2.2617,-2.1261,-2.0085,-1.4717,-0.6654,-0.7627,-0.4857,0.0195,0.0173,0.3912,0.0,0.0,0.0,0.0,0.0,0.0,0.0,0.0,0.0,0.0,0.0,0.0,0.0,0.0,0.0,0.0,0.0,0.0,0.0,0.0,0.0,0.0,0.0,0.0,0.0,0.0,0.0,0.0,0.0,0.0,0.0,0.0,0.0,0.0,0.0,0.0,0.0,-3.0719,-3.3631,0.0,-3.4089,-3.5462,-3.6312,-3.6141,-3.7286,-3.812,-3.8505,-3.7836,-3.7642,-3.8166,-3.8213,-3.8197,-3.817,-3.8054,-3.8003,-3.8003,-3.7903,-3.7868,-3.7925,-3.8692,-3.8276,-3.7093,-3.7798,-3.7317,-3.6063,-3.6221,-3.6425,-3.6666,-3.6413,-3.6303,-3.6285,-3.6295,-3.6296,-3.6248,0.0,0.0,0.0,0.0,0.0,0.0,0.0,0.0,0.9155,0.4657,-0.0407,-0.5835,-1.1733,-1.6645,-2.0881,-2.4287,-2.5648,-2.4241,-1.9331,-1.5704,-1.1165,-0.5401,-0.3713,-0.4554,-0.8141,-1.0647,-1.2629,-1.4181,-1.505,-1.7069,-2.0061,-1.9794,-1.9509,-1.9146,-1.7718,-1.5584,-1.324,-1.5274,-1.2743,-0.7413,-0.7144,-0.3077,0.3113,0.0,0.0,0.0,0.0,0.0,0.0,0.0,0.0,0.0,0.0,0.0,0.0,0.0,0.0,0.0,0.0,0.0,0.0,0.0,0.0,0.0,0.0,0.0,0.0,0.0,0.0,0.0,0.0,0.0,0.0,0.0,0.0,0.0,0.0,-2.4165,-2.8466,-3.076,-3.3638,-3.511,-3.4153,-3.5954,-3.7129,-3.7085,-3.8003,-3.855,-3.8531,-3.7799,-3.7292,-3.7044,-3.709,-3.6969,-3.6743,-3.658,-3.6462,-3.6462,-3.5994,-3.5745,-3.5761,-3.6122,-3.5549,-3.4307,-3.4798,-3.4545,-3.3676,-3.336,-3.3278,-3.352,-3.5369,-3.6054,-3.6072,-3.6219,-3.5912,-3.5302,0.0,0.0,0.0,0.0,0.0,0.0,0.0,0.8747,0.5118,0.1097,-0.3487,-0.8511,-1.4016,-1.8054,-2.1573,-2.4597,-2.5561,-2.4929,-2.2483,-1.9296,-1.5636,-1.137,-0.9873,-0.912,-0.912,-1.0941,-1.1498,-1.086,-1.2794,-1.4241,-1.5219,-1.6791,-1.6688,-1.5243,-1.6097,-1.3844,-0.9512,-1.2393,-1.3333,-1.2956,-1.2463,-1.0188,-0.6972,0.0,0.0,0.0,0.0,0.0,0.0,0.0,0.0,0.0,0.0,0.0,0.0,0.0,0.0,0.0,0.0,0.0,0.0,0.0,0.0,0.0,0.0,0.0,0.0,0.0,0.0,0.0,0.0,0.0,0.0,0.0,0.0,0.0,-2.2719,-2.5954,-2.8946,-3.0898,-3.2766,-3.4395,-3.5474,-3.6155,-3.6862,-3.768,-3.7718,-3.7708,-3.7689,-3.6919,-3.6155,-3.5504,-3.5459,-3.518,-3.462,-3.5268,-3.5571,-3.5598,-3.4227,-3.3539,-3.3468,-3.2159,-3.1534,-3.1469,-3.0843,-3.0415,-3.0185,-3.0004,-2.9488,-2.9282,-3.3687,-3.5385,-3.5449,-3.5893,-3.5533,-3.4513,0.0,0.0,0.0,0.0,0.0,0.0,0.9295,0.7265,0.4342,-0.0062,-0.3755,-0.7871,-1.2845,-1.5849,-1.8148,-1.98,-2.0657,-2.0233,-1.8271,-1.6737,-1.424,-1.0428,-0.872,-0.7911,-0.8103,-0.8366,-0.8042,-0.7212,-0.7736,-0.8248,-0.8738,-0.7247,-0.7345,-0.8648,-0.6258,-0.6327,-0.8244,-0.8235,-0.8653,-0.9574,-1.1075,-1.1117,-0.9933,0.0,0.0,0.0,0.0,0.0,0.0,0.0,0.0,0.0,0.0,0.0,0.0,0.0,0.0,0.0,0.0,0.0,0.0,0.0,0.0,0.0,0.0,0.0,0.0,0.0,0.0,0.0,0.0,0.0,0.0,0.0,-2.122,-2.4276,-2.5552,-2.7706,-2.9615,-3.104,-3.2249,-3.3383,-3.4316,-3.5165,-3.5985,-3.6877,-3.6291,-3.5783,-3.5385,-3.395,-3.3108,-3.3108,-3.2594,-3.2503,-3.2875,-3.1605,-3.0955,-3.0911,-3.0749,-3.0416,-2.9951,-3.0593,-3.0328,-2.9359,-2.9146,-2.8714,-2.8174,-2.8155,-2.7984,-2.8036,-3.0317,-3.0918,-3.0594,-3.0746,-3.0438,-2.9849,0.0,0.0,0.0,0.0,0.0,0.0,0.7844,0.634,0.3955,-0.0126,-0.3087,-0.636,-1.0265,-1.2425,-1.4011,-1.4953,-1.5452,-1.5076,-1.3567,-1.261,-1.1214,-0.9275,-0.8048,-0.7068,-0.6371,-0.5811,-0.4889,-0.36,-0.3197,-0.3105,-0.3304,-0.1102,-0.0728,-0.1869,-0.0424,-0.0747,-0.2404,-0.3439,-0.4127,-0.4585,-0.6844,-0.8921,-1.0427,-0.843,-0.6821,-0.5507,-0.4711,-0.3411,-0.1681,0.0059,0.0,0.0,0.0,0.0,0.0,0.0,0.0,0.0,0.0,0.0,0.0,0.0,0.0,0.0,0.0,0.0,0.0,0.0,0.0,0.0,0.0,0.0,0.0,0.0,-2.3039,-2.5451,-2.6518,-2.8408,-2.9804,-3.0444,-3.1163,-3.2053,-3.3017,-3.3274,-3.3674,-3.4242,-3.3718,-3.3293,-3.2975,-3.205,-3.1433,-3.1296,-3.0841,-3.0391,-2.9969,-2.9164,-2.8441,-2.7861,-2.811,-2.7852,-2.7284,-2.7791,-2.7472,-2.6468,-2.6209,-2.5933,-2.5744,-2.523,-2.4994,-2.5267,0.0,0.0,0.0,0.0,-2.7786,-2.7114,0.0,0.0,0.0,0.0,0.0,0.0,0.7318,0.6117,0.4179,0.0879,-0.1489,-0.3901,-0.6576,-0.8134,-0.9261,-0.9838,-1.0043,-0.9756,-0.8883,-0.7921,-0.7575,-0.7865,-0.7216,-0.5925,-0.4061,-0.3168,-0.1783,0.0179,0.1077,0.1672,0.1997,0.3653,0.4747,0.5254,0.3944,0.4306,0.5677,0.1901,0.0808,0.1359,-0.074,-0.4435,-0.8689,-0.8667,-0.9466,-1.0721,-1.1646,-1.1771,-1.1065,-0.8265,0.0,0.0,0.0,0.0,0.0,0.0,0.0,0.0,0.0,0.0,0.0,0.0,0.0,0.0,0.0,0.0,0.0,0.0,0.0,0.0,0.0,0.0,0.0,0.0,-2.3652,-2.5061,-2.595,-2.7896,-2.9209,-2.9065,-2.9524,-3.0214,-3.1176,-3.0866,-3.0629,-3.0657,-3.0536,-3.0405,-3.0304,-3.017,0.0,0.0,0.0,-2.8305,-2.6552,-2.709,-2.6786,-2.5481,-2.571,-2.5424,-2.4805,-2.4262,-2.3692,-2.3159,-2.2564,-2.2578,-2.2908,-2.1839,-2.1378,-2.1726,-2.5644,-2.7202,-2.7142,-2.6792,-2.609,-2.5226,0.0,0.0,0.0,0.0,0.0,0.0,0.7377,0.7228,0.6216,0.3603,0.229,0.0645,-0.2062,-0.3135,-0.3715,-0.3863,-0.4419,-0.532,-0.6565,-0.5977,-0.5678,-0.5822,-0.3859,-0.2254,-0.1195,0.024,0.2073,0.4288,0.553,0.7524,1.0237,1.2733,1.3684,1.3395,1.4318,1.2913,0.9802,0.8399,0.7694,0.7307,0.5787,0.1595,-0.4026,-0.6017,-0.6995,-0.7598,-1.0578,-1.1642,-1.1762,-1.1827,-1.3001,-1.5194,-1.9755,-2.267,0.0,0.0,0.0,0.0,0.0,0.0,0.0,0.0,0.0,0.0,0.0,0.0,0.0,0.0,0.0,0.0,0.0,0.0,0.0,-2.2279,-2.372,-2.4441,-2.3388,-2.4869,-2.619,-2.6488,-2.6368,-2.6709,-2.7984,-2.798,-2.8085,-2.8554,-2.7845,-2.6985,-2.5844,-2.5054,-2.4707,-2.4731,-2.4109,-2.3867,-2.4148,-2.3208,-2.2445,-2.1853,-2.1983,0.0,-2.0594,-2.0726,-2.046,-1.9845,-1.9859,-1.9932,-2.0006,-1.9794,-1.9409,-1.9126,-2.094,-2.1668,-2.1653,-2.1562,-2.1403,-2.1233,0.0,0.0,0.0,0.0,0.0,0.0,0.9408,0.9503,0.8882,0.6488,0.5568,0.4314,0.2316,0.1759,0.144,0.1073,-0.0271,-0.2009,-0.4179,-0.3985,-0.3895,-0.4119,-0.2015,-0.0358,0.0773,0.2689,0.4758,0.6954,0.8983,1.1518,1.4511,1.6923,1.833,1.8812,1.8908,1.7613,1.5283,1.3174,1.1991,1.1411,0.9818,0.7095,0.3491,-0.0477,-0.3018,-0.4694,-0.6403,-0.7503,-0.8467,-1.0807,-1.3692,-1.7399,-2.3712,-2.7866,-3.0742,0.0,0.0,0.0,0.0,0.0,0.0,0.0,0.0,0.0,0.0,0.0,0.0,0.0,0.0,-2.0129,-2.0555,0.0,-2.1441,-2.1872,-2.1959,-2.1627,-2.0704,-2.1043,-2.209,-2.4093,-2.4216,-2.4413,-2.5051,-2.4871,-2.4808,-2.5102,-2.4633,-2.4065,-2.3407,-2.2891,-2.2685,-2.2868,-2.1957,-2.1528,-2.1528,-2.0307,-1.9619,-1.9372,-1.9497,-1.9037,-1.811,-1.8588,-1.8031,-1.6645,-1.7039,-1.7262,-1.726,-1.73,-1.6823,-1.6077,-1.666,-1.7849,-1.9201,-1.9201,-1.897,-1.868,0.0,0.0,0.0,0.0,0.0,0.0,0.0,1.1902,1.1406,0.9297,0.862,0.7848,0.6483,0.6189,0.5763,0.4889,0.2806,0.068,-0.1429,-0.159,-0.1661,-0.1905,-0.0118,0.155,0.2849,0.5082,0.7216,0.9256,1.1874,1.4507,1.7128,1.9165,2.0975,2.2416,2.1358,2.0788,2.0424,1.7356,1.5698,1.5026,1.3269,1.2027,1.074,0.6366,0.2576,-0.0412,-0.0414,-0.1061,-0.24,-0.5877,-1.0514,-1.5806,-2.1554,-2.6862,-3.1041,-3.1522,-3.1492,0.0,0.0,0.0,0.0,0.0,0.0,0.0,0.0,-2.0457,-1.9934,-2.0234,-2.0792,-2.1271,-2.1386,-2.0925,-2.058,-2.0862,-1.985,-1.8798,-1.8145,-1.7468,-1.7902,-2.0539,-2.1363,-2.1772,-2.1803,-2.1341,-2.1011,-2.0923,-2.0896,-2.0856,-2.0744,-2.0665,-2.0665,-2.0744,-1.9965,-1.9216,-1.8488,-1.7764,-1.7244,-1.7054,-1.7121,-1.6724,-1.5888,-1.6389,-1.5558,-1.3803,-1.4366,-1.4519,-1.4417,-1.4657,-1.4059,-1.2949,-1.3096,-1.4664,-1.6856,-1.7112,-1.6856,-1.6404,0.0,0.0,0.0,0.0,0.0,0.0,0.0,0.0,1.3208,1.1551,1.181,1.1625,1.0087,0.9422,0.8456,0.6849,0.4568,0.2875,0.2079,0.1908,0.1773,0.1619,0.371,0.5237,0.5972,0.804,1.0084,1.2025,1.4448,1.6915,1.9469,2.1247,2.2828,2.4137,2.4099,2.3882,2.343,2.191,2.0517,1.9194,1.7763,1.6258,1.4767,1.3607,1.0744,0.7461,0.7479,0.7351,0.6698,0.4306,-0.2684,-1.0989,-1.4382,-2.2151,-2.9989,-3.0112,-2.9827,-2.8939,-2.6336,-2.4399,-2.3285,-2.4213,-2.2715,-2.173,0.0,-2.3172,-2.1666,-2.1752,-2.1527,-2.0975,-1.996,-1.9728,-1.9562,-1.9371,-1.8944,-1.8129,-1.6533,-1.5517,-1.4687,-1.3782,-1.5506,-1.6939,-1.7293,-1.7062,-1.6684,-1.6358,-1.6333,-1.6079,-1.5556,-1.53,-1.53,-1.5547,-1.5215,-1.4977,-1.4903,-1.4778,-1.4371,-1.3716,-1.3752,-1.3351,-1.2639,-1.2341,-1.2068,-1.1826,-1.2031,-1.1769,-1.1274,-1.1877,-1.1359,-1.0213,-1.0859,-1.1325,-1.1756,-1.289,-1.3263,-1.3233,0.0,0.0,0.0,0.0,0.0,0.0,0.0,0.0,0.0,1.44,1.486,1.4656,1.3107,1.2255,1.1135,0.9368,0.7551,0.5996,0.4676,0.4079,0.4065,0.4664,0.5575,0.7008,0.892,1.019,1.1927,1.4204,1.6111,1.8181,2.0369,2.2079,2.3417,2.4422,2.4864,2.4829,2.4418,2.3564,2.2928,2.2339,2.1114,2.0192,1.9425,1.8411,1.6808,1.4803,1.2648,1.198,0.0,0.9271,0.3569,-0.3307,-0.7744,-1.4287,-2.0563,-2.1845,-2.2446,-2.2579,-2.2219,-2.2226,-2.2386,-2.2348,-2.2066,-2.1979,-2.237,-2.1235,-2.0172,-2.0508,-2.0352,-1.9886,-1.8588,-1.828,-1.7663,-1.5979,-1.5238,-1.4308,-1.2669,-1.1439,-1.0616,-1.0371,-1.0679,-1.1857,-1.4272,-1.4375,-1.4509,-1.4828,-1.4837,-1.4746,-1.4507,-1.4364,-1.4103,-1.3737,-1.3087,-1.2557,-1.2305,-1.124,-1.096,-1.134,-1.082,-1.0331,-0.9873,-1.0097,-0.9844,-0.9234,-0.9263,-0.9169,-0.8943,-0.9643,-0.937,-0.8499,-0.8838,-0.868,-0.8629,-1.0769,-1.1567,-1.1567,0.0,0.0,0.0,0.0,0.0,0.0,0.0,0.0,0.0,0.0,1.7042,1.6708,1.5034,1.4275,1.3251,1.1736,1.0236,0.8884,0.7601,0.691,0.6877,0.7533,0.7943,0.9113,1.1254,1.2224,1.3817,1.6056,1.7671,1.9421,2.125,2.2652,2.384,2.4892,2.5426,2.5663,2.5687,2.5224,2.5025,2.4957,2.413,2.3667,2.3388,2.2505,2.1778,2.075,1.7156,1.6049,1.5985,1.4385,0.9884,0.4135,-0.0405,-0.6221,-1.1754,-1.3666,-1.5218,-1.6589,-1.7839,-1.9322,-2.0406,-1.9986,-2.0578,-2.1016,-1.9972,-1.9084,-1.8398,-1.8171,-1.8033,-1.7507,-1.6148,-1.5805,-1.5003,-1.2916,-1.214,-1.1068,-0.9257,-0.8052,-0.7279,-0.7191,-0.6493,-0.7237,-1.0226,-1.1249,-1.1897,-1.2528,-1.2592,-1.26,-1.2687,-1.2604,-1.2268,-1.168,-1.0937,-1.029,-0.9891,-0.8646,-0.8421,-0.9211,-0.8335,-0.7794,-0.7545,-0.7842,-0.7503,-0.6709,-0.6709,-0.6592,-0.6474,-0.7209,-0.7062,-0.6479,-0.6848,-0.6719,-0.6528,-0.8609,-0.9493,-0.9645,0.0,0.0,0.0,0.0,0.0,0.0,0.0,0.0,0.0,0.0,0.0,0.0,0.0,1.5211,1.4732,1.3621,1.2091,1.1248,1.1329,1.1182,1.0875,1.0294,1.1538,1.2402,1.2725,1.4417,1.6086,1.7724,1.9355,2.0959,2.2569,2.3206,2.4412,2.6054,2.6207,2.6919,2.7988,2.7694,2.7408,2.7083,2.6857,2.6544,2.618,2.6144,2.5677,2.464,2.1517,2.0382,2.0443,2.1282,1.6735,1.0358,0.8118,0.1225,-0.6276,-0.7613,-0.9923,-1.2444,-1.4006,-1.532,-1.6492,-1.7606,-1.8415,-1.8832,-1.8318,-1.7923,-1.6944,-1.4952,-1.4238,-1.3535,-1.2131,-1.19,-1.1662,-1.0973,-1.0569,-0.9463,-0.7007,-0.6187,-0.5173,-0.3293,-0.2947,-0.3214,-0.4161,-0.6752,-0.8322,-0.82,-0.8179,-0.8329,-0.8576,-0.8327,-0.827,-0.8323,-0.8007,-0.7777,-0.7616,-0.7533,-0.7406,-0.7168,-0.6462,-0.5921,-0.5546,-0.4857,-0.4539,-0.4521,-0.4521,-0.4107,-0.3466,-0.4206,-0.4092,-0.3577,-0.4982,-0.555,-0.5546,-0.5631,-0.6114,-0.6727,0.0,0.0,0.0,0.0,0.0,0.0,0.0,0.0,0.0,0.0,0.0,0.0,0.0,0.0,0.0,0.0,1.3943,1.3674,1.2975,1.3361,1.3653,1.3636,1.4511,1.5594,1.688,1.787,1.9182,2.0865,2.1721,2.2801,2.4147,2.4753,2.5674,2.686,2.7666,2.8324,2.8851,2.9393,2.9821,3.0119,3.0045,2.9825,2.9438,2.8315,2.7773,2.7279,0.0,2.3412,2.276,2.2802,1.9695,1.5258,1.2316,0.7167,0.1259,-0.3801,-0.6949,-0.9135,-1.0581,-1.2273,-1.3583,-1.3429,-1.4248,-1.492,-1.3933,-1.3044,-1.2151,-1.1412,-1.0577,-0.9687,-0.8951,-0.8819,-0.8721,-0.804,-0.7683,-0.7015,-0.5406,-0.4336,-0.348,-0.2848,-0.228,-0.2297,-0.3081,-0.454,-0.5894,-0.713,-0.7131,-0.7154,-0.7339,-0.7195,-0.654,-0.5465,-0.5299,-0.493,-0.42,-0.42,-0.4086,-0.3858,-0.3593,-0.3429,-0.3309,-0.3026,-0.2919,-0.2927,-0.2927,-0.2811,-0.2581,-0.2863,-0.2807,-0.2637,-0.3135,-0.3302,-0.3299,-0.3287,-0.345,-0.3831,0.0,0.0,0.0,0.0,0.0,0.0,0.0,0.0,0.0,0.0,0.0,0.0,0.0,0.0,0.0,0.0,0.0,1.5812,1.5127,1.5756,1.618,1.626,1.7532,1.8716,1.9707,2.0982,2.2152,2.3247,2.4043,2.489,2.5778,2.6451,2.735,2.8465,2.9582,3.0414,3.0992,3.1695,3.2087,3.2206,3.2201,3.1893,3.1372,3.0575,3.0054,0.0,2.7201,2.5186,2.3545,2.3161,2.072,1.7241,1.3651,0.8689,0.3282,-0.1704,-0.4904,-0.706,-0.8023,-0.9602,-1.0958,-1.0445,-1.083,-1.1076,-0.9824,-0.8914,-0.8258,-0.7798,-0.6818,-0.6005,-0.6036,-0.6193,-0.6214,-0.5943,-0.6017,-0.578,-0.4739,-0.3458,-0.2588,-0.241,-0.1592,-0.121,-0.1708,-0.2238,-0.3324,-0.5201,-0.5268,-0.5277,-0.5356,-0.5249,-0.4656,-0.3494,-0.3487,-0.3013,-0.2007,-0.2007,-0.1671,-0.1001,-0.1005,-0.0896,-0.0616,-0.0615,-0.0615,-0.0615,-0.0615,-0.0615,-0.0615,-0.0615,-0.0615,-0.0671,-0.0892,-0.1003,-0.1003,-0.1001,-0.1001,-0.1222,0.0,0.0,0.0,0.0,0.0,0.0,0.0,0.0,0.0,0.0,0.0,0.0,0.0,0.0,0.0,0.0,0.0,0.0,1.7765,1.8401,1.8614,1.8273,2.059,2.1758,2.1412,2.3672,2.4912,2.4996,2.6317,2.7126,2.7479,2.8255,2.9332,3.0702,3.1784,3.2928,3.4122,3.4415,3.4119,3.3418,3.3418,3.2899,3.216,3.2822,3.2433,3.1188,2.8582,2.5624,2.2929,2.2356,1.974,1.6008,1.2008,0.601,0.0189,-0.1254,-0.3668,-0.5892,-0.6191,-0.7269,-0.8414,-0.8602,-0.8097,-0.7258,-0.5953,-0.5616,-0.5158,-0.3861,-0.2917,-0.2566,-0.3372,-0.3747,-0.4038,-0.4434,-0.5228,-0.5457,-0.4626,-0.3342,-0.2285,-0.1741,-0.0674,0.0,0.0,0.0087,-0.0671,-0.2368,-0.2586,-0.2588,-0.2589,-0.2581,-0.249,-0.2279,-0.2254,-0.1808,-0.0947,-0.0946,-0.0222,0.1165,0.1167,0.1562,0.2238,0.2232,0.223,0.223,0.223,0.223,0.2174,0.2174,0.2174,0.2119,0.1444,0.1165,0.1165,0.1165,0.1165,0.0942,0.0,0.0,0.0,0.0,0.0,0.0,0.0,0.0,0.0,0.0,0.0,0.0,0.0,0.0,0.0,0.0,0.0,0.0,1.9851,2.0589,2.1531,2.2867,2.3992,2.4927,2.5634,2.6744,2.7519,2.7921,2.8562,2.9094,2.9483,3.0022,3.0719,3.1532,3.263,3.3392,3.3939,3.4914,3.5191,3.5022,3.5061,3.49,3.4527,3.3323,3.2526,3.1433,2.7059,2.3772,2.1151,1.8658,1.3696,0.7987,0.4663,0.1796,-0.0657,-0.2166,-0.3156,-0.388,-0.3921,-0.4374,-0.4661,-0.3936,-0.3639,-0.2974,-0.1104,0.0172,0.0956,0.1114,0.2176,0.255,0.0826,0.033,-0.0329,-0.1804,-0.2292,-0.2465,-0.2423,-0.1933,-0.1284,-0.0514,-0.0173,0.0,0.0,0.0702,0.1024,0.0573,-0.0851,-0.1403,-0.0862,-0.087,-0.019,0.1176,0.1077,0.1098,0.1337,0.1336,0.1558,0.1893,0.1895,0.228,0.2996,0.2994,0.2994,0.2994,0.2994,0.2722,0.2174,0.2174,0.2174,0.2174,0.2006,0.1893,0.1893,0.1893,0.1893,0.1949,0.0,0.0,0.0,0.0,0.0,0.0,0.0,0.0,0.0,0.0,0.0,0.0,0.0,0.0,0.0,0.0,0.0,0.0,0.0,2.2668,2.3646,2.5,2.6199,2.7217,2.8103,2.9052,2.9416,2.9211,3.0333,3.0744,3.0552,3.1645,3.2338,3.2742,3.3833,3.4499,3.4859,3.5659,3.5854,0.0,0.0,3.5731,3.4828,3.4333,3.3007,3.0812,2.6318,2.0974,1.5581,1.2257,0.8075,0.3689,0.0743,-0.0545,-0.1038,-0.1506,-0.1723,-0.1721,-0.1343,-0.1372,-0.1241,-0.016,0.0483,0.1209,0.275,0.388,0.4522,0.438,0.5431,0.5716,0.3794,0.2818,0.1661,-0.0167,-0.135,-0.2058,-0.2278,-0.1695,-0.1094,-0.0799,0.0177,0.0794,0.0707,0.1746,0.2394,0.2234,0.1171,0.0745,0.1161,0.1074,0.1518,0.2461,0.2676,0.3122,0.3851,0.4191,0.4363,0.4363,0.4187,0.4375,0.4751,0.4751,0.4751,0.4751,0.4751,0.4535,0.4158,0.4158,0.4158,0.4158,0.4158,0.4158,0.4158,0.4158,0.4158,0.4213,0.0,0.0,0.0,0.0,0.0,0.0,0.0,0.0,0.0,0.0,0.0,0.0,0.0,0.0,0.0,0.0,0.0,0.0,0.0,0.0,2.5295,2.6046,2.7747,2.8949,2.9533,3.0639,3.0742,2.9799,3.1614,3.2068,3.1255,3.2985,3.3807,3.3825,3.4869,3.5553,3.5931,3.6197,3.607,3.5757,3.6565,3.577,3.4139,0.0,3.3235,2.9603,2.5188,1.7664,0.9296,0.5996,0.3731,0.1972,-0.0753,-0.1255,-0.0794,0.0072,0.0353,0.0554,0.143,0.1655,0.1957,0.3327,0.4225,0.5115,0.6213,0.669,0.6894,0.6792,0.7684,0.7877,0.6186,0.4775,0.3316,0.1774,-0.0343,-0.1844,-0.1888,-0.1049,-0.061,-0.1009,0.0815,0.1952,0.1823,0.3013,0.3712,0.3487,0.3635,0.3501,0.3127,0.3021,0.3034,0.3129,0.3746,0.4728,0.6182,0.6805,0.7089,0.7084,0.6748,0.6642,0.675,0.675,0.675,0.675,0.675,0.6696,0.6588,0.6588,0.6588,0.6588,0.6588,0.6588,0.6588,0.6588,0.6588,0.6588,0.0,0.0,0.0,0.0,0.0,0.0,0.0,0.0,0.0,0.0,2.1329,2.147,0.0,0.0,0.0,0.0,0.0,0.0,0.0,0.0,0.0,2.8677,2.9545,3.0237,3.087,3.1083,3.1253,3.1391,3.2141,3.2602,3.2816,3.3478,3.3807,3.3834,3.4228,3.4622,3.4963,3.5242,3.5419,3.5575,3.6179,3.5571,3.4271,3.3582,0.0,0.0,2.0712,1.4494,0.9321,0.6923,0.4196,0.1675,0.0155,0.0224,0.1008,0.1792,0.2565,0.3446,0.4315,0.458,0.5108,0.7165,0.722,0.7487,1.0147,1.0547,1.0301,1.0013,1.0584,1.0627,0.9313,0.8105,0.7332,0.7383,0.5305,0.3846,0.4364,0.3665,0.3061,0.2856,0.3074,0.3189,0.3038,0.4672,0.5681,0.5636,0.7143,0.6807,0.414,0.442,0.5278,0.6575,0.6776,0.6934,0.7239,0.7119,0.7089,0.7084,0.6748,0.6912,0.7503,0.7503,0.7503,0.7503,0.7503,0.7182,0.6588,0.6588,0.6588,0.6588,0.6588,0.6588,0.6588,0.6588,0.6588,0.6588,0.0,0.0,0.0,0.0,0.0,0.0,0.0,2.1109,2.1682,2.2639,2.3371,2.3756,2.364,2.4596,2.5441,0.0,0.0,0.0,0.0,0.0,0.0,0.0,3.0166,3.0559,3.119,3.1411,3.1396,3.1219,0.0,3.2768,3.2647,3.3424,3.3807,3.3807,3.3935,3.426,3.4694,3.4851,3.537,3.6171,3.67,3.5908,3.4346,0.0,0.0,0.0,1.8791,1.4736,1.198,1.0744,0.9256,0.7289,0.3519,0.3477,0.4976,0.5183,0.6215,0.744,0.7829,0.8087,0.8735,1.069,1.0781,1.1056,1.3182,1.3491,1.3241,1.315,1.3426,1.3397,1.2419,1.0843,0.9592,0.9378,0.7545,0.5986,0.5787,0.5298,0.495,0.4667,0.5213,0.5593,0.5852,0.7193,0.8003,0.7819,0.8613,0.8394,0.684,0.6739,0.7173,0.8138,0.8259,0.8446,0.8873,0.8747,0.8851,0.9292,0.8756,0.8924,0.9667,0.9042,0.8771,0.8771,0.8415,0.8049,0.7723,0.7723,0.7723,0.7723,0.7723,0.7723,0.7723,0.7723,0.7723,0.7723,0.0,0.0,0.0,0.0,0.0,0.0,0.0,2.1385,2.2336,2.3868,2.511,2.5877,2.579,2.6547,2.7467,0.0,0.0,0.0,0.0,0.0,0.0,0.0,0.0,0.0,3.1312,0.0,0.0,3.1496,3.2818,0.0,0.0,0.0,0.0,0.0,3.3807,3.4136,3.4694,3.4694,3.5342,0.0,0.0,3.5871,3.3725,0.0,0.0,0.0,0.0,1.6818,1.5589,1.529,1.5002,1.3881,0.9003,0.8551,0.9715,0.9192,1.0174,1.1473,1.1707,1.2,1.2613,1.4468,1.4604,1.4633,1.5877,1.576,1.5325,1.5251,1.5444,1.5412,1.4805,1.3344,1.1956,1.1191,0.9614,0.8103,0.6936,0.7059,0.7022,0.6452,0.7417,0.8312,0.8687,0.9609,1.0048,0.9698,0.9755,0.9623,0.9257,0.8789,0.8698,0.9204,0.9266,0.9703,1.0445,1.0383,1.0756,1.1567,1.0969,1.0964,1.1464,1.0688,1.021,0.9969,0.9432,0.9123,0.9008,0.8857,0.8804,0.8804,0.8804,0.8804,0.8804,0.8804,0.8804,0.8804,0.0,0.0,0.0,0.0,0.0,0.0,0.0,2.1374,2.2573,2.5019,2.5975,2.7316,2.9705,2.9031,2.8734,0.0,0.0,0.0,0.0,0.0,0.0,0.0,0.0,0.0,0.0,0.0,0.0,3.4065,3.4199,0.0,0.0,0.0,0.0,0.0,0.0,3.4136,3.4694,3.4694,0.0,0.0,0.0,0.0,0.0,0.0,0.0,0.0,0.0,2.0313,1.9283,1.9266,1.8886,1.8328,1.7539,1.6095,1.4453,1.3363,1.3799,1.4898,1.5989,1.6109,1.6524,1.9122,1.8459,1.7441,1.8497,1.7188,1.5624,1.53,1.5444,1.5651,1.5994,1.5847,1.5615,1.5233,1.4001,1.2661,1.1204,1.1014,1.0631,0.949,1.0186,1.074,1.056,1.0897,1.1051,1.1004,1.1596,1.1331,0.9761,0.9589,0.9825,1.0395,1.0451,1.0815,1.1665,1.1368,1.1634,1.2472,1.2124,1.1806,1.1534,1.1797,1.1457,1.0685,1.0447,1.009,0.9666,0.9061,0.8804,0.8804,0.8804,0.8804,0.8804,0.8804,0.8804,0.8804,0.0,0.0,0.0,0.0,0.0,0.0,2.117,2.2166,2.3683,2.6167,2.7126,2.8395,3.0579,3.0159,3.0204,3.1289,0.0,0.0,0.0,0.0,0.0,0.0,0.0,0.0,0.0,0.0,3.3417,3.4406,3.5175,0.0,0.0,0.0,0.0,0.0,0.0,3.4474,3.4401,3.4401,0.0,0.0,0.0,0.0,0.0,0.0,0.0,0.0,0.0,0.0,2.1718,2.1923,2.1865,2.1616,2.096,2.1125,2.0864,1.7693,1.7405,1.8301,1.9081,2.0081,2.1062,2.1798,2.1,2.0133,2.055,1.8811,1.7055,1.6899,1.7183,1.7432,1.7588,1.7178,1.6681,1.6325,1.5703,1.4522,1.2631,1.3304,1.3526,1.2083,1.2911,1.3379,1.2826,1.2914,1.2994,1.2988,1.3623,1.3681,1.2795,1.2169,1.1748,1.1582,1.2134,1.2414,1.2512,1.2369,1.2726,1.3558,1.3182,1.3191,1.3469,1.2717,1.2254,1.2114,1.1399,1.1148,1.1166,1.0903,1.0794,1.0771,1.0508,1.0424,1.0348,0.9635,0.9413,0.9361,0.0,0.0,0.0,0.0,0.0,2.0562,2.1798,2.3152,2.4967,2.7696,2.8812,2.9997,3.1759,3.1732,3.1976,3.2803,3.2195,0.0,0.0,0.0,0.0,0.0,0.0,0.0,0.0,0.0,3.4616,3.5333,3.6223,3.6652,0.0,0.0,3.6064,3.499,0.0,0.0,0.0,0.0,0.0,0.0,0.0,0.0,0.0,0.0,0.0,0.0,0.0,0.0,0.0,0.0,0.0,2.3996,2.3379,2.4396,2.5023,2.1491,2.1174,2.2186,2.2882,2.433,2.5625,2.5455,2.4426,2.3299,2.2823,2.0544,1.8486,1.8105,1.835,1.8601,1.8809,1.8341,1.7739,1.6996,1.6719,1.5849,1.386,1.4759,1.5384,1.4695,1.5088,1.5327,1.5412,1.5082,1.4801,1.4599,1.5106,1.5367,1.5274,1.4645,1.3794,1.266,1.3283,1.3489,1.3373,1.3364,1.3786,1.4569,1.4292,1.4383,1.4766,1.3789,1.3375,1.3349,1.2518,1.2272,1.2372,1.2206,1.2095,1.2069,1.1802,1.1617,1.1386,1.0609,1.0104,0.971,0.0,0.0,0.0,0.0,0.0,0.0,2.2405,2.4087,2.6334,2.9638,3.106,3.2403,3.3994,3.4233,3.4057,3.3521,3.2942,0.0,0.0,0.0,0.0,0.0,0.0,0.0,0.0,0.0,3.6199,3.7459,3.7459,3.7477,3.7477,3.7477,3.6597,3.499,0.0,0.0,0.0,0.0,0.0,0.0,0.0,0.0,0.0,0.0,0.0,0.0,0.0,0.0,0.0,0.0,0.0,0.0,0.0,2.5781,2.5814,2.4461,2.5256,2.6773,2.7913,2.9086,3.0087,3.0735,2.9182,2.717,2.5647,2.2467,1.9503,1.8291,1.835,1.8769,1.9199,1.9619,1.9335,1.759,1.7557,1.7047,1.5069,1.5164,1.592,1.7305,1.6239,1.6161,1.8181,1.7498,1.6475,1.5675,1.5683,1.6033,1.6576,1.6558,1.5671,1.3633,1.36,1.38,1.4154,1.4213,1.4569,1.541,1.541,1.5186,1.4795,1.5205,1.4875,1.4097,1.3849,1.3505,1.3032,1.2372,1.2095,1.2095,1.2095,1.186,1.1517,1.1464,1.0769,0.9814,0.0,0.0,0.0,0.0,0.0,0.0,0.0,2.4667,2.6706,2.9351,3.125,3.2719,3.367,3.3641,3.3524,3.3505,3.3355,0.0,0.0,0.0,0.0,0.0,0.0,0.0,0.0,0.0,3.5963,3.667,3.667,3.667,3.6688,3.6862,3.639,3.5362,3.5529,3.5229,0.0,0.0,0.0,0.0,0.0,0.0,2.7933,0.0,0.0,0.0,0.0,0.0,0.0,0.0,0.0,0.0,0.0,0.0,0.0,2.7413,2.7579,2.798,2.9106,3.0522,3.1601,3.1594,2.9537,2.7215,2.6399,2.2744,1.941,1.8942,1.8984,1.9121,1.9268,1.9654,1.963,1.8949,1.9092,1.8616,1.6743,1.7636,1.8264,1.771,1.7856,1.7697,1.7203,1.7853,1.8104,1.7463,1.7633,1.7798,1.7959,1.7676,1.6831,1.5217,1.5551,1.566,1.5489,1.5193,1.5177,1.541,1.541,1.5342,1.5205,1.5049,1.499,1.5,1.4619,1.4582,1.4659,1.442,1.4363,1.4335,1.4063,1.3867,1.3662,1.2878,1.2377,1.2004,0.0,0.0,0.0,0.0,0.0,0.0,0.0,2.6157,2.8096,3.0201,3.236,3.3781,3.404,3.4062,3.4006,3.3877,3.3909,0.0,0.0,0.0,0.0,0.0,0.0,0.0,0.0,3.5724,3.5919,3.5615,3.5739,3.561,3.5387,3.5792,3.5588,3.4837,3.5297,3.5048,0.0,0.0,0.0,0.0,0.0,0.0,2.7136,0.0,0.0,0.0,0.0,0.0,0.0,0.0,0.0,0.0,0.0,0.0,0.0,0.0,2.9237,2.9719,3.0999,3.2415,3.3422,3.271,3.0535,2.8168,2.6769,2.301,1.9736,1.9586,1.9424,1.9393,1.9713,1.9775,1.9736,1.9813,1.965,1.9353,1.885,1.9175,1.9055,1.8077,1.9418,1.9586,1.7752,1.8955,1.9489,1.8652,1.8732,1.8782,1.8604,1.8203,1.7504,1.6477,1.6596,1.6533,1.6128,1.5625,1.541,1.541,1.541,1.541,1.54,1.5137,1.5166,1.54,1.5137,1.5176,0.0,1.541,1.541,1.5381,1.5117,1.4922,1.469,1.4023,1.3497,1.3032,0.0,0.0,0.0,0.0,0.0,0.0,0.0,2.8199,3.0117,3.1784,3.405,3.528,3.4695,3.5029,3.5087,3.4496,0.0,0.0,0.0,0.0,0.0,0.0,0.0,0.0,3.4434,3.5836,3.5887,3.4455,3.4648,3.4374,3.3732,3.4375,3.4305,3.367,3.4394,3.4305,0.0,0.0,0.0,0.0,0.0,0.0,0.0,0.0,0.0,0.0,0.0,0.0,0.0,0.0,0.0,0.0,0.0,0.0,0.0,0.0,0.0,0.0,0.0,3.4289,3.5156,3.3786,3.1903,2.9599,2.6777,2.3281,0.0,1.998,1.9585,1.9591,2.0505,1.9965,1.9627,2.0333,1.9569,1.9552,2.1228,1.9787,1.8609,1.8637,2.0902,2.169,1.9331,2.0458,2.0653,1.9273,1.927,1.9144,1.8654,1.8203,1.785,1.7481,1.696,1.649,1.6105,1.5654,1.541,1.541,1.541,1.541,1.541,1.541,1.541,1.541,1.541,1.541,1.541,1.541,1.541,1.541,1.541,1.5156,1.4785,1.4814,1.4155,1.3241,0.0,0.0,0.0,0.0,0.0,0.0,0.0,0.0,0.0,0.0,3.3707,3.4896,3.3366,3.4032,3.4366,0.0,0.0,0.0,0.0,0.0,0.0,0.0,0.0,0.0,3.4777,3.4563,3.4244,3.3904,3.331,3.296,3.2783,3.2652,3.281,3.3191,3.3573,3.3973,0.0,0.0,0.0,0.0,0.0,0.0,0.0,0.0,0.0,0.0,2.3513,2.3649,0.0,0.0,0.0,0.0,0.0,0.0,0.0,0.0,2.7831,2.9078,2.9503,0.0,3.3262,3.2907,3.0838,2.8376,0.0,2.3504,2.0809,2.0062,1.9827,2.0008,2.0906,2.0134,2.0052,2.2144,2.1511,2.0661,2.0656,2.0241,1.9888,1.9602,2.1548,2.211,1.9972,2.096,2.1448,2.0712,1.9829,1.9223,1.9165,1.8388,1.7949,1.789,1.7111,1.6533,1.6077,1.5645,1.541,1.541,1.541,1.541,1.541,1.541,1.541,1.541,1.541,1.541,1.541,1.541,1.541,1.541,1.541,1.5156,1.4824,1.5146,1.4877,1.4446,0.0,0.0,0.0,0.0,0.0,0.0,0.0,0.0,0.0,0.0,0.0,0.0,0.0,0.0,0.0,0.0,0.0,0.0,0.0,0.0,0.0,0.0,0.0,3.3519,3.3389,3.3139,3.252,3.1502,3.124,3.1031,3.0964,3.0847,3.1282,3.2267,3.3094,3.3894,0.0,0.0,0.0,0.0,2.7616,0.0,0.0,0.0,0.0,0.0,2.2545,2.2633,0.0,2.2817,2.2962,2.3276,0.0,0.0,0.0,0.0,2.6326,2.7047,2.6296,2.8697,3.1144,3.0126,2.8208,2.6108,2.4334,2.1498,1.9178,1.9024,1.8844,1.8856,1.9746,1.9128,1.9221,2.1332,2.0898,2.0421,2.0763,2.0997,2.105,2.098,2.2227,2.2578,2.1239,2.1594,2.1725,2.1251,2.0223,1.9511,1.9284,1.8652,1.8085,1.7723,1.708,1.6574,1.6394,1.5743,1.541,1.541,1.541,1.5518,1.5703,1.5498,1.5518,1.5753,1.5838,1.569,1.541,1.5758,1.57,1.541,1.541,1.5156,1.4834,1.5254,1.5146,1.4844,0.0,0.0,0.0,0.0,0.0,0.0,0.0,0.0,0.0,0.0,0.0,0.0,0.0,0.0,0.0,0.0,0.0,0.0,0.0,0.0,0.0,0.0,0.0,3.2861,3.1291,3.1495,3.0684,2.882,2.9182,2.9378,2.9387,2.9459,3.0141,3.1342,3.2741,3.3615,0.0,0.0,0.0,0.0,2.6649,0.0,0.0,0.0,0.0,0.0,0.0,0.0,0.0,2.235,2.2385,2.2351,2.2782,0.0,0.0,0.0,0.0,0.0,2.2769,2.5179,2.7789,2.6062,2.4577,2.3023,2.0843,1.8496,1.6968,1.7404,1.7389,1.7488,1.8435,1.7983,1.805,1.983,1.9666,1.9915,2.1551,2.1925,2.2189,2.2425,2.2853,2.2965,2.2532,2.2168,2.1774,2.1342,2.0401,1.9632,1.931,1.8811,1.8228,1.7484,1.7001,1.6683,1.6683,1.5811,1.541,1.541,1.5478,1.5703,1.6115,1.5752,1.5811,1.6204,1.6399,1.608,1.5566,1.6124,1.5979,1.541,1.541,1.5156,1.4834,1.5186,1.5088,1.4844,0.0,0.0,0.0,0.0,0.0,0.0,0.0,0.0,0.0,0.0,0.0,0.0,0.0,0.0,0.0,0.0,0.0,0.0,0.0,0.0,0.0,3.3603,3.1855,3.0467,2.9589,2.9143,2.8746,2.8388,2.8971,2.9539,3.0112,3.0032,3.0459,3.1342,3.2272,3.2316,3.181,0.0,0.0,0.0,2.5432,0.0,0.0,0.0,0.0,0.0,0.0,0.0,0.0,2.2977,2.2698,2.228,2.2153,0.0,0.0,0.0,0.0,0.0,1.8104,1.8745,2.0166,2.0614,2.0234,1.913,1.6534,1.6129,1.6141,1.5583,1.6613,1.8034,1.9154,1.8331,1.8275,2.0473,2.1043,2.1717,2.3413,2.3104,2.293,2.3515,2.327,2.2949,2.2505,2.2181,2.1836,2.1801,2.0312,1.9365,1.9295,1.8507,1.8056,1.7891,1.71,1.668,1.668,1.584,1.541,1.542,1.5781,1.6056,1.6135,1.6387,1.6562,1.6602,1.6274,1.6077,1.5998,1.5684,1.5526,1.541,1.541,1.5156,1.4795,1.4863,1.4844,1.4844,0.0,0.0,0.0,0.0,0.0,0.0,0.0,0.0,0.0,0.0,0.0,0.0,0.0,0.0,0.0,0.0,0.0,0.0,0.0,0.0,0.0,3.1171,2.8551,2.7405,2.805,2.6763,2.6088,2.6096,2.6807,2.7775,2.9041,2.9978,3.0907,3.1752,3.2257,3.2055,3.1258,3.0793,0.0,0.0,0.0,0.0,0.0,0.0,0.0,0.0,0.0,0.0,0.0,0.0,2.1479,2.1064,1.9966,0.0,0.0,0.0,0.0,0.0,1.4824,1.444,1.4395,1.3888,1.4367,1.4649,1.3039,1.2352,1.2242,1.2741,1.3724,1.4826,1.6249,1.631,1.7038,1.9506,2.0173,2.0956,2.2372,2.2473,2.2669,2.333,2.3261,2.294,2.2495,2.2133,2.1787,2.1553,2.0352,1.9531,1.9297,1.8691,1.8242,1.8018,1.7412,1.6973,1.6665,1.6328,1.5996,1.5762,1.6027,1.638,1.6777,1.6748,1.6865,1.7041,1.6778,1.6477,1.6086,1.5996,1.5748,1.541,1.541,1.5156,1.4785,1.4785,1.4932,1.5146,0.0,0.0,0.0,0.0,0.0,0.0,0.0,0.0,0.0,0.0,0.0,0.0,0.0,0.0,0.0,0.0,0.0,0.0,0.0,0.0,3.0569,2.8682,2.5333,2.4171,2.5577,2.4041,2.3312,2.35,2.4617,2.6236,2.831,3.0205,3.1295,3.1593,3.2304,3.1846,3.0456,2.9711,2.7551,0.0,0.0,0.0,0.0,0.0,0.0,0.0,0.0,0.0,0.0,0.0,0.0,0.0,0.0,0.0,0.0,1.5683,1.4792,1.3833,1.1929,1.1032,1.0244,0.8348,0.9479,1.0876,1.0229,0.9444,0.9178,1.0637,1.1591,1.2544,1.3757,1.5159,1.6671,1.8373,1.9731,2.074,2.1278,2.2079,2.2756,2.3252,2.3203,2.2969,2.2549,2.2129,2.1709,2.1269,2.041,1.9775,1.9453,1.8926,1.8486,1.8164,1.7559,1.707,1.6675,1.6631,1.6406,1.6125,1.6341,1.6728,1.7373,1.7139,1.7158,1.7399,1.7174,1.6698,1.6086,1.6219,1.5921,1.541,1.541,1.5156,1.4795,1.4893,1.5078,1.5283,0.0,0.0,0.0,0.0,0.0,0.0,0.0,0.0,0.0,0.0,0.0,0.0,0.0,0.0,0.0,0.0,0.0,0.0,0.0,0.0,2.8462,2.7126,2.3105,2.0969,2.1149,2.0544,2.0618,2.1419,2.3459,2.6172,2.9437,3.1426,3.1502,3.0064,3.22,3.1327,2.8235,2.783,2.6327,2.4239,0.0,0.0,0.0,0.0,0.0,0.0,0.0,0.0,0.0,0.0,0.0,0.0,0.0,0.0,1.4962,1.2749,1.2291,1.1829,0.9067,0.847,0.8118,0.5937,0.7207,0.8987,0.8337,0.8832,0.9623,1.0157,1.2307,1.4162,1.4225,1.6826,1.8621,1.7813,2.0877,2.2959,2.1702,2.3039,2.4127,2.3789,2.3389,2.2969,2.2549,2.2129,2.1709,2.1269,2.041,1.9902,1.9873,1.9082,1.8623,1.8594,1.7346,1.6758,1.6665,1.6318,1.6154,1.6135,1.6894,1.7324,1.7393,1.7754,1.7725,1.7353,1.6948,1.6507,1.6086,1.5655,1.5468,1.541,1.541,1.5156,1.4834,1.5225,1.5137,1.4893,0.0,0.0,0.0,0.0,0.0,0.0,0.0,0.0,0.0,0.0,0.0,0.0,0.0,0.0,0.0,0.0,0.0,0.0,0.0,2.6204,2.5032,2.2697,1.9412,1.7477,1.6957,1.7609,1.834,1.9226,2.3568,2.7414,3.0765,3.1923,3.2171,3.1742,3.153,2.997,2.7446,2.6594,2.5091,2.3285,2.347,0.0,0.0,0.0,0.0,0.0,0.0,0.0,0.0,0.0,1.743,1.5314,1.4169,1.2893,1.1648,1.0556,0.9878,0.9271,0.8373,0.7827,0.746,0.681,0.7485,0.7918,0.6967,0.7214,0.7926,0.8841,1.0668,1.2705,1.4487,1.6672,1.813,1.7922,2.02,2.181,2.1113,2.2817,2.3867,2.3437,2.3008,2.2685,2.2529,2.1885,2.1416,2.125,2.0176,1.9531,1.9531,1.8711,1.8252,1.8252,1.7773,1.7275,1.6738,1.709,1.6865,1.6135,1.6689,1.7119,1.7383,1.7266,1.7129,1.6953,1.6504,1.6221,1.6086,1.5586,1.541,1.541,1.541,1.5312,1.5195,1.5352,1.5312,1.5195,0.0,0.0,0.0,0.0,0.0,0.0,0.0,0.0,0.0,0.0,0.0,0.0,0.0,0.0,0.0,0.0,0.0,0.0,2.2988,2.2763,2.1525,1.8803,1.6571,1.4937,1.3964,1.5477,1.6948,1.8295,2.3643,2.772,3.0547,3.1817,3.1996,3.124,3.0624,2.8797,2.6042,2.4707,2.3522,2.2528,2.2703,2.2584,0.0,0.0,0.0,0.0,0.0,0.0,0.0,0.0,1.5115,1.3124,1.1627,1.0373,0.9384,0.8862,0.8349,0.7932,0.7776,0.7457,0.7265,0.7475,0.7706,0.7625,0.6865,0.6953,0.7533,0.8948,1.0835,1.281,1.5251,1.6869,1.7839,1.7963,2.0008,2.1387,2.1172,2.263,2.3633,2.3193,2.2764,2.2461,2.2324,2.1533,2.0967,2.083,1.9863,1.9287,1.9287,1.8603,1.8213,1.8213,1.7949,1.7529,1.6943,1.7519,1.7295,1.6279,1.6822,1.7066,1.7168,1.6865,1.665,1.6504,1.6201,1.6047,1.583,1.5537,1.541,1.541,1.541,1.541,1.541,1.541,1.541,1.541,0.0,0.0,0.0,0.0,0.0,0.0,0.0,0.0,0.0,0.0,0.0,0.0,0.0,0.0,0.0,0.0,0.0,0.0,1.9987,1.9284,1.7996,1.5922,1.4922,1.3703,1.2305,1.4317,1.6598,1.9053,2.3591,2.6705,2.8483,3.121,3.0754,2.7767,2.9453,2.7827,2.3654,2.2063,2.1622,2.1964,2.1534,2.1901,2.2745,0.0,0.0,0.0,0.0,0.0,0.0,0.0,1.3505,1.1578,1.0563,0.9574,0.8583,0.756,0.7737,0.8004,0.6947,0.7031,0.7373,0.7373,0.7712,0.8085,0.8238,0.8381,0.903,1.0921,1.3126,1.5172,1.6452,1.7519,1.8266,1.8074,2.0632,2.2366,2.1895,2.2947,2.3623,2.3184,2.2764,2.2344,2.1914,2.1074,2.0381,1.9941,1.9521,1.9277,1.9277,1.8867,1.8562,1.8562,1.7822,1.7393,1.7383,1.7393,1.7168,1.6728,1.744,1.7378,1.6665,1.6728,1.6475,1.6115,1.6115,1.5811,1.541,1.541,1.541,1.541,1.541,1.541,1.541,1.541,1.541,1.541,0.0,0.0,0.0,0.0,0.0,0.0,0.0,0.0,0.0,0.0,0.0,0.0,0.0,0.0,0.0,0.0,0.0,0.0,1.4568,1.3997,1.3218,1.2179,1.184,1.221,1.3158,1.7998,2.1078,2.2235,2.4366,2.7031,3.0214,3.0135,2.914,2.7381,2.5897,2.351,2.0487,1.9523,1.9182,1.9314,2.0086,2.0502,2.0751,0.0,0.0,0.0,0.0,0.0,0.0,0.0,0.0,0.0,0.8741,0.8026,0.711,0.6802,0.6986,0.7193,0.6943,0.719,0.7556,0.7655,0.8018,0.8667,0.9737,0.926,0.9452,1.2096,1.3613,1.4932,1.6373,1.6854,1.7126,1.7986,1.9357,2.0709,2.163,2.2702,2.3174,2.2744,2.2324,2.1777,2.1035,2.0439,1.9932,1.9502,1.9072,1.8828,1.8828,1.8428,1.8193,1.8193,1.7959,1.7686,1.7393,1.7676,1.7451,1.6738,1.7288,1.71,1.625,1.6476,1.6195,1.5605,1.5605,1.5527,1.541,1.541,1.541,1.541,1.541,1.541,1.541,1.541,1.541,1.541,0.0,0.0,0.0,0.0,0.0,0.0,0.0,0.0,0.0,0.0,0.0,0.0,0.0,0.0,0.0,0.0,0.0,0.0,0.0,1.0145,1.0,0.9243,1.0136,1.2165,1.5308,2.0093,2.333,2.4776,2.5102,2.6574,2.9008,2.7787,2.6208,2.4323,2.2294,2.0222,1.8186,1.7083,1.7077,1.7917,1.8769,1.9029,1.8862,0.0,0.0,0.0,0.0,0.0,0.0,0.0,0.0,0.0,0.7729,0.7042,0.6573,0.6634,0.6868,0.7119,0.718,0.7522,0.7889,0.7974,0.8286,0.8973,1.0248,1.0837,1.1686,1.3393,1.4456,1.5411,1.6394,1.6293,1.6656,1.8338,1.9084,2.0119,2.2025,2.2618,2.2755,2.2543,2.1831,2.1179,2.0668,1.9868,1.9253,1.9039,1.8582,1.8389,1.8389,1.8144,1.8008,1.8008,1.8008,1.7891,1.7637,1.7881,1.7578,1.6738,1.7481,1.7123,1.5801,1.6175,1.5976,1.541,1.541,1.5508,1.5654,1.5488,1.5508,1.5654,1.5478,1.541,1.541,1.541,1.541,1.541,0.0,0.0,0.0,0.0,0.0,0.0,0.0,0.0,0.0,0.0,2.225,0.0,0.0,0.0,0.0,0.0,0.0,0.0,0.0,0.0,0.7813,0.7186,0.9745,1.3316,1.7978,2.1115,2.3987,2.6561,2.5724,2.5521,2.5892,2.4423,2.2231,1.9543,1.8655,1.7489,1.6234,1.4874,1.5405,1.7239,1.7668,1.7599,1.7216,1.7895,0.0,0.0,0.0,0.0,0.0,0.0,0.0,0.0,0.7616,0.7065,0.7115,0.7079,0.7344,0.7622,0.7567,0.7916,0.8252,0.8269,0.8699,0.9404,1.046,1.2874,1.4915,1.4618,1.5425,1.6239,1.6266,1.6005,1.6612,1.9074,1.9414,2.021,2.2659,2.2695,2.2464,2.2371,2.1322,2.0545,2.0545,1.9353,1.8611,1.8576,1.8241,1.8008,1.8008,1.8008,1.8008,1.8008,1.8008,1.8008,1.8144,1.7969,1.7559,1.685,1.7879,1.7317,1.5488,1.5999,1.588,1.541,1.541,1.5635,1.5977,1.5576,1.5644,1.5957,1.5566,1.541,1.541,1.541,1.541,1.541,0.0,0.0,0.0,0.0,0.0,0.0,0.0,0.0,0.0,0.0,0.0,0.0,0.0,0.0,0.0,0.0,0.0,0.0,0.0,0.0,0.548,0.6211,1.1234,1.5455,1.8562,2.2915,2.5564,2.6366,2.5295,2.4732,2.4503,2.0401,1.7479,1.5622,1.4354,1.3321,1.2668,1.3462,1.4444,1.554,1.6536,1.6848,1.6749,1.708,1.6496,0.0,0.0,0.0,0.0,0.0,0.0,0.0,0.9785,0.9852,0.992,0.8773,0.8836,0.9013,0.79,0.7838,0.8116,0.8241,1.0144,1.2202,1.3137,1.4652,1.5652,1.4547,1.5227,1.5999,1.6226,1.5845,1.6296,1.8628,1.8836,1.9436,2.1803,2.208,2.1914,2.1477,2.0996,2.0488,2.0062,1.9204,1.8572,1.8601,1.8262,1.8008,1.8008,1.8008,1.8008,1.8008,1.8008,1.8337,1.8977,1.7999,1.773,1.8206,1.7473,1.672,1.5988,1.6666,1.6404,1.541,1.541,1.5469,1.5537,1.5449,1.5469,1.5537,1.5449,1.541,1.541,1.541,1.541,1.541,0.0,0.0,0.0,0.0,0.0,0.0,0.0,0.0,0.0,0.0,0.0,0.0,0.0,0.0,0.0,0.0,0.0,0.0,0.0,0.0,0.5066,0.8139,1.255,1.6477,1.9972,2.3623,2.5369,2.512,2.283,2.144,2.0851,1.6004,1.2684,1.0657,1.0217,1.0099,1.043,1.1458,1.2907,1.461,1.5151,1.5333,1.5326,1.5662,1.5129,1.4351,1.4814,0.0,0.0,0.0,0.0,0.0,0.0,0.0,1.1191,1.0462,1.0413,1.0378,0.9144,0.8947,0.9075,0.9248,1.0484,1.204,1.3723,1.4667,1.5164,1.5061,1.5441,1.5879,1.6032,1.5698,1.6204,1.8515,1.8567,1.9196,2.1534,2.1709,2.1406,2.0967,2.0342,1.9863,1.9639,1.8838,1.8368,1.856,1.8212,1.8008,1.8008,1.7822,1.7705,1.7705,1.7705,1.7797,1.8025,1.7645,1.7417,1.7399,1.6918,1.6494,1.6115,1.6257,1.5968,1.541,1.541,1.5527,1.5703,1.5498,1.5537,1.5703,1.5498,1.541,1.541,1.541,1.541,1.541,0.0,0.0,0.0,0.0,0.0,0.0,0.0,0.0,0.0,0.0,0.0,0.0,0.0,0.0,0.0,0.0,0.0,0.0,0.0,0.0,0.0,1.0813,1.401,1.7521,2.1521,2.3518,2.4071,2.3132,1.9343,1.6889,1.5537,1.1416,0.8265,0.6081,0.6583,0.7511,0.8679,0.9367,1.1178,1.3629,1.3477,1.3423,1.3572,1.3872,1.3682,1.328,1.3821,1.4041,1.3919,1.2997,0.0,0.0,0.0,0.0,1.2102,1.2026,1.201,1.1798,1.0635,1.0423,1.0602,1.066,1.0782,1.1453,1.3813,1.4328,1.4561,1.554,1.5832,1.5832,1.5832,1.5731,1.6294,1.833,1.8593,1.9251,2.1395,2.1348,2.0957,2.0508,1.9766,1.9287,1.9287,1.8516,1.8154,1.8598,1.8232,1.8008,1.8008,1.7607,1.7422,1.749,1.7344,1.7194,1.7026,1.7115,1.6914,1.6357,1.6419,1.6309,1.5998,1.5576,1.541,1.541,1.541,1.5615,1.5918,1.5557,1.5625,1.5918,1.5557,1.541,1.541,1.541,1.541,1.541,0.0,0.0,0.0,0.0,0.0,0.0,0.0,0.0,0.0,0.0,0.8556,0.0,0.0,0.0,0.0,0.0,0.0,0.0,0.2362,0.0,0.0,1.224,1.6374,1.9771,2.2238,2.2563,2.1947,2.0346,1.5561,1.1617,0.8456,0.6684,0.5245,0.414,0.4381,0.5375,0.6936,0.7894,0.9474,1.1249,1.0791,1.116,1.1888,1.169,1.2336,1.3253,1.3581,1.3868,1.4122,1.4196,1.4215,0.0,0.0,0.0,1.4679,1.3479,1.336,1.3352,1.2032,1.1806,1.1974,1.2003,1.2788,1.3912,1.5262,1.5566,1.5629,1.573,1.5832,1.5832,1.5832,1.6183,1.6838,1.8056,1.868,1.9359,2.0575,2.0693,2.0488,2.0059,1.958,1.9287,1.9287,1.8516,1.8193,1.8562,1.8262,1.8008,1.8008,1.7607,1.7549,1.791,1.7207,1.7272,1.8321,1.6947,1.6588,1.721,1.6078,1.5557,1.5498,1.5439,1.541,1.541,1.541,1.5449,1.5498,1.5439,1.5449,1.5498,1.543,1.541,1.541,1.541,1.541,1.541,0.0,0.0,0.0,0.0,0.0,0.0,0.0,0.0,0.0,0.0,0.0,0.6144,0.0,0.0,0.0,0.4665,0.4185,0.424,0.5267,0.8228,1.1243,1.4203,1.7156,1.9511,2.1215,2.0232,1.8754,1.6876,1.2461,0.8708,0.5682,0.3825,0.2181,0.0857,0.1947,0.2865,0.3589,0.5121,0.6818,0.8408,0.8489,0.9098,0.9929,1.0198,1.1196,1.2431,1.2625,1.3323,1.4128,1.4422,1.4629,1.4816,1.5117,0.0,0.0,0.0,1.4848,1.4657,1.3392,1.2504,1.2185,1.2964,1.3556,1.431,1.556,1.5832,1.5832,1.5832,1.6386,1.685,1.685,1.6686,1.7201,1.8922,1.9053,1.9279,2.0081,2.0195,1.9951,1.9277,1.9033,1.8926,1.8926,1.8369,1.8184,1.8603,1.8252,1.791,1.7676,1.7246,1.6992,1.6924,1.6553,1.6503,1.6789,1.6366,1.6168,1.6262,1.5673,1.541,1.541,1.541,1.541,1.541,1.541,1.541,1.541,1.541,1.541,1.541,1.541,1.541,1.541,1.541,1.541,1.541,0.0,0.0,0.0,0.0,0.0,0.0,0.0,0.0,0.0,0.0,0.0,0.0,0.0,0.0,0.0,0.0,0.5241,0.6005,0.7894,1.0185,1.2687,1.5548,1.7189,1.8638,2.0034,1.774,1.5692,1.3797,0.9892,0.6664,0.4075,0.2175,0.0299,-0.1571,-0.0074,0.0817,0.1269,0.2214,0.3586,0.5189,0.5667,0.6381,0.7228,0.8381,0.966,1.085,1.1351,1.2278,1.3256,1.3947,1.4326,1.4656,1.5299,1.5605,0.0,0.0,0.0,1.6001,1.4727,1.3861,1.3482,1.3776,1.4166,1.4657,1.554,1.5832,1.5832,1.5832,1.685,1.7777,1.8141,1.7753,1.8054,1.9689,1.9634,1.9537,1.982,1.9912,1.96,1.8669,1.8562,1.8523,1.8486,1.8193,1.8135,1.8457,1.8184,1.7822,1.7402,1.6973,1.6572,1.624,1.6016,1.5791,1.5576,1.5791,1.5732,1.541,1.541,1.541,1.541,1.541,1.541,1.541,1.541,1.541,1.541,1.541,1.541,1.541,1.541,1.541,1.541,1.541,1.541,1.541,0.0,0.0,0.0,0.0,0.0,0.0,0.0,0.0,0.0,0.0,0.0,0.0,0.5318,0.5415,0.5294,0.5155,0.6024,0.7325,0.8983,1.1848,1.4093,1.5603,1.6732,0.0,1.9306,1.5618,1.3068,1.1685,0.7966,0.4989,0.2809,0.1799,0.0291,-0.1606,-0.153,-0.0308,0.1436,-0.0461,-0.0157,0.1597,0.1798,0.2427,0.341,0.5544,0.7235,0.851,0.9621,1.0264,1.09,1.2667,1.3296,1.358,1.5243,1.5625,1.5471,0.0,0.0,0.0,1.5927,1.6511,1.6828,1.4447,1.4848,1.573,1.5825,1.5832,1.5832,1.5832,1.685,1.8056,1.9222,1.9598,1.9858,1.9943,2.0292,2.041,1.998,1.9912,1.96,1.8669,1.8562,1.8486,1.8086,1.8018,1.8018,1.8037,1.8018,1.7822,1.7402,1.6973,1.6719,1.6699,1.5889,1.5635,1.6086,1.5644,1.543,1.541,1.541,1.541,1.541,1.541,1.541,1.541,1.541,1.541,1.541,1.541,1.541,1.541,1.541,1.541,1.541,1.541,1.541,1.541,0.0,0.0,0.0,0.0,0.0,0.0,0.0,0.0,0.0,0.0,0.0,0.0,0.0,0.4766,0.4734,0.5219,0.6685,0.8637,1.118,1.297,1.4786,1.6728,1.6707,1.6809,1.7044,1.3517,1.1099,0.9978,0.7237,0.5114,0.365,0.2628,0.1514,0.0224,-0.1081,-0.1558,-0.1619,-0.2252,-0.2312,-0.1727,-0.0868,-0.0397,0.0,0.2359,0.3995,0.5314,0.7101,0.8534,0.9906,1.222,1.3182,1.3576,1.51,1.5927,1.6569,1.75,1.8323,1.8764,1.8272,1.8464,1.8672,1.7717,1.7825,1.8211,1.8211,1.7584,1.7217,1.8033,1.8315,1.8864,2.0352,2.0297,2.0298,2.1089,2.0651,2.0,1.957,1.9277,1.8877,1.8301,1.8232,1.8174,1.8027,1.8008,1.8008,1.8008,1.7764,1.7422,1.6982,1.6543,1.6172,1.5898,1.5576,1.5488,1.5644,1.5488,1.541,1.541,1.541,1.541,1.541,1.541,1.541,1.541,1.541,1.541,1.541,1.541,1.541,1.541,1.541,1.541,1.541,1.541,1.541,1.541,0.0,0.0,0.0,0.0,0.0,0.0,0.0,0.0,0.0,0.584,0.0,0.0,0.0,0.0,0.4056,0.5286,0.6972,0.9075,1.1744,1.2794,1.4105,1.5957,1.5512,1.5064,1.4883,1.1794,0.9816,0.9103,0.6877,0.5272,0.4156,0.3195,0.2224,0.118,-0.0762,-0.2021,-0.2817,-0.3779,-0.4341,-0.4451,-0.3217,-0.3094,-0.335,-0.0651,0.1078,0.2326,0.4191,0.6028,0.8127,1.0884,1.207,1.2865,1.5264,1.6723,1.785,1.8979,1.9647,1.9962,2.009,2.0124,2.0034,1.9579,1.9497,1.9497,1.9497,1.8864,1.8464,1.915,1.9477,1.9927,2.0721,2.0738,2.0913,2.1792,2.0781,1.9766,1.9346,1.8916,1.8486,1.8057,1.8008,1.8008,1.8008,1.8008,1.8008,1.8008,1.7754,1.7344,1.6758,1.6445,1.6016,1.543,1.541,1.541,1.541,1.541,1.541,1.541,1.541,1.541,1.541,1.541,1.541,1.541,1.541,1.541,1.541,1.541,1.541,1.541,1.541,1.541,1.541,1.541,1.541,1.541,0.0,0.0,0.0,0.0,0.0,0.0,0.0,0.0,0.6125,0.4995,0.0,0.0,0.0,0.0,0.0,0.514,0.6876,0.8553,1.0368,1.121,1.2166,1.333,1.2925,1.2794,1.3105,1.0473,0.9114,0.9103,0.6881,0.5303,0.4194,0.3369,0.2363,0.1263,-0.0664,-0.1607,-0.1804,-0.5042,-0.6458,-0.6301,-0.5462,-0.5832,-0.6537,-0.3437,-0.157,-0.0356,0.0799,0.2845,0.5458,0.8325,0.9795,1.1348,1.5838,1.7948,1.8949,1.9956,2.0476,2.0779,0.0,0.0,0.0,1.9835,1.9579,1.9588,1.9588,1.9579,1.9389,1.9034,2.0199,2.1031,2.0189,2.107,2.1855,2.1865,2.0771,1.9775,1.9365,1.8936,1.8496,1.8076,1.8027,1.8018,1.8008,1.8008,1.8008,1.8008,1.7998,1.7627,1.6777,1.6709,1.6299,1.5439,1.541,1.541,1.541,1.541,1.541,1.541,1.541,1.541,1.541,1.541,1.541,1.541,1.541,1.541,1.541,1.541,1.541,1.541,1.541,1.541,1.541,1.541,1.541,1.541,0.0,0.0,0.0,0.0,0.0,0.2594,0.3456,0.3008,0.2895,0.0,0.0,0.0,0.2649,0.2674,0.3435,0.513,0.5712,0.7064,0.9521,1.0391,1.129,1.2247,1.2572,1.2758,1.2779,1.1213,0.9928,0.9103,0.7733,0.6458,0.5309,0.4325,0.3373,0.2364,0.0294,-0.0978,-0.1724,-0.4169,-0.5767,-0.6692,-0.6273,-0.6492,-0.6867,-0.5032,-0.3623,-0.2486,-0.0516,0.1316,0.3375,0.6729,0.8869,1.0987,1.6286,1.8216,1.8835,2.042,2.1196,2.1558,2.1663,0.0,0.0,0.0,0.0,0.0,2.2129,2.14,2.0998,2.1803,2.1039,2.0643,2.1608,2.1308,2.1035,2.1367,2.0566,1.9873,1.9756,1.9375,1.8945,1.8516,1.8467,1.835,1.8037,1.8008,1.8008,1.8008,1.7734,1.7314,1.6758,1.6123,1.5664,1.542,1.541,1.541,1.541,1.541,1.541,1.541,1.541,1.541,1.541,1.541,1.541,1.541,1.541,1.541,1.541,1.541,1.541,1.541,1.541,1.541,1.541,1.541,1.541,1.541,0.0,0.0,0.0,0.0,0.0,0.0149,0.067,0.0583,0.0719,0.0,0.0,0.0,0.0865,0.1603,0.2734,0.414,0.4645,0.5884,0.8313,0.8813,0.971,1.1188,1.1538,1.1998,1.2487,1.0967,0.9797,0.9173,0.7607,0.6604,0.5989,0.4887,0.4125,0.3595,0.1507,0.0,-0.1032,-0.2724,-0.4663,-0.6725,-0.6742,-0.6813,-0.6936,-0.5785,-0.4364,-0.2739,-0.1412,0.027,0.2418,0.5468,0.8939,1.2592,1.5397,1.736,1.8824,2.0246,2.09,2.1256,2.1792,2.2197,2.2471,2.2295,0.0,0.0,2.292,2.2465,2.2171,2.2737,2.1855,2.1222,2.1826,2.1357,2.0869,2.0947,2.0527,2.0117,1.9941,1.9551,1.9189,1.8936,1.875,1.8545,1.8291,1.8115,1.8008,1.8008,1.7783,1.7373,1.6704,1.5889,1.541,1.541,1.541,1.541,1.541,1.541,1.541,1.541,1.541,1.541,1.541,1.541,1.541,1.541,1.541,1.541,1.541,1.541,1.541,1.541,1.541,1.541,1.541,1.541,1.541,1.541,0.0,0.0,0.0234,0.0,-0.1013,-0.1855,-0.213,-0.1356,-0.0976,0.0,-0.1955,-0.1877,-0.1811,-0.0144,0.1481,0.2607,0.3542,0.4935,0.7023,0.7233,0.8151,1.0174,1.0335,1.0882,1.187,1.0064,0.9129,0.918,0.7211,0.6242,0.6281,0.5357,0.482,0.4611,0.2738,0.1268,0.0081,-0.0997,-0.3147,-0.5953,-0.6509,-0.6587,-0.6432,-0.5652,-0.3996,-0.1981,-0.1946,-0.0372,0.216,0.4676,0.9544,1.4392,1.3958,1.5885,1.849,1.9469,1.9853,2.0161,2.1297,2.1997,2.2344,2.1914,2.2451,0.0,2.2758,2.2926,2.3063,2.2899,2.2676,2.2306,2.1587,2.134,2.1123,2.0771,2.0713,2.0547,2.0059,1.9668,1.9414,1.9365,1.9014,1.876,1.8711,1.8369,1.8135,1.8086,1.7988,1.7607,1.6846,1.5967,1.5488,1.5488,1.5439,1.541,1.541,1.541,1.541,1.541,1.541,1.541,1.541,1.541,1.541,1.541,1.541,1.541,1.541,1.541,1.541,1.541,1.541,1.541,1.541,1.541,1.541,1.541,0.0,0.3146,0.1958,0.0159,-0.1653,-0.3154,-0.432,-0.4124,-0.3663,-0.3102,-0.2934,-0.2864,-0.2792,-0.173,-0.0352,0.144,0.2544,0.4333,0.7269,0.7941,0.8578,0.9078,0.9963,1.013,0.9515,0.9473,0.9043,0.823,0.7948,0.7316,0.6427,0.6126,0.5526,0.4686,0.4297,0.3089,0.122,0.0169,-0.1199,-0.2821,-0.3725,-0.4174,-0.4199,-0.406,-0.3064,-0.1811,-0.1804,-0.0271,0.235,0.5786,0.846,1.0875,1.3595,1.4826,1.5619,1.7649,1.8689,1.9272,1.9522,2.0737,2.1904,2.1475,2.2002,0.0,2.3659,2.3567,2.3596,2.4778,2.3758,2.267,2.2845,2.199,2.1318,2.1582,2.1631,2.1348,2.0547,2.0371,2.0185,1.9834,1.9717,1.9531,1.9189,1.9092,1.8887,1.8545,1.7891,1.7432,1.7266,1.6416,1.5937,1.5937,1.5596,1.541,1.541,1.541,1.541,1.541,1.541,1.541,1.541,1.541,1.541,1.541,1.541,1.541,1.541,1.541,1.541,1.541,1.541,1.541,1.541,1.541,1.541,1.541,0.3663,0.2551,0.1176,0.008,-0.2213,-0.4128,-0.4904,-0.5317,-0.5614,-0.5794,-0.5851,-0.5811,-0.5668,-0.4285,-0.2523,-0.053,0.0745,0.277,0.5983,0.6535,0.7222,0.8367,0.8898,0.9155,0.9045,0.8826,0.8514,0.7965,0.7593,0.7191,0.6698,0.6549,0.5907,0.4854,0.4258,0.313,0.149,0.0433,-0.0355,-0.1074,-0.2827,-0.3186,-0.2677,-0.2116,-0.1134,0.0,0.0433,0.1817,0.364,0.5499,0.788,1.0328,1.2135,1.3635,1.5007,1.6483,1.7664,1.8473,1.8851,2.0235,2.1455,2.1006,2.1929,0.0,0.0,2.3732,2.4328,2.5369,2.4469,2.3567,2.4032,2.336,2.2825,2.3056,2.3098,2.3014,2.2928,2.1908,2.1143,2.0928,2.0508,2.0156,1.9941,1.9541,1.9102,1.8672,1.8047,1.7607,1.7393,1.6758,1.6289,1.6135,1.585,1.5635,1.541,1.541,1.541,1.541,1.541,1.541,1.541,1.541,1.541,1.541,1.541,1.541,1.541,1.541,1.541,1.541,1.541,1.541,1.541,1.541,1.541,1.541,0.3428,0.1884,0.0554,0.0325,-0.2166,-0.4343,-0.4888,-0.5794,-0.7044,-0.8833,-0.9171,-0.9242,-0.9223,-0.7537,-0.5541,-0.3502,-0.1879,0.0469,0.3934,0.4596,0.5743,0.76,0.7903,0.8251,0.8755,0.8124,0.7757,0.7757,0.712,0.6834,0.6926,0.6544,0.5895,0.4969,0.3863,0.267,0.1542,0.0709,0.0182,-0.0185,-0.1892,-0.1949,-0.1052,-0.0174,0.0856,0.2107,0.3266,0.4347,0.5282,0.5707,0.8044,1.0716,1.1021,1.2679,1.4663,1.5798,1.6852,1.7788,1.878,2.0076,2.1123,2.0674,2.1906,2.3181,0.0,0.0,0.0,2.58,2.4966,2.4276,2.5,2.4523,2.406,2.4377,2.4467,2.4756,2.525,2.3816,2.2621,2.2215,2.1253,2.0635,2.0801,2.0117,1.9443,1.8926,1.8564,1.8154,1.7656,1.7217,1.6738,1.6211,1.6164,1.585,1.542,1.541,1.541,1.541,1.541,1.541,1.541,1.541,1.541,1.541,1.541,1.541,1.54,1.5322,1.5342,1.541,1.541,1.541,1.541,1.541,1.541,1.541,0.4793,0.3626,0.2446,0.1611,-0.0421,-0.27,-0.5022,-0.6048,-0.774,-1.0993,-1.1397,-1.1769,-1.2726,-1.1783,-1.028,-0.8115,-0.5816,-0.283,0.1258,0.3661,0.5325,0.6391,0.7549,0.7728,0.6846,0.6975,0.7045,0.7045,0.7017,0.7034,0.6843,0.5781,0.5167,0.4908,0.389,0.2739,0.1643,0.1621,0.0997,0.0092,0.0902,0.1264,0.1369,0.1407,0.2161,0.3439,0.5366,0.6147,0.6565,0.8647,0.9712,1.0521,1.1929,1.2312,1.2745,1.534,1.6507,1.7279,1.8629,2.0076,2.1123,2.0674,2.1673,2.3027,2.3885,0.0,2.5397,2.6818,0.0,2.3982,2.53,0.0,0.0,2.4515,2.5104,2.5485,2.5541,2.578,2.5338,2.3517,2.1698,2.0879,2.166,2.1299,2.0664,1.9834,1.9727,1.9346,1.8535,1.8096,1.749,1.668,1.6269,1.585,1.542,1.541,1.541,1.541,1.541,1.541,1.541,1.541,1.541,1.541,1.541,1.541,1.5381,1.501,1.5078,1.541,1.541,1.541,1.541,1.541,1.541,1.541,0.5755,0.433,0.2941,0.2528,-0.0336,-0.2975,-0.4168,-0.7733,-1.0942,-1.2804,-1.4597,-1.5869,-1.616,-1.53,-1.3978,-1.2215,-0.9827,-0.6781,-0.2769,-0.025,0.1769,0.3444,0.5333,0.6105,0.5549,0.643,0.6929,0.6929,0.7071,0.7109,0.6964,0.6518,0.5545,0.4138,0.3701,0.2496,0.0636,0.0729,0.0911,0.109,0.1639,0.2527,0.3721,0.3524,0.4504,0.6096,0.6907,0.7588,0.823,0.9305,1.0305,1.1182,1.1782,1.2533,1.3387,1.4379,1.5807,1.7296,1.7857,1.9228,2.0488,2.0547,2.1257,2.2146,2.2789,2.3586,2.4403,2.5354,0.0,0.0,0.0,0.0,0.0,0.0,2.694,2.737,2.7071,2.6741,2.5973,2.4437,2.3886,2.3351,2.251,2.2482,2.1807,1.999,2.0146,1.9922,1.9062,1.8603,1.8096,1.749,1.6807,1.624,1.5791,1.5537,1.541,1.541,1.541,1.541,1.541,1.541,1.541,1.541,1.541,1.541,1.5381,1.4961,1.4657,1.4439,1.4195,1.4477,1.5049,1.5049,1.4883,1.4707,0.5396,0.4199,0.289,0.2307,-0.0687,-0.3564,-0.546,-1.0195,-1.4004,-1.5509,-1.7636,-1.9084,-1.916,-1.8573,-1.7546,-1.6185,-1.38,-1.0984,-0.7442,-0.4415,-0.1842,0.0087,0.2711,0.4116,0.4004,0.5349,0.6165,0.6521,0.6618,0.6844,0.7204,0.6844,0.5779,0.4083,0.343,0.2353,0.1004,0.0645,0.119,0.2346,0.2643,0.4096,0.5975,0.5764,0.6621,0.7859,0.8461,0.9064,0.9776,1.0236,1.1149,1.1952,1.186,1.2705,1.3756,1.3776,1.528,1.7009,1.7456,1.8734,2.0019,2.0459,2.1065,2.1628,2.1954,2.2776,2.3615,2.3974,2.4372,0.0,0.0,0.0,2.722,2.7118,0.0,2.8335,2.7934,2.7508,2.6783,2.5585,2.5813,2.5303,2.3718,2.4014,2.3303,2.0877,2.1121,2.0864,1.9512,1.916,1.8682,1.8037,1.7402,1.6758,1.6135,1.5752,1.5527,1.541,1.541,1.541,1.541,1.541,1.541,1.541,1.541,1.5226,1.4965,1.4719,1.4091,1.3316,1.325,1.3603,1.417,1.4275,1.4318,1.4355,0.3162,0.3178,0.2388,0.0272,-0.1194,-0.4043,-1.0143,-1.3314,-1.6228,-1.9534,-2.0093,-2.055,-2.169,-2.1773,-2.1237,-2.0159,-1.7725,-1.5218,-1.2757,-0.8018,-0.4832,-0.3562,0.0,0.1813,0.1688,0.2997,0.432,0.5425,0.5613,0.6259,0.7363,0.6167,0.5578,0.5388,0.2973,0.2422,0.3407,0.2232,0.2397,0.3673,0.4775,0.6433,0.8069,0.7965,0.7865,0.8084,1.0034,1.0708,1.0974,1.2259,1.2752,1.2759,1.2759,1.2772,1.3008,1.405,1.5083,1.6195,1.8011,1.9146,2.0019,2.0459,2.1288,2.2006,2.2027,2.2776,2.3526,2.3537,2.3537,2.3818,2.4874,2.5052,2.5419,2.6339,2.6967,0.0,0.0,2.8222,2.8435,2.7335,2.6806,2.615,2.5239,2.5867,2.5407,2.296,2.3198,2.2391,2.0036,1.9883,1.9307,1.8047,1.7978,1.7353,1.6135,1.6115,1.583,1.541,1.541,1.541,1.541,1.541,1.541,1.541,1.541,1.4821,1.3855,1.4055,1.3322,1.2244,1.3152,1.3114,1.2641,1.3023,1.3847,1.4766,-0.026,-0.0528,-0.0535,-0.0359,-0.3266,-0.751,-1.2939,-1.5404,-1.7536,-2.0318,-2.154,-2.215,-2.224,-2.1674,-2.0828,-1.986,-1.788,-1.5791,-1.3717,-1.0148,-0.752,-0.6016,-0.2653,-0.0373,0.0556,0.1678,0.2903,0.4229,0.5165,0.5821,0.6194,0.6581,0.6328,0.5583,0.4582,0.3926,0.3534,0.3141,0.3655,0.4858,0.5907,0.7172,0.8463,0.8036,0.8669,0.9868,1.0375,1.0973,1.1558,1.1832,1.2004,1.2204,1.1937,1.2138,1.2526,1.2891,1.4339,1.5946,1.6741,1.7989,1.9238,1.9961,2.0212,2.0366,2.0948,2.1308,2.1603,2.1603,2.2638,2.3588,2.3963,2.5421,2.6516,2.6515,2.7231,2.7341,0.0,2.6384,2.7371,2.879,2.8171,2.7345,2.6745,2.6062,2.4847,2.3037,2.207,2.1261,2.0448,2.0078,1.959,1.8877,1.8311,1.7529,1.6514,1.6211,1.584,1.541,1.541,1.541,1.541,1.541,1.541,1.541,1.541,1.4811,1.3827,1.4035,1.3138,1.1755,1.2552,1.2715,1.2604,1.3434,1.383,1.4014,-0.2718,-0.3673,-0.4154,-0.3211,-0.6771,-1.1181,-1.5361,-1.7206,-1.8905,-2.1369,-2.2514,-2.2795,-2.2017,-2.1339,-2.0454,-1.938,-1.7752,-1.6307,-1.5099,-1.1871,-0.9631,-0.8675,-0.4833,-0.2261,-0.134,0.019,0.1901,0.3644,0.4602,0.546,0.6415,0.714,0.7031,0.6253,0.5684,0.5162,0.4827,0.4406,0.4913,0.6048,0.6479,0.7416,0.8455,0.7969,0.9064,1.0748,1.0495,1.0997,1.1683,1.149,1.155,1.1657,1.1363,1.1603,1.1971,1.1864,1.3233,1.4848,1.5121,1.6309,1.7589,1.8192,1.8341,1.8499,1.9507,1.9755,1.9937,2.0255,2.1997,2.3267,2.2633,2.5016,2.6602,2.52,2.6135,2.6589,0.0,2.6082,2.7262,2.8988,2.87,2.8246,2.7777,2.6819,2.5318,2.326,2.2172,2.134,2.0654,2.0303,1.9883,1.9307,1.875,1.7978,1.6973,1.6523,1.6074,1.5644,1.5488,1.541,1.541,1.541,1.541,1.541,1.541,1.4553,1.3224,1.386,1.2813,1.1027,1.2339,1.2623,1.2395,1.3377,1.3679,1.3679,-0.4354,-0.6432,-0.8168,-0.8229,-1.138,-1.4702,-1.7165,-1.8609,-2.0314,-2.2677,-2.3047,-2.2417,-2.0994,-2.0862,-2.0172,-1.8562,-1.7321,-1.6623,-1.6623,-1.3075,-1.102,-1.1054,-0.6379,-0.3657,-0.3603,-0.1249,0.125,0.3813,0.4013,0.538,0.7721,0.7668,0.76,0.75,0.6135,0.6102,0.7061,0.5935,0.6096,0.7115,0.6827,0.7281,0.8221,0.7935,0.9064,1.0736,1.0478,1.079,1.1403,1.1383,1.1383,1.1336,1.1056,1.1162,1.1329,1.1069,1.1916,1.2961,1.3347,1.4361,1.5396,1.5553,1.5934,1.6606,1.7805,1.8263,1.869,1.9647,2.1734,2.2805,2.1076,2.3781,2.5343,2.2536,2.3629,2.5016,2.5707,2.698,2.7961,2.8097,2.8449,2.8546,2.8044,2.7965,2.6645,2.3684,2.336,2.2598,2.0713,2.0596,2.0215,1.9375,1.9307,1.8691,1.7432,1.6982,1.6523,1.6115,1.5644,1.543,1.541,1.5391,1.5381,1.5381,1.5361,1.4118,1.218,1.3502,1.2439,1.0125,1.2558,1.2849,1.2045,1.2859,1.3358,1.3832,-0.9695,-1.1148,-1.2337,-1.2395,-1.3239,-1.4721,-1.7267,-1.794,-1.9047,-2.148,-2.1756,-2.1392,-2.0516,-1.9668,-1.8462,-1.6583,-1.476,-1.3649,-1.3465,-1.1065,-0.9222,-0.8182,-0.621,-0.3789,-0.1026,-0.0287,0.1263,0.3813,0.4956,0.5787,0.6479,0.7238,0.76,0.7594,0.7066,0.7011,0.7061,0.694,0.7008,0.7126,0.6943,0.7539,0.8493,0.8121,0.9018,1.0466,1.0137,1.0511,1.1069,1.0855,1.0782,1.0768,1.0695,1.0722,1.0808,1.0955,1.176,1.2613,1.2946,1.3826,1.4689,1.5027,1.5169,1.5666,1.7198,1.7633,1.8018,1.9228,2.0524,2.1185,2.0239,2.1396,2.2186,2.0954,2.122,2.2435,2.4992,2.5001,2.5524,2.7851,2.6966,2.6384,2.6912,2.5704,2.4332,2.3144,2.1992,2.1243,2.1055,2.1064,2.081,2.0254,1.9619,1.8828,1.7861,1.7432,1.6826,1.6125,1.5947,1.5723,1.54,1.5088,1.4941,1.4922,1.46,1.3377,1.1775,1.3124,1.2629,1.1234,1.2875,1.3714,1.3988,1.3892,1.4323,1.4965,-1.1981,-1.3252,-1.4472,-1.4855,-1.4933,-1.5562,-1.7426,-1.7692,-1.8411,-2.0305,-2.0427,-1.992,-1.8801,-1.7948,-1.653,-1.4289,-1.2984,-1.2058,-1.1562,-0.9865,-0.8349,-0.7344,-0.5574,-0.3206,-0.0272,0.0464,0.199,0.4628,0.5506,0.6251,0.6842,0.7382,0.7658,0.7594,0.7441,0.736,0.7343,0.7363,0.7282,0.7129,0.6987,0.7307,0.0,0.7442,0.8214,0.9499,0.9292,0.992,1.0782,1.0678,1.0624,1.0624,1.0624,1.0624,1.0658,1.0755,1.1189,1.1668,1.1848,1.2379,1.2879,1.2983,1.3215,1.3873,1.567,1.6114,1.665,1.818,1.9194,1.9414,1.7729,1.8768,1.9574,1.884,1.9212,2.0376,2.2325,2.3212,2.4162,2.5637,2.5252,2.4788,2.4589,2.3616,2.2853,2.2469,2.1491,2.0967,2.1221,2.123,2.0937,2.0303,2.0,1.9346,1.8291,1.7871,1.7217,1.6357,1.5967,1.5654,1.54,1.5166,1.4961,1.4775,1.4521,1.3465,1.2009,1.3077,1.2749,1.1748,1.2811,1.3867,1.4727,1.4297,1.4446,1.4932,-1.2877,-1.4093,-1.5294,-1.5967,-1.6202,-1.647,-1.7131,-1.734,-1.7848,-1.9066,-1.897,-1.8274,-1.6908,-1.6231,-1.4896,-1.2312,-1.1699,-1.1151,-1.0393,-0.8937,-0.7824,-0.7191,-0.4758,-0.2462,-0.0353,0.1065,0.3086,0.5665,0.5875,0.6631,0.7841,0.7821,0.7746,0.7621,0.7489,0.7492,0.759,0.7438,0.7282,0.7129,0.7007,0.6854,0.6685,0.6711,0.7419,0.8403,0.8544,0.9484,1.0624,1.0624,1.0624,1.0624,1.0624,1.0624,1.0624,1.0624,1.0624,1.0624,1.0624,1.0742,1.0875,1.0685,1.0942,1.1783,1.3737,1.4322,1.49,1.6797,1.7581,1.7166,1.4594,1.5652,1.6791,1.6146,1.7122,1.8203,1.8828,2.1229,2.2855,2.2506,2.3036,0.0,2.1886,2.209,2.2102,2.182,2.1553,2.1377,2.1318,2.1318,2.0947,2.0117,2.0342,1.9941,1.8818,1.833,1.7666,1.6807,1.5977,1.5488,1.5322,1.5273,1.5019,1.4619,1.4561,1.3727,1.2477,1.3164,1.2833,1.203,1.2724,1.3672,1.4648,1.4209,1.4137,1.4378,-1.5857,-1.616,-1.6072,-1.5105,-1.5722,-1.5947,-1.4894,-1.5575,-1.6476,-1.7462,-1.7552,-1.7196,-1.6503,-1.6088,-1.4896,-1.2312,-1.0803,-0.9697,-0.8846,-0.743,-0.6298,-0.5404,-0.4789,-0.3046,0.0,0.1288,0.3186,0.5734,0.6801,0.7468,0.7997,0.7872,0.7797,0.7773,0.7746,0.7685,0.759,0.7438,0.7282,0.7139,0.7112,0.6943,0.6778,0.7562,0.8137,0.8544,0.9313,1.0031,1.0624,1.0624,1.0624,1.0624,1.0624,1.0624,1.0624,1.0624,1.0624,1.0624,1.0624,1.0658,1.0692,1.0638,1.0698,1.1276,1.3252,1.3244,1.3363,1.5431,1.4875,1.37,1.2647,1.1747,1.157,1.294,1.3669,1.4743,1.6659,1.8062,1.9195,1.9951,1.9307,1.9314,2.0525,2.1814,2.223,2.1418,2.1934,2.2139,2.1787,2.1777,2.1533,2.1016,2.0371,1.9922,1.9687,1.8916,1.8105,1.7266,1.6748,1.5937,1.4883,1.4521,1.4131,1.3711,1.3369,1.2748,1.1981,1.2723,1.289,1.2754,1.3212,1.375,1.4199,1.3769,1.4053,1.4762,-1.5763,-1.5378,-1.4648,-1.3771,-1.4038,-1.4073,-1.3122,-1.3363,-1.4296,-1.6021,-1.614,-1.5864,-1.5404,-1.4351,-1.3027,-1.1275,-0.9632,-0.8338,-0.741,-0.7269,-0.6813,-0.5813,-0.5825,-0.4608,-0.1907,0.0,0.1848,0.3762,0.4975,0.6067,0.6831,0.6836,0.7195,0.7811,0.7811,0.7689,0.7478,0.7404,0.7282,0.7139,0.7139,0.6963,0.6781,0.7839,0.8245,0.8544,0.9528,1.0232,1.0624,1.0624,1.0624,1.0624,1.0624,1.0624,1.0624,1.0624,1.0624,1.0624,1.0624,1.0624,1.0624,1.0624,1.0624,1.0968,1.2351,1.239,1.2365,1.3304,1.269,1.1457,0.9828,0.9015,0.8798,0.9647,1.0845,1.2136,1.3209,1.4356,1.5429,1.6366,1.6832,1.7578,1.9099,2.0661,2.1409,2.0968,2.1484,2.166,2.123,2.1641,2.1582,2.0908,2.0693,2.0273,1.96,1.918,1.833,1.7041,1.6602,1.582,1.4775,1.457,1.4121,1.3496,1.3291,1.2868,1.2412,1.2957,1.3467,1.3867,1.3838,1.4092,1.4424,1.3984,1.3955,1.418,-1.4624,-1.3816,-1.3067,-1.2353,-1.2352,-1.2294,-1.1614,-1.1561,-1.2344,-1.4272,-1.4307,-1.4027,-1.3741,-1.226,-1.095,-0.9943,-0.8602,-0.7549,-0.6816,-0.772,-0.8016,-0.7354,-0.7489,-0.663,-0.4463,-0.2279,-0.0436,0.1093,0.2609,0.3908,0.5072,0.5374,0.6265,0.7417,0.7711,0.7648,0.737,0.737,0.7282,0.7139,0.7139,0.6963,0.6781,0.7839,0.8245,0.8544,0.9528,1.0232,1.0624,1.0624,1.0624,1.0624,1.0624,1.0624,1.0624,1.0624,1.0624,1.0624,1.0624,1.0577,1.0461,1.0461,1.0461,1.0705,1.1483,1.1596,1.1578,1.1712,1.0918,0.9592,0.759,0.7037,0.6991,0.7212,0.8654,0.978,1.003,1.1031,1.2064,1.2949,1.4556,1.6021,1.7072,1.8937,1.9956,1.9611,2.0574,2.1123,2.0859,2.1416,2.1426,2.0732,2.1045,2.0693,1.957,1.9375,1.8477,1.6865,1.6416,1.5703,1.4785,1.4687,1.4228,1.3506,1.3408,1.3242,1.3037,1.3369,1.3955,1.4609,1.4214,1.4404,1.4727,1.4297,1.3984,1.3799,-1.3488,-1.3146,-1.256,-1.1088,-1.1725,-1.1929,-1.0422,-1.1087,-1.1728,-1.1707,-1.1568,-1.1331,-1.1013,-1.0471,-0.9697,-0.8901,-0.832,-0.8011,-0.8175,-0.8286,-0.886,-0.9837,-0.9857,-0.8873,-0.6647,-0.5383,-0.3643,-0.1247,0.091,0.2156,0.2528,0.3677,0.487,0.6052,0.7224,0.7648,0.737,0.737,0.7282,0.7139,0.7139,0.6963,0.6781,0.7839,0.8245,0.8544,0.9528,1.0232,1.0624,1.0624,1.0624,1.0624,1.0624,1.0624,1.0624,1.0624,1.0624,1.0624,1.0624,1.0367,1.016,1.016,1.016,1.0329,1.1144,1.102,1.0926,1.164,0.9799,0.7805,0.7098,0.5925,0.5574,0.6904,0.715,0.7588,0.8444,0.9047,0.9774,1.0641,1.2136,1.3358,1.4214,1.6824,1.7881,1.6334,1.9357,2.1387,2.1738,2.1465,2.126,2.1172,2.1211,2.0986,2.0449,1.9678,1.8623,1.7314,1.6875,1.6006,1.4775,1.4375,1.3945,1.3486,1.3105,1.3135,1.3447,1.3486,1.3779,1.4136,1.4097,1.4404,1.4727,1.4297,1.4365,1.4561,-1.1703,-1.0963,-1.008,-0.94,-0.9619,-0.9682,-0.8811,-0.9009,-0.921,-0.9029,-1.0196,-1.0947,-1.0636,-0.9742,-0.902,-0.8768,-0.7797,-0.7282,-0.7345,-0.8101,-0.9072,-1.0311,-0.9779,-0.9333,-0.9146,-0.6652,-0.4835,-0.3902,-0.1483,0.0095,0.1071,0.2262,0.391,0.5849,0.7014,0.7482,0.7366,0.7272,0.7146,0.7014,0.7014,0.6831,0.6722,0.8395,0.8823,0.8862,1.0287,1.0821,1.0795,1.0678,1.0624,1.0624,1.0624,1.0624,1.0624,1.0624,1.0624,1.0584,1.0341,1.0207,1.0114,1.0114,1.0114,1.0221,1.0759,1.0335,0.9907,1.0212,0.8579,0.6967,0.6573,0.5834,0.5411,0.5597,0.5928,0.6244,0.6543,0.6843,0.7473,0.8649,1.0125,1.1807,1.3672,1.5648,1.6949,1.7255,1.9297,2.0017,1.9035,1.9318,1.9477,1.9393,1.9697,1.9655,1.9081,1.9199,1.8516,1.6992,1.6816,1.6045,1.4766,1.4336,1.3769,1.3125,1.2959,1.3262,1.3887,1.3887,1.4287,1.4902,1.4902,1.501,1.5107,1.4678,1.4639,1.4697,-1.0067,-0.9135,-0.8374,-0.8228,-0.8167,-0.8048,-0.7787,-0.7628,-0.7475,-0.7322,-0.8812,-0.9818,-0.9589,-0.8717,-0.8207,-0.8259,-0.7355,-0.6951,-0.733,-0.8195,-0.928,-1.0373,-0.9756,-0.9579,-1.0096,-0.7647,-0.6109,-0.5388,-0.3356,-0.1707,-0.0384,0.1643,0.3631,0.5681,0.6797,0.7255,0.7166,0.7058,0.6953,0.6861,0.6861,0.6705,0.6708,0.8751,0.918,0.9057,1.0748,1.1236,1.0949,1.0719,1.0624,1.0624,1.0624,1.0624,1.0624,1.0624,1.0744,1.0857,1.0255,1.0227,1.0279,1.0047,0.98,0.9691,0.9974,0.966,0.9274,0.9274,0.8099,0.6854,0.628,0.5739,0.5254,0.4826,0.5152,0.5514,0.5825,0.592,0.6579,0.8169,0.9679,1.1292,1.2952,1.4768,1.6013,1.6505,1.7794,1.822,1.7434,1.7902,1.8173,1.8173,1.8516,1.8567,1.813,1.8583,1.8139,1.6665,1.6665,1.6113,1.4951,1.4521,1.3936,1.3252,1.3252,1.3662,1.4326,1.4326,1.4756,1.541,1.541,1.541,1.5381,1.5078,1.4971,1.4893,-0.8603,-0.8272,-0.8225,-0.8069,-0.7916,-0.777,-0.7624,-0.7472,-0.7319,-0.7163,-0.7143,-0.7143,-0.7139,-0.7014,-0.6983,-0.7126,-0.7007,-0.7501,-0.8786,-0.8886,-0.9401,-1.0519,-1.0611,-1.0096,-0.8978,-0.889,-0.7742,-0.5361,-0.4195,-0.295,-0.1664,0.2069,0.4276,0.5181,0.6517,0.6983,0.6709,0.6705,0.6705,0.6705,0.6705,0.661,0.6708,0.8751,0.918,0.9057,1.0748,1.1236,1.0949,1.0719,1.0624,1.0624,1.0624,1.0624,1.0624,1.0624,1.117,1.152,1.0431,1.0477,1.0686,0.9911,0.9078,0.8486,0.8743,0.9074,0.9274,0.9274,0.8422,0.7368,0.6375,0.5517,0.4925,0.4918,0.504,0.5496,0.6683,0.6869,0.7614,0.9627,1.1228,1.2004,1.147,1.4063,1.482,1.2553,1.4214,1.616,1.7921,1.7887,1.7895,1.7979,1.8046,1.8104,1.8294,1.7899,1.7346,1.6665,1.6665,1.6269,1.5391,1.4971,1.4531,1.4068,1.4068,1.4365,1.4775,1.4775,1.5029,1.541,1.541,1.541,1.541,1.54,1.54,1.5283,-0.822,-0.7403,-0.6679,-0.6639,-0.5836,-0.5144,-0.5043,-0.4944,-0.5208,-0.5819,-0.5983,-0.6248,-0.7051,-0.7099,-0.7092,-0.7136,-0.7099,-0.7179,-0.7661,-0.7665,-0.8189,-0.9405,-0.8619,-0.8448,-0.889,-0.7302,-0.611,-0.5418,-0.3353,-0.1291,0.0738,0.2654,0.4131,0.515,0.6282,0.679,0.6702,0.6702,0.6641,0.6546,0.6546,0.6458,0.656,0.8635,0.9306,0.9357,1.0893,1.1369,1.1209,1.0728,1.0624,1.0624,1.0624,1.0624,1.0624,1.0624,1.0807,1.0857,1.0255,1.022,1.0265,1.004,0.9294,0.8743,0.9074,0.8751,0.842,0.842,0.7177,0.5913,0.5494,0.4356,0.3516,0.3787,0.4464,0.5266,0.6018,0.6836,0.7678,0.8725,0.9844,1.0818,1.1618,1.2697,1.3518,1.371,1.4377,1.4895,1.5295,1.5497,1.5626,1.5936,1.605,1.6461,1.7094,1.7248,1.7287,1.7168,1.6875,1.6123,1.4971,1.4541,1.4268,1.4058,1.3828,1.4111,1.4785,1.4785,1.5029,1.541,1.541,1.541,1.541,1.541,1.541,1.5371,-0.7235,-0.6126,-0.5211,-0.5277,-0.4532,-0.3876,-0.377,-0.3714,-0.393,-0.4654,-0.4732,-0.4999,-0.5708,-0.5797,-0.5977,-0.6428,-0.6428,-0.6248,-0.5797,-0.5797,-0.6148,-0.6848,-0.6148,-0.6148,-0.6936,-0.5437,-0.4524,-0.4027,-0.1696,0.0451,0.2434,0.3441,0.457,0.5647,0.6321,0.6583,0.6536,0.6536,0.6481,0.6393,0.6393,0.6339,0.649,0.8542,0.9296,0.9461,1.0924,1.1423,1.1336,1.0755,1.0624,1.0624,1.0624,1.0624,1.0624,1.0624,1.08,1.092,1.0255,1.0349,1.0463,1.0174,0.9175,0.8307,0.8297,0.7897,0.7437,0.7037,0.6113,0.5081,0.4238,0.3605,0.3329,0.3792,0.4765,0.5705,0.673,0.7444,0.8061,0.8647,0.9374,1.0166,1.122,1.1217,1.1834,1.3501,1.338,1.3406,1.3761,1.4349,1.4723,1.4796,1.4699,1.4998,1.5803,1.6295,1.6704,1.6807,1.6567,1.6055,1.5254,1.4814,1.4619,1.4544,1.4336,1.4521,1.5019,1.5019,1.5078,1.5186,1.5352,1.5312,1.5195,1.5352,1.541,1.5391,-0.5829,-0.482,-0.3896,-0.3832,-0.3718,-0.3572,-0.3529,-0.3411,-0.3383,-0.3491,-0.3481,-0.3481,-0.357,-0.357,-0.4016,-0.509,-0.5267,-0.4821,-0.3659,-0.357,-0.357,-0.357,-0.357,-0.357,-0.357,-0.3481,-0.2857,-0.1607,0.0524,0.2247,0.354,0.4477,0.5454,0.6471,0.6461,0.6383,0.6338,0.6338,0.6338,0.6338,0.6338,0.6338,0.6644,0.8542,0.9372,0.9611,1.0924,1.1423,1.1336,1.0755,1.0624,1.0624,1.0624,1.0624,1.0624,1.0624,1.1108,1.1465,1.0397,1.0671,1.1077,1.0282,0.8736,0.7341,0.6811,0.6654,0.6388,0.5456,0.5193,0.4563,0.2847,0.3224,0.4067,0.4809,0.562,0.6718,0.8316,0.8469,0.8597,0.9156,0.9556,0.9974,1.0438,0.9755,1.0143,1.2162,1.1649,1.1854,1.3234,1.4349,1.4796,1.4496,1.3941,1.389,1.4569,1.5284,1.5757,1.603,1.6138,1.6184,1.6105,1.5615,1.541,1.541,1.5381,1.5381,1.541,1.541,1.5186,1.4863,1.5254,1.5176,1.4873,1.5264,1.541,1.5352,-0.4518,-0.3416,-0.2511,-0.25,-0.1582,-0.0875,-0.0854,-0.084,-0.1191,-0.2063,-0.2236,-0.2592,-0.3481,-0.357,-0.3303,-0.2683,-0.3484,-0.3926,-0.3659,-0.357,-0.357,-0.357,-0.357,-0.357,-0.357,-0.2681,-0.1242,0.0786,0.1367,0.2617,0.4557,0.4702,0.537,0.6468,0.6359,0.6291,0.6338,0.6338,0.6338,0.6338,0.6338,0.6795,0.7557,0.8846,0.9744,1.0496,1.1134,1.1423,1.1336,1.0755,1.0624,1.0624,1.0624,1.0624,1.0624,1.0624,1.0744,1.085,1.053,1.0635,1.0551,0.9799,0.8327,0.6976,0.6741,0.6203,0.5613,0.5328,0.4268,0.3203,0.2722,0.2267,0.2642,0.4694,0.5463,0.6373,0.8057,0.8357,0.8463,0.8585,0.8805,0.8925,0.9053,0.9211,1.0126,1.1968,1.199,1.2659,1.4509,1.4596,1.4496,1.4202,1.3834,1.389,1.4569,1.5284,1.6059,1.7025,1.7103,1.6719,1.6105,1.5615,1.541,1.5391,1.5068,1.5117,1.541,1.541,1.5352,1.5273,1.5371,1.5352,1.5273,1.5371,1.541,1.54,-0.3038,-0.1976,-0.1092,-0.1082,-0.0491,0.0,0.0,0.0,-0.0275,-0.0899,-0.0986,-0.1254,-0.1879,-0.1969,-0.17,-0.1076,-0.2057,-0.2503,-0.1969,-0.1969,-0.1969,-0.1969,-0.1969,-0.1969,-0.1969,-0.1344,-0.0089,0.1671,0.2128,0.3183,0.4939,0.5264,0.5817,0.6369,0.622,0.6156,0.6149,0.6081,0.6051,0.6125,0.6496,0.7061,0.7798,0.9288,1.0171,1.0706,1.1229,1.1336,1.1156,1.0715,1.0624,1.0624,1.0624,1.0624,1.0624,1.0624,1.0624,1.0624,1.0624,1.0624,1.0334,0.91,0.7802,0.6672,0.6261,0.5803,0.5309,0.4889,0.3708,0.2678,0.2678,0.2606,0.3374,0.5946,0.6798,0.773,0.9388,0.8924,0.8326,0.8126,0.7854,0.7859,0.804,0.7983,0.8946,1.149,1.1392,1.2111,1.4243,1.4208,1.4168,1.4282,1.3734,1.36,1.3974,1.4911,1.5972,1.7024,1.7263,1.7021,1.6357,1.5908,1.5596,1.54,1.5176,1.5205,1.541,1.541,1.5293,1.5146,1.5342,1.5293,1.5146,1.5342,1.541,1.541,-0.1721,-0.0776,0.0,0.0,0.0,0.0,0.0,0.0,0.0,0.0,0.0,0.0,0.0,0.0,0.0,0.0,-0.0897,-0.1076,-0.009,0.0,0.0,0.0,0.0,0.0,0.0,0.018,0.0805,0.2039,0.2901,0.4006,0.5139,0.5899,0.6247,0.622,0.6088,0.6017,0.5986,0.5857,0.58,0.5871,0.6726,0.7313,0.7892,0.9735,1.0456,1.061,1.1233,1.1236,1.0949,1.0719,1.0624,1.0624,1.0624,1.0624,1.0624,1.0624,1.0624,1.0624,1.0624,1.0397,0.9829,0.8226,0.7157,0.638,0.5768,0.5504,0.5251,0.4378,0.3494,0.296,0.3078,0.3872,0.5321,0.8011,0.88,0.9653,1.1293,0.9609,0.8105,0.7723,0.7055,0.6772,0.7245,0.6695,0.7631,1.0706,1.0439,1.1145,1.3398,1.3581,1.3808,1.4309,1.3601,1.3265,1.3376,1.4413,1.5438,1.6419,1.7005,1.7002,1.6456,1.6266,1.5889,1.541,1.541,1.541,1.541,1.541,1.5244,1.501,1.5371,1.5293,1.5019,1.5381,1.5508,1.5498,-0.0292,-0.0098,0.0,0.0,0.0,0.0,0.0,0.0,0.0,0.0,0.0,0.0,0.0,0.0,0.0,0.0,-0.018,-0.018,0.0,0.0,0.0,0.0,0.0,0.0,0.0,0.0986,0.1934,0.2877,0.4034,0.5094,0.609,0.6203,0.6193,0.6064,0.604,0.5959,0.5833,0.5813,0.58,0.5871,0.6726,0.7659,0.8553,0.989,1.0775,1.1276,1.1374,1.1236,1.0949,1.0719,1.0624,1.0624,1.0624,1.0624,1.0624,1.0624,1.0624,1.0624,1.0624,0.9622,0.8333,0.7152,0.6419,0.5846,0.5679,0.5664,0.5419,0.4413,0.4102,0.4127,0.4752,0.5855,0.7712,1.0661,1.0748,1.0885,1.2198,0.965,0.7674,0.7678,0.6623,0.605,0.6233,0.6246,0.732,0.9766,0.9812,1.0807,1.318,1.328,1.332,1.3414,1.328,1.3464,1.4026,1.394,1.4458,1.5438,1.6296,1.63,1.5523,1.6262,1.6182,1.541,1.541,1.541,1.541,1.541,1.5596,1.5929,1.5998,1.5918,1.5929,1.5998,1.5957,1.5908,0.0,0.0,0.0,0.0,0.0,0.0,0.0,0.0,0.0,0.0,0.0,0.0,0.0,0.0,0.0,0.0,0.0,0.0,0.0,0.0,0.0,0.0,0.0,0.0269,0.0986,0.2147,0.3255,0.4174,0.4634,0.5437,0.6373,0.6295,0.6176,0.6027,0.5942,0.5827,0.5681,0.5599,0.5834,0.637,0.7256,0.8205,0.9286,1.0299,1.0889,1.1189,1.1189,1.1009,1.0742,1.0672,1.0624,1.0624,1.0624,1.0624,1.0624,1.0624,1.0624,1.0498,1.0047,0.9026,0.789,0.6937,0.6196,0.5691,0.5701,0.5694,0.5688,0.5755,0.5277,0.5339,0.708,0.8452,1.0055,1.242,1.2626,1.2739,1.3355,1.0679,0.858,0.8314,0.724,0.6401,0.6208,0.6217,0.7247,0.9531,0.9703,1.0751,1.3035,1.3053,1.2959,1.2959,1.2959,1.3042,1.317,1.3528,1.4078,1.4874,1.6044,1.6312,1.5717,1.6423,1.625,1.541,1.541,1.5547,1.5742,1.5508,1.5811,1.6396,1.6152,1.6211,1.6426,1.6426,1.6095,1.5698,0.0,0.0,0.0,0.0,0.0,0.0,0.0,0.0,0.0,0.0,0.0,0.0,0.0,0.0,0.009,0.0359,0.0449,0.0539,0.0807,0.0807,0.0718,0.0449,0.0718,0.1254,0.2236,0.3393,0.4318,0.5064,0.5236,0.5697,0.642,0.6312,0.6176,0.6023,0.5908,0.5894,0.592,0.5794,0.6242,0.7111,0.7962,0.8859,0.9706,1.0633,1.0949,1.0902,1.0969,1.0808,1.0624,1.0624,1.0624,1.0624,1.0624,1.0624,1.0624,1.0624,1.0624,1.0364,0.9268,0.8355,0.7567,0.685,0.6368,0.6084,0.641,0.6478,0.6746,0.7673,0.716,0.7313,0.9906,1.1383,1.2821,1.4371,1.4564,1.4416,1.4322,1.1581,0.9406,0.8811,0.7727,0.6864,0.6384,0.6338,0.7227,0.9456,0.9627,1.0562,1.2908,1.2772,1.2721,1.2721,1.2721,1.2532,1.2305,1.3025,1.3573,1.3931,1.554,1.6012,1.5506,1.6336,1.625,1.542,1.5518,1.5752,1.6105,1.5811,1.6182,1.6846,1.6504,1.6582,1.6885,1.6885,1.6213,1.5396,0.0,0.0,0.0,0.0,0.0,0.0,0.0,0.0,0.0,0.0,0.0,0.0,0.0,0.0,0.0449,0.1612,0.17,0.2147,0.3304,0.3303,0.2858,0.1701,0.2771,0.3392,0.3481,0.4641,0.5165,0.4957,0.6034,0.6471,0.6278,0.6345,0.6176,0.603,0.6017,0.6281,0.68,0.6788,0.7216,0.7962,0.8877,0.9285,0.9456,1.0562,1.0828,1.0628,1.0895,1.0808,1.0624,1.0624,1.0624,1.0624,1.0624,1.0624,1.0624,1.0624,1.0624,1.0231,0.8544,0.7437,0.6785,0.6719,0.6924,0.7407,0.8197,0.8719,0.9229,1.0073,1.0201,1.0906,1.3445,1.4924,1.6206,1.7532,1.6486,1.5366,1.4926,1.1664,0.9085,0.8519,0.7646,0.6864,0.6384,0.6338,0.718,0.917,0.9322,1.0235,1.2291,1.2345,1.2338,1.2338,1.2338,1.2325,1.2305,1.2372,1.2297,1.2148,1.4285,1.473,1.3672,1.575,1.625,1.543,1.584,1.6096,1.6154,1.6475,1.6914,1.7334,1.7295,1.7305,1.7334,1.7334,1.6533,1.546,0.0,0.0,0.0,0.0,0.0,0.0,0.0,0.0,0.0,0.0,0.0,0.0269,0.1076,0.1076,0.1612,0.2771,0.2948,0.3126,0.357,0.357,0.3392,0.2948,0.4107,0.4732,0.4732,0.5891,0.6297,0.6031,0.645,0.6549,0.6338,0.6338,0.6176,0.603,0.6615,0.6929,0.6937,0.7545,0.823,0.8812,0.9139,0.9594,1.0117,1.0617,1.0719,1.0638,1.0752,1.0719,1.0624,1.0624,1.0624,1.0624,1.0624,1.0624,1.0624,1.0624,1.0238,0.9488,0.817,0.8042,0.8125,0.7404,0.7655,0.8202,0.8554,0.8867,0.9563,1.1022,1.1646,1.2721,1.5369,1.7322,1.8375,1.8101,1.7093,1.5742,1.3856,1.1132,0.8915,0.7973,0.7431,0.6864,0.6384,0.6338,0.6872,0.8237,0.8389,0.9216,1.1242,1.1996,1.2305,1.2305,1.2305,1.2305,1.2305,1.2305,1.2555,1.3157,1.4239,1.484,1.5118,1.5923,1.6133,1.582,1.5986,1.6221,1.6494,1.666,1.7139,1.7744,1.749,1.7539,1.7667,1.6902,1.5957,1.493,0.1076,0.0807,0.0539,0.0539,0.0269,0.0,0.0,0.0,0.0,0.0,0.0359,0.0897,0.1701,0.2147,0.286,0.4016,0.4194,0.4283,0.4639,0.4727,0.455,0.4194,0.5265,0.5894,0.5894,0.6694,0.6997,0.6702,0.6702,0.6549,0.6338,0.6641,0.6736,0.6622,0.7584,0.8056,0.8007,0.8705,0.9349,0.9845,0.9845,1.0123,1.0624,1.0624,1.0624,1.0624,1.0624,1.0624,1.0624,1.0624,1.0624,1.0624,1.0624,1.0624,1.0624,1.0624,1.0174,0.9464,0.837,0.868,0.9012,0.7871,0.8073,0.8677,0.9308,1.0001,1.091,1.2551,1.3462,1.4737,1.7111,1.8699,1.9146,1.802,1.6753,1.4998,1.2629,1.0358,0.8539,0.75,0.7275,0.6923,0.6388,0.6338,0.6718,0.7706,0.7783,0.8537,1.0265,1.1316,1.1848,1.1848,1.215,1.2305,1.2305,1.2586,1.3042,1.3727,1.4678,1.5407,1.5952,1.6344,1.6406,1.6279,1.6416,1.665,1.6943,1.708,1.748,1.7978,1.7695,1.761,1.7463,1.6609,1.5392,1.4042,0.3393,0.2592,0.179,0.179,0.0807,0.0,0.0,0.0,0.0,0.0,0.1076,0.179,0.179,0.2858,0.4105,0.527,0.545,0.5894,0.7054,0.7139,0.6605,0.5447,0.6517,0.7139,0.7139,0.7139,0.6997,0.6702,0.6702,0.6549,0.6338,0.7326,0.7783,0.7859,0.8846,0.9686,1.0407,1.0407,1.0608,1.0995,1.0995,1.0822,1.0624,1.0624,1.0624,1.0624,1.0624,1.0624,1.0624,1.0624,1.0624,1.0624,1.0624,1.0624,1.0624,1.0624,1.0624,1.0362,0.9118,0.9056,0.9012,0.7991,0.8086,0.8956,1.0934,1.2338,1.363,1.4939,1.593,1.7179,1.8957,1.891,1.8319,1.7531,1.5242,1.3018,1.1344,0.9409,0.7898,0.7199,0.7231,0.7045,0.6398,0.6338,0.6718,0.7706,0.7783,0.8237,0.9221,1.0265,1.0783,1.0783,1.1768,1.2305,1.2298,1.3237,1.3581,1.3337,1.554,1.622,1.5542,1.6833,1.7148,1.6758,1.7197,1.7383,1.7422,1.7842,1.8008,1.8008,1.8008,1.7432,1.6636,1.6558,1.5044,1.2916,0.357,0.2592,0.179,0.179,0.0807,0.0,0.0,0.0,0.0269,0.1165,0.1612,0.2415,0.4109,0.4643,0.5389,0.6656,0.6847,0.6937,0.7302,0.72,0.6962,0.6605,0.6962,0.7139,0.7139,0.7139,0.6997,0.6702,0.7435,0.7584,0.7403,0.8389,0.8846,0.8922,0.989,1.0353,1.0479,1.1137,1.1357,1.1276,1.1076,1.0942,1.0842,1.0698,1.0624,1.0624,1.0624,1.0624,1.0624,1.0624,1.0624,1.0624,1.0624,1.0624,1.0624,1.0624,1.0624,1.0229,0.8494,0.8233,0.8233,0.7679,0.8415,0.9466,1.0086,1.1289,1.2798,1.4482,1.5705,1.6952,1.8524,1.8701,1.8218,1.6725,1.4224,1.1866,0.9989,0.8158,0.6726,0.6268,0.6295,0.6385,0.6325,0.6338,0.6416,0.6718,0.7403,0.8237,0.9221,1.0265,1.1003,1.1558,1.2045,1.2563,1.2991,1.3489,1.3859,1.4146,1.547,1.637,1.6833,1.6873,1.7021,1.7197,1.7324,1.7383,1.7422,1.7842,1.8008,1.794,1.7285,1.6853,1.6392,1.4874,1.3832,1.308,0.4905,0.4018,0.3038,0.2592,0.1522,0.0539,0.009,0.0449,0.0986,0.1701,0.2593,0.3753,0.527,0.5849,0.6542,0.7363,0.7428,0.7438,0.7373,0.7285,0.7204,0.7143,0.7139,0.7139,0.7139,0.7577,0.7454,0.679,0.8201,0.8493,0.7884,0.9256,0.9895,0.997,1.0938,1.1298,1.1222,1.1814,1.187,1.1577,1.1283,1.1096,1.0962,1.0675,1.0624,1.0624,1.0624,1.0624,1.0624,1.0624,1.0624,1.0624,1.0624,1.0624,1.0624,1.0624,1.0371,0.9742,0.8233,0.7659,0.7344,0.6779,0.7572,0.8694,0.9431,1.0619,1.2067,1.3635,1.4816,1.582,1.6737,1.6469,1.5694,1.4364,1.2011,0.992,0.8484,0.6672,0.5471,0.527,0.5041,0.4939,0.5061,0.5029,0.5237,0.5628,0.6217,0.7227,0.8618,0.9669,1.0524,1.1287,1.2175,1.2828,1.3337,1.401,1.469,1.5308,1.612,1.6902,1.7607,1.7012,1.7061,1.7627,1.7461,1.748,1.7656,1.791,1.8008,1.794,1.6991,1.6349,1.5834,1.4081,1.316,1.2677,0.6871,0.616,0.5001,0.3838,0.2592,0.1433,0.0359,0.1076,0.1879,0.2058,0.402,0.5453,0.5552,0.665,0.7383,0.7407,0.7539,0.7553,0.74,0.738,0.7302,0.7146,0.7139,0.7139,0.7228,0.8189,0.8198,0.7097,0.9009,0.9375,0.8383,1.0198,1.0998,1.1049,1.1961,1.2325,1.2305,1.2305,1.2151,1.1877,1.1557,1.1269,1.0995,1.0681,1.0624,1.0624,1.0624,1.0624,1.0624,1.0624,1.0624,1.0624,1.0624,1.0624,1.0624,1.0658,1.0015,0.9116,0.8278,0.7428,0.6502,0.5627,0.6032,0.7086,0.8877,1.0141,1.1331,1.2521,1.347,1.4139,1.4098,1.305,1.1904,1.1064,0.9162,0.7564,0.6839,0.5277,0.4259,0.4355,0.3623,0.3082,0.3068,0.318,0.369,0.4626,0.4798,0.5756,0.7791,0.8751,0.9681,1.0593,1.2227,1.3222,1.3492,1.4737,1.5752,1.6627,1.7159,1.7607,1.7978,1.7207,1.7246,1.793,1.7549,1.7578,1.79,1.7939,1.7959,1.7881,1.6844,1.593,1.5092,1.3954,1.292,1.2189,0.7051,0.616,0.5001,0.3838,0.2592,0.1701,0.1433,0.1612,0.2504,0.4376,0.5092,0.5841,0.6853,0.7259,0.7465,0.7695,0.7746,0.7702,0.756,0.7438,0.7302,0.7146,0.7139,0.7577,0.8452,0.7841,0.7759,0.8272,0.9568,1.0423,1.093,1.2157,1.2563,1.2411,1.257,1.2518,1.2305,1.2305,1.2265,1.2164,1.1637,1.139,1.1276,1.0755,1.0624,1.0624,1.0624,1.0624,1.0624,1.0624,1.0624,1.0624,1.0624,1.0624,1.0665,1.0828,1.0227,0.9331,0.8643,0.779,0.6753,0.5684,0.5668,0.6194,0.7113,0.8717,1.0309,1.1272,1.2432,1.3142,1.2801,1.1977,1.1009,0.981,0.823,0.6742,0.5751,0.4925,0.4117,0.3315,0.3132,0.3137,0.3073,0.3932,0.4589,0.4666,0.5568,0.695,0.8856,0.8971,0.9924,1.2128,1.2614,1.3478,1.4989,1.553,1.608,1.6627,1.7159,1.7607,1.8008,1.7812,1.7656,1.7519,1.7422,1.7236,1.7031,1.7383,1.7519,1.7416,1.6035,1.5376,1.5021,1.3237,1.291,1.3388,0.7139,0.6605,0.5802,0.4643,0.3929,0.3306,0.2771,0.3127,0.3931,0.527,0.5947,0.6644,0.7363,0.7495,0.7672,0.7899,0.7919,0.7858,0.7709,0.7563,0.7411,0.7258,0.718,0.7401,0.8013,0.7404,0.788,0.9586,1.0585,1.1305,1.1833,1.2782,1.3046,1.2822,1.2822,1.2579,1.2305,1.2305,1.2305,1.2251,1.1663,1.151,1.1577,1.0989,1.0768,1.0768,1.0768,1.0681,1.0624,1.0624,1.0624,1.0624,1.0624,1.0624,1.0678,1.0909,0.9977,0.8815,0.8633,0.7571,0.6328,0.5748,0.5688,0.5913,0.6437,0.7466,0.859,0.9444,1.013,1.0515,1.0264,0.9592,0.881,0.8215,0.7063,0.611,0.5688,0.501,0.4387,0.3898,0.3544,0.3374,0.3374,0.39,0.4431,0.4864,0.5479,0.6891,0.9232,0.9505,1.0515,1.2661,1.3344,1.4233,1.5514,1.5863,1.6412,1.7276,1.7369,1.75,1.7695,1.6873,1.6646,1.6788,1.6391,1.6147,1.6211,1.6844,1.708,1.6915,1.5454,1.4837,1.4714,1.3469,1.3875,1.5122,0.7139,0.7139,0.6782,0.5625,0.5359,0.509,0.4016,0.4732,0.5447,0.5625,0.6731,0.7383,0.7407,0.7675,0.7899,0.8028,0.8038,0.7974,0.7821,0.7678,0.7533,0.738,0.7224,0.7228,0.7401,0.7228,0.8269,1.0611,1.1354,1.1844,1.2266,1.3056,1.3173,1.2903,1.2956,1.2679,1.2305,1.2358,1.2351,1.2251,1.1663,1.1603,1.1797,1.1162,1.0949,1.0995,1.0995,1.0835,1.0692,1.0645,1.0624,1.0624,1.0624,1.0658,1.0688,1.0982,0.9738,0.8388,0.8609,0.7313,0.5874,0.5847,0.5861,0.598,0.6256,0.6606,0.7094,0.7663,0.7922,0.7962,0.7827,0.7204,0.6755,0.6712,0.6132,0.5708,0.577,0.5192,0.4772,0.4688,0.4064,0.363,0.3643,0.3762,0.4301,0.5309,0.5639,0.7003,0.986,1.0419,1.1454,1.3209,1.4277,1.516,1.5818,1.6143,1.6826,1.79,1.7484,1.7272,1.7177,1.5734,1.5451,1.5894,1.5178,1.514,1.5514,1.6321,1.6621,1.6461,1.499,1.4424,1.4453,1.4111,1.5084,1.6609,0.7139,0.7139,0.6782,0.5625,0.5359,0.5359,0.5179,0.527,0.5716,0.6782,0.7185,0.7421,0.7553,0.7831,0.8018,0.8038,0.8038,0.7974,0.7821,0.7678,0.7533,0.738,0.7224,0.7577,0.8627,0.7665,0.8269,1.0611,1.0752,1.177,1.3853,1.3898,1.3674,1.316,1.3407,1.3066,1.2318,1.2579,1.2538,1.2251,1.1663,1.1603,1.1777,1.0935,1.0775,1.0995,1.0995,1.0969,1.0895,1.0705,1.0624,1.0624,1.0624,1.0735,1.0995,1.1283,1.0119,0.8757,0.9145,0.7782,0.6166,0.603,0.6098,0.6187,0.5926,0.6398,0.6929,0.7039,0.7565,0.7762,0.7046,0.6856,0.6639,0.5924,0.5988,0.5828,0.4828,0.4938,0.4695,0.373,0.3615,0.3561,0.3622,0.4537,0.5561,0.661,0.7646,0.9408,1.2088,1.2081,1.3064,1.5355,1.5447,1.5974,1.7145,1.7171,1.7295,1.7471,1.6992,1.6702,1.6684,1.6151,1.5749,1.5375,1.5061,1.5074,1.5428,1.5996,1.6152,1.6069,1.4668,1.4279,1.4522,1.489,1.5649,1.6537,0.7139,0.7139,0.6962,0.6428,0.6337,0.6337,0.6337,0.6337,0.6517,0.7051,0.735,0.7522,0.7594,0.7865,0.8038,0.8038,0.8038,0.8011,0.7943,0.7726,0.757,0.7502,0.7268,0.7312,0.7841,0.7404,0.7925,0.9666,1.0265,1.1472,1.3118,1.3822,1.3861,1.346,1.3587,1.3233,1.2559,1.2768,1.2579,1.2265,1.1844,1.185,1.2051,1.1503,1.1369,1.1436,1.1109,1.0889,1.0755,1.0788,1.0802,1.0802,1.0802,1.1002,1.1263,1.139,1.0196,0.8846,0.9231,0.7859,0.6244,0.6176,0.6663,0.7138,0.6978,0.753,0.7751,0.6441,0.6878,0.7221,0.6289,0.6147,0.6154,0.5995,0.6132,0.6136,0.5747,0.5979,0.5975,0.5559,0.5483,0.5566,0.5526,0.6681,0.7534,0.7978,0.8994,1.0537,1.2706,1.2757,1.3719,1.5838,1.6067,1.6593,1.7373,1.7383,1.7216,1.6955,1.6693,1.6441,1.6147,1.4883,1.443,1.4572,1.4053,1.4194,1.4746,1.5187,1.5488,1.5594,1.4479,1.4526,1.5316,1.548,1.6025,1.6582]},{"header":{"parameterUnit":"m.s-1","parameterCategory":1,"la1":30.6,"la2":28.766,"lo1":-90.7593,"lo2":-88.6598,"dy":0.0162,"dx":0.0183,"nx":116,"ny":114,"refTime":"2023-08-31T18:00:00:Z","depth":0,"parameterNumber":3,"parameterNumberName":"V-component_of_WINDS"},"data":[0.0,0.0,0.0,0.0,0.0,0.0,0.0,0.0,0.0,0.0,0.0,0.0,0.0,0.0,0.0,0.0,0.0,0.0,0.0,0.0,0.0,0.0,0.0,0.0,0.0,0.0,0.0,0.0,0.0,0.0,0.0,0.0,0.0,0.0,0.0,0.0,0.0,0.0,0.0,0.0,0.0,0.0,0.0,0.0,0.0,0.0,0.0,0.0,0.0,0.0,0.0,0.0,0.0,0.0,0.0,0.0,0.0,0.0,0.0,0.0,0.0,0.0,0.0,0.0,0.0,0.0,0.0,0.0,0.0,0.0,0.0,0.0,0.0,0.0,0.0,0.0,0.0,0.0,0.0,0.0,0.0,0.0,0.0,0.0,0.0,0.0,0.0,0.0,0.0,0.0,0.0,0.0,0.0,0.0,0.0,0.0,0.0,0.0,0.0,0.0,0.0,0.0,0.0,0.0,0.0,0.0,0.0,0.0,0.0,0.0,0.0,0.0,0.0,0.0,0.0,0.0,0.0,0.0,0.0,0.0,0.0,0.0,0.0,0.0,0.0,0.0,0.0,0.0,0.0,0.0,0.0,0.0,0.0,0.0,0.0,0.0,0.0,0.0,0.0,0.0,0.0,0.0,0.0,0.0,0.0,0.0,0.0,0.0,0.0,0.0,0.0,0.0,0.0,0.0,0.0,0.0,0.0,0.0,0.0,0.0,0.0,0.0,0.0,0.0,0.0,0.0,0.0,0.0,0.0,0.0,0.0,0.0,0.0,0.0,0.0,0.0,0.0,0.0,0.0,0.0,0.0,0.0,0.0,0.0,0.0,0.0,0.0,0.0,0.0,0.0,0.0,0.0,0.0,0.0,0.0,0.0,0.0,0.0,0.0,0.0,0.0,0.0,0.0,0.0,0.0,0.0,0.0,0.0,0.0,0.0,0.0,0.0,0.0,0.0,0.0,0.0,0.0,0.0,0.0,0.0,0.0,0.0,0.0,0.0,0.0,0.0,0.0,0.0,0.0,0.0,0.0,0.0,0.0,0.0,0.0,0.0,0.0,0.0,0.0,0.0,0.0,0.0,0.0,0.0,0.0,0.0,0.0,0.0,0.0,0.0,0.0,0.0,0.0,0.0,0.0,0.0,0.0,0.0,0.0,0.0,0.0,0.0,0.0,0.0,0.0,0.0,0.0,0.0,0.0,0.0,0.0,0.0,0.0,0.0,0.0,0.0,0.0,0.0,0.0,0.0,0.0,0.0,0.0,0.0,0.0,0.0,0.0,0.0,0.0,0.0,0.0,0.0,0.0,0.0,0.0,0.0,0.0,0.0,0.0,0.0,0.0,0.0,0.0,0.0,0.0,0.0,0.0,0.0,0.0,0.0,0.0,0.0,0.0,0.0,0.0,0.0,0.0,0.0,0.0,0.0,0.0,0.0,0.0,0.0,0.0,0.0,0.0,0.0,0.0,0.0,0.0,0.0,0.0,0.0,0.0,0.0,0.0,0.0,0.0,0.0,0.0,0.0,0.0,0.0,0.0,0.0,0.0,0.0,0.0,0.0,0.0,0.0,0.0,0.0,0.0,0.0,0.0,0.0,0.0,0.0,0.0,0.0,0.0,0.0,0.0,0.0,0.0,0.0,0.0,0.0,0.0,0.0,0.0,0.0,0.0,0.0,0.0,0.0,0.0,0.0,0.0,0.0,0.0,0.0,0.0,0.0,0.0,0.0,0.0,0.0,0.0,0.0,0.0,0.0,0.0,0.0,0.0,0.0,0.0,0.0,0.0,0.0,0.0,0.0,0.0,0.0,0.0,0.0,0.0,0.0,0.0,0.0,0.0,0.0,0.0,0.0,0.0,0.0,0.0,0.0,0.0,0.0,0.0,0.0,0.0,0.0,0.0,0.0,0.0,0.0,0.0,0.0,0.0,0.0,0.0,0.0,0.0,0.0,0.0,0.0,0.0,0.0,0.0,0.0,0.0,0.0,0.0,0.0,0.0,0.0,0.0,0.0,0.0,0.0,0.0,0.0,0.0,0.0,0.0,0.0,0.0,0.0,0.0,0.0,0.0,0.0,0.0,0.0,0.0,0.0,0.0,0.0,0.0,0.0,0.0,0.0,0.0,0.0,0.0,0.0,0.0,0.0,0.0,0.0,0.0,0.0,0.0,0.0,0.0,0.0,0.0,0.0,0.0,0.0,0.0,0.0,0.0,0.0,0.0,0.0,0.0,0.0,0.0,0.0,0.0,0.0,0.0,0.0,0.0,0.0,0.0,0.0,0.0,0.0,0.0,0.0,0.0,0.0,0.0,0.0,0.0,0.0,0.0,0.0,0.0,0.0,0.0,0.0,0.0,0.0,0.0,0.0,0.0,0.0,0.0,0.0,0.0,0.0,0.0,0.0,0.0,0.0,0.0,0.0,0.0,0.0,0.0,0.0,0.0,0.0,0.0,0.0,0.0,0.0,0.0,0.0,0.0,0.0,0.0,0.0,0.0,0.0,0.0,0.0,0.0,0.0,0.0,0.0,0.0,0.0,0.0,0.0,0.0,0.0,0.0,0.0,0.0,0.0,0.0,0.0,0.0,0.0,0.0,0.0,0.0,0.0,0.0,0.0,0.0,0.0,0.0,0.0,0.0,0.0,0.0,0.0,0.0,0.0,0.0,0.0,0.0,0.0,0.0,0.0,0.0,0.0,0.0,0.0,0.0,0.0,0.0,0.0,0.0,0.0,0.0,0.0,0.0,0.0,0.0,0.0,0.0,0.0,0.0,0.0,0.0,0.0,0.0,0.0,0.0,0.0,0.0,0.0,0.0,0.0,0.0,0.0,0.0,0.0,0.0,0.0,0.0,0.0,0.0,0.0,0.0,0.0,0.0,0.0,0.0,0.0,0.0,0.0,0.0,0.0,0.0,0.0,0.0,0.0,0.0,0.0,0.0,0.0,0.0,0.0,0.0,0.0,0.0,0.0,0.0,0.0,0.0,0.0,0.0,0.0,0.0,0.0,0.0,0.0,0.0,0.0,0.0,0.0,0.0,0.0,0.0,0.0,0.0,0.0,0.0,0.0,0.0,0.0,0.0,0.0,0.0,0.0,0.0,0.0,0.0,0.0,0.0,0.0,0.0,0.0,0.0,0.0,0.0,0.0,0.0,0.0,0.0,0.0,0.0,0.0,0.0,0.0,0.0,0.0,0.0,0.0,0.0,0.0,0.0,0.0,0.0,0.0,0.0,0.0,0.0,0.0,0.0,0.0,0.0,0.0,0.0,0.0,0.0,0.0,0.0,0.0,0.0,0.0,0.0,0.0,0.0,0.0,0.0,0.0,0.0,0.0,0.0,0.0,0.0,0.0,0.0,0.0,0.0,0.0,0.0,0.0,0.0,0.0,0.0,0.0,0.0,0.0,0.0,0.0,0.0,0.0,0.0,0.0,0.0,0.0,0.0,0.0,0.0,0.0,0.0,0.0,0.0,0.0,0.0,0.0,0.0,0.0,0.0,0.0,0.0,0.0,0.0,0.0,0.0,0.0,0.0,0.0,0.0,0.0,0.0,0.0,0.0,0.0,0.0,0.0,0.0,0.0,0.0,0.0,0.0,0.0,0.0,0.0,0.0,0.0,0.0,0.0,0.0,0.0,0.0,0.0,0.0,0.0,0.0,0.0,0.0,0.0,0.0,0.0,0.0,0.0,0.0,0.0,0.0,0.0,0.0,0.0,0.0,0.0,0.0,0.0,0.0,0.0,0.0,0.0,0.0,0.0,0.0,0.0,0.0,0.0,0.0,0.0,0.0,0.0,0.0,0.0,0.0,0.0,0.0,0.0,0.0,0.0,0.0,0.0,0.0,0.0,0.0,0.0,0.0,0.0,0.0,0.0,0.0,0.0,0.0,0.0,0.0,0.0,0.0,0.0,0.0,0.0,0.0,0.0,0.0,0.0,0.0,0.0,0.0,0.0,0.0,0.0,0.0,0.0,0.0,0.0,0.0,0.0,0.0,0.0,0.0,0.0,0.0,0.0,0.0,0.0,0.0,0.0,0.0,0.0,0.0,0.0,0.0,0.0,0.0,0.0,0.0,0.0,0.0,0.0,0.0,0.0,0.0,0.0,0.0,0.0,0.0,0.0,0.0,0.0,0.0,0.0,0.0,0.0,0.0,0.0,0.0,0.0,0.0,0.0,0.0,0.0,0.0,0.0,0.0,0.0,0.0,0.0,0.0,0.0,0.0,0.0,0.0,0.0,0.0,0.0,0.0,0.0,0.0,0.0,0.0,0.0,0.0,0.0,0.0,0.0,0.0,0.0,0.0,0.0,0.0,0.0,0.0,0.0,0.0,0.0,0.0,0.0,0.0,0.0,0.0,0.0,0.0,0.0,0.0,0.0,0.0,0.0,0.0,0.0,0.0,0.0,0.0,0.0,0.0,0.0,0.0,0.0,0.0,0.0,0.0,0.0,0.0,0.0,0.0,0.0,0.0,0.0,0.0,0.0,0.0,0.0,0.0,0.0,0.0,0.0,0.0,0.0,0.0,0.0,0.0,0.0,0.0,0.0,0.0,0.0,0.0,0.0,0.0,0.0,0.0,0.0,0.0,0.0,0.0,0.0,0.0,0.0,0.0,0.0,0.0,0.0,0.0,0.0,0.0,0.0,0.0,0.0,0.0,0.0,0.0,0.0,0.0,0.0,0.0,0.0,0.0,0.0,0.0,0.0,0.0,0.0,0.0,0.0,0.0,0.0,0.0,0.0,0.0,0.0,0.0,0.0,0.0,0.0,0.0,0.0,0.0,0.0,0.0,0.0,0.0,0.0,0.0,0.0,0.0,0.0,0.0,0.0,0.0,0.0,0.0,0.0,0.0,0.0,0.0,0.0,0.0,0.0,0.0,0.0,0.0,0.0,0.0,0.0,0.0,0.0,0.0,0.0,0.0,0.0,0.0,0.0,0.0,0.0,0.0,0.0,0.0,0.0,0.0,0.0,0.0,0.0,0.0,0.0,0.0,0.0,0.0,0.0,0.0,0.0,0.0,0.0,0.0,0.0,0.0,0.0,0.0,0.0,0.0,0.0,0.0,0.0,0.0,0.0,0.0,0.0,0.0,0.0,0.0,0.0,0.0,0.0,0.0,0.0,0.0,0.0,0.0,0.0,0.0,0.0,0.0,0.0,0.0,0.0,0.0,0.0,0.0,0.0,0.0,0.0,0.0,0.0,0.0,0.0,0.0,0.0,0.0,0.0,0.0,0.0,0.0,0.0,0.0,0.0,0.0,0.0,0.0,0.0,0.0,0.0,0.0,0.0,0.0,0.0,0.0,0.0,0.0,0.0,0.0,0.0,0.0,0.0,0.0,0.0,0.0,0.0,0.0,0.0,0.0,0.0,0.0,0.0,0.0,0.0,0.0,0.0,0.0,0.0,0.0,0.0,0.0,0.0,0.0,0.0,0.0,0.0,0.0,0.0,0.0,0.0,0.0,0.0,0.0,0.0,0.0,0.0,0.0,0.0,0.0,0.0,0.0,0.0,0.0,0.0,0.0,0.0,0.0,0.0,0.0,0.0,0.0,0.0,0.0,0.0,0.0,0.0,0.0,0.0,0.0,0.0,0.0,0.0,0.0,0.0,0.0,0.0,0.0,0.0,0.0,0.0,0.0,0.0,0.0,0.0,0.0,0.0,0.0,0.0,0.0,0.0,0.0,0.0,0.0,0.0,0.0,0.0,0.0,0.0,0.0,0.0,0.0,0.0,0.0,0.0,0.0,0.0,0.0,0.0,0.0,0.0,0.0,0.0,0.0,0.0,0.0,0.0,0.0,0.0,0.0,0.0,0.0,0.0,0.0,0.0,0.0,0.0,0.0,0.0,0.0,0.0,0.0,0.0,0.0,0.0,0.0,0.0,0.0,0.0,0.0,0.0,0.0,0.0,0.0,0.0,0.0,0.0,0.0,0.0,0.0,0.0,0.0,0.0,0.0,0.0,0.0,0.0,0.0,0.0,0.0,0.0,0.0,0.0,0.0,0.0,0.0,0.0,0.0,0.0,0.0,0.0,0.0,0.0,0.0,0.0,0.0,0.0,0.0,0.0,0.0,0.0,0.0,0.0,0.0,0.0,0.0,0.0,0.0,0.0,0.0,0.0,1.7102,1.5375,0.0,0.0,0.0,0.0,0.0,0.0,0.0,0.0,0.0,0.0,0.0,0.0,0.0,0.0,0.0,0.0,0.0,0.0,0.0,0.0,0.0,0.0,0.0,0.0,0.0,0.0,0.0,0.0,0.0,0.0,0.0,0.0,0.0,0.0,0.0,0.0,0.0,1.577,1.591,1.7459,2.0242,1.9471,1.8446,1.7248,0.0,0.0,0.0,0.0,0.0,0.0,0.0,0.0,0.0,0.0,0.0,0.0,0.0,0.0,0.0,0.0,0.0,0.0,0.0,0.0,0.0,0.0,0.0,0.0,0.0,0.0,0.0,0.0,0.0,0.0,0.0,0.0,0.0,0.0,0.0,0.0,0.0,0.0,0.0,0.0,0.0,0.0,0.0,0.0,0.0,0.0,0.0,0.0,0.0,0.0,0.0,0.0,0.0,0.0,0.0,0.0,0.0,0.0,0.0,0.0,0.0,0.0,0.0,0.0,0.0,0.0,0.0,0.0,0.0,0.0,1.7026,1.6611,0.0,0.0,0.0,0.0,0.0,0.0,0.0,0.0,0.0,0.0,0.0,0.0,0.0,0.0,0.0,0.0,0.0,0.0,0.0,0.0,0.0,0.0,0.0,1.7119,1.9964,2.1493,2.1202,1.9705,0.0,0.0,0.0,0.0,0.0,0.0,1.4034,1.5037,1.7137,2.0398,1.997,2.0929,2.3179,2.34,2.0801,1.5962,1.5233,0.0,0.0,0.0,0.0,0.0,0.0,0.0,0.0,0.0,0.0,0.0,0.0,0.0,0.0,0.0,0.0,0.0,0.0,0.0,0.0,0.0,0.0,0.0,0.0,0.0,0.0,0.0,0.0,0.0,0.0,0.0,0.0,0.0,0.0,0.0,0.0,0.0,0.0,0.0,0.0,0.0,0.0,0.0,0.0,0.0,0.0,0.0,0.0,0.0,0.0,0.0,0.0,0.0,0.0,0.0,0.0,0.0,0.0,0.0,0.0,0.0,0.0,0.0,2.313,2.2633,2.1842,2.2677,2.2347,2.0928,1.9487,1.9094,1.9375,1.767,0.0,0.0,0.0,0.0,0.0,0.0,0.0,0.0,0.0,0.0,0.0,0.0,0.0,0.0,0.0,0.0,0.0,0.0,0.0,0.0,0.0,2.0339,2.3995,2.5821,2.4594,2.2528,1.957,0.0,0.0,0.0,0.0,0.0,1.8264,1.9503,2.1763,2.5107,2.5366,2.5363,2.4962,2.1267,1.5538,0.8458,1.0992,0.9774,0.5666,0.0,0.0,0.0,0.0,0.0,0.0,0.0,0.0,0.0,0.0,0.0,0.0,0.0,0.0,0.0,0.0,0.0,0.0,0.0,0.0,0.0,0.0,0.0,0.0,0.0,0.0,0.0,0.0,0.0,0.0,0.0,0.0,0.0,0.0,0.0,0.0,0.0,0.0,0.0,0.0,0.0,2.8416,2.3029,0.0,0.0,0.0,0.0,0.0,0.0,0.0,0.0,0.0,0.0,0.0,0.0,0.0,2.2391,2.2464,2.2392,2.2685,2.3063,2.312,2.0844,1.6908,2.1176,2.2949,2.2758,2.2549,0.0,1.4866,1.3598,0.0,0.0,0.0,0.0,0.0,0.0,0.0,0.0,0.0,0.0,0.0,0.0,0.0,0.0,0.0,0.0,0.0,0.0,0.0,0.0,0.0,2.2343,2.4854,2.5301,2.436,2.2963,2.1103,1.9266,0.0,0.0,0.0,2.0978,2.2885,2.4377,2.6047,2.7853,2.811,2.7055,2.4665,1.9918,1.2183,0.2305,0.1467,-0.0717,-0.3922,-0.6906,0.0,0.0,0.0,0.0,0.0,0.0,0.0,0.0,0.0,0.0,0.0,0.0,0.0,0.0,0.0,0.0,0.0,0.0,0.0,0.0,0.0,0.0,0.0,0.0,0.0,0.0,0.0,0.0,0.0,0.0,0.0,0.0,0.0,0.0,0.0,0.0,0.0,0.0,0.0,2.6635,3.0297,2.7785,2.3562,1.9231,0.0,0.0,0.0,0.0,0.0,0.0,0.0,0.0,0.0,2.3039,2.3092,2.3106,2.3122,2.3088,2.3067,2.3067,2.3066,2.0536,1.5846,1.8053,1.8978,1.8996,1.9044,1.7494,1.4936,1.3783,1.4202,1.543,0.0,0.0,0.0,0.0,1.31,1.3134,0.0,0.0,0.0,0.0,0.0,0.0,0.0,0.0,0.0,0.0,0.0,0.0,2.1498,2.4013,2.5288,2.4559,2.3578,2.2498,2.1299,2.0657,2.0638,2.1352,2.3417,2.5397,2.7234,2.8772,2.9445,2.9203,2.8853,2.6909,2.3427,1.7159,0.8225,-0.2873,-0.8413,-1.2126,-1.4378,-1.6215,-1.8095,-1.9333,0.0,0.0,0.0,0.0,0.0,0.0,0.0,0.0,0.0,0.0,0.0,0.0,0.0,0.0,0.0,0.0,0.0,0.0,0.0,0.0,0.0,0.0,0.0,0.0,0.0,0.0,0.0,0.0,0.0,0.0,0.0,0.0,0.0,0.0,0.0,0.0,0.0,2.7547,2.9666,2.8739,2.4609,2.04,0.0,0.0,0.0,0.0,0.0,0.0,1.9294,2.1714,2.3094,2.3102,2.3114,2.3089,2.3085,2.3096,2.3135,2.3135,2.3115,2.1155,1.7628,1.7668,1.6971,1.5848,1.6647,1.6433,1.5333,1.4491,1.4545,1.5238,1.4289,1.3925,1.3841,1.3083,1.3355,1.4099,0.0,0.0,0.0,0.0,0.0,0.0,0.0,0.0,0.0,0.0,0.0,2.3912,2.4023,2.558,2.6255,2.5316,2.3411,2.1502,1.9725,2.0806,2.1544,2.1581,2.5849,2.9119,3.1,3.2106,3.1458,2.9004,2.7301,2.4761,2.1266,1.1813,0.2411,-0.6967,-1.6804,-2.2454,-2.4355,-1.9988,-2.0795,-2.4429,-1.7757,0.0,0.0,0.0,0.0,0.0,0.0,0.0,0.0,0.0,0.0,0.0,0.0,0.0,0.0,0.0,0.0,0.0,0.0,0.0,0.0,0.0,0.0,0.0,0.0,0.0,0.0,0.0,0.0,0.0,0.0,0.0,0.0,0.0,0.0,0.0,0.0,0.0,0.0,2.3754,2.037,0.0,0.0,0.0,0.0,2.2334,2.2741,2.2884,2.2858,2.3,2.3063,2.3088,2.3098,2.3108,2.3073,2.3065,2.3135,2.3135,2.3066,2.2998,2.2746,2.2717,2.0208,1.5987,1.9022,1.8,1.4199,1.4149,1.4159,1.4079,1.3494,1.3265,1.3186,1.3002,1.318,1.3554,0.0,0.0,0.0,0.0,0.0,0.0,0.0,0.0,2.1139,2.2845,2.4484,2.5422,2.5242,2.5903,2.5541,2.3432,2.2571,2.2055,2.1895,2.2883,2.4685,2.7403,2.9763,3.1691,3.314,3.277,3.1737,2.9972,2.7311,2.4036,1.9995,0.9466,0.0148,-0.8268,-1.8324,-2.549,-3.0013,-2.9761,-2.9822,-2.9804,-2.6445,-2.4019,0.0,0.0,0.0,0.0,0.0,0.0,0.0,0.0,0.0,0.0,0.0,0.0,0.0,0.0,0.0,0.0,0.0,0.0,0.0,0.0,0.0,0.0,0.0,0.0,0.0,0.0,0.0,0.0,0.0,0.0,0.0,0.0,0.0,0.0,0.0,0.0,0.0,2.7178,2.5113,0.0,2.3538,2.2159,2.1819,2.3024,2.3073,2.3132,2.3136,2.3073,2.4445,2.7349,2.7383,2.6008,2.3162,2.3091,2.3061,2.3061,2.3113,2.2529,2.1457,2.1447,2.0245,1.8091,1.9259,1.8912,1.7395,1.6221,1.4902,1.3527,1.3253,1.3213,1.3206,1.3121,1.3571,1.4187,0.0,0.0,0.0,0.0,0.0,0.0,0.0,0.0,2.385,2.5754,2.6618,2.6874,2.6354,2.5753,2.4341,2.1772,2.1331,2.1353,2.1754,2.3614,2.6303,2.9867,3.1972,3.3461,3.4241,3.3013,3.1656,3.0238,2.7432,2.393,1.9628,0.8098,-0.0937,-0.7979,-1.8835,-2.659,-3.1575,-3.3906,-3.4541,-3.3786,-3.2225,-2.9901,-2.7323,0.0,0.0,0.0,0.0,0.0,0.0,0.0,0.0,0.0,0.0,0.0,0.0,0.0,0.0,0.0,0.0,0.0,0.0,0.0,0.0,0.0,0.0,0.0,0.0,0.0,0.0,0.0,0.0,0.0,0.0,0.0,0.0,0.0,0.0,2.8419,2.6778,2.7455,2.7606,2.8179,2.9689,2.7093,2.4692,2.3174,2.3061,2.3739,2.5262,2.5376,2.6723,2.9731,2.9768,2.7985,2.432,2.4212,2.4248,2.4248,2.3824,2.2772,2.1065,2.1066,2.0731,2.0108,1.9488,1.8854,1.8285,1.6998,1.5518,1.4056,1.3754,1.366,1.3666,1.3272,1.3427,1.3817,0.0,0.0,0.0,0.0,0.0,0.0,0.0,2.5226,2.696,2.7908,2.84,2.8278,2.7361,2.5195,2.2932,2.0731,1.9881,1.9389,1.9117,2.2894,2.6151,2.8499,3.2294,3.4337,3.4337,3.2937,3.1378,2.9635,2.7437,2.4298,2.0104,0.752,-0.1021,-0.6275,-1.8847,-2.6174,-2.9275,-3.1665,-3.4066,-3.6084,-3.4476,-3.3852,-3.3521,0.0,0.0,0.0,0.0,0.0,0.0,0.0,0.0,0.0,0.0,0.0,0.0,0.0,0.0,0.0,0.0,0.0,0.0,0.0,0.0,0.0,0.0,0.0,0.0,0.0,0.0,0.0,0.0,0.0,0.0,0.0,0.0,0.0,3.127,3.2338,3.0905,2.4249,2.7251,2.9768,2.9767,2.9804,2.803,2.3659,2.334,2.5196,2.9579,2.9763,2.9804,2.9792,2.9754,2.8744,2.6685,2.6576,2.6562,2.6461,2.5326,2.3813,2.1942,2.1897,2.1876,2.1729,1.9744,1.8095,1.6732,1.6206,1.6011,1.5899,1.4998,1.4657,1.4503,1.342,1.2758,1.2477,0.0,0.0,0.0,0.0,0.0,0.0,2.5196,2.6422,2.7412,2.8437,2.805,2.7225,2.6048,2.464,2.3124,2.1514,2.1485,2.1698,2.1969,2.3903,2.6782,3.072,3.226,3.295,3.2803,3.1223,2.9753,2.8395,2.6328,2.3455,1.9627,0.7636,-0.0918,-0.6696,-1.8047,-2.5375,-2.9231,-3.0206,-3.2015,-3.4233,-3.4599,-3.4729,-3.4639,0.0,0.0,0.0,0.0,0.0,0.0,0.0,0.0,0.0,0.0,0.0,0.0,0.0,0.0,0.0,0.0,0.0,0.0,0.0,0.0,0.0,0.0,0.0,0.0,0.0,0.0,0.0,0.0,0.0,0.0,0.0,3.4459,3.3567,3.2705,3.391,3.4218,3.2283,3.0737,2.9796,2.983,2.977,2.9271,2.8042,2.7973,2.8463,2.9691,2.9774,2.981,2.981,2.8209,2.8254,3.0124,2.8209,2.7146,2.687,2.5461,2.3978,2.2467,2.1721,2.0941,2.0178,1.9659,1.9005,1.8296,1.811,1.8086,1.7861,1.5698,1.5247,1.5673,1.5329,1.5593,1.6207,0.0,0.0,0.0,0.0,0.0,0.0,2.648,2.7461,2.8141,2.8769,2.8191,2.7276,2.6059,2.5057,2.4025,2.2916,2.3125,2.3326,2.338,2.5292,2.7931,3.1311,3.1689,3.1882,3.2029,3.0248,2.8827,2.7815,2.6035,2.3191,1.923,0.931,0.1249,-0.5429,-1.7671,-2.4461,-2.6806,-2.8524,-3.0326,-3.2116,-3.3268,-3.4187,-3.4922,-3.5115,-3.4687,-3.3812,-3.2492,-3.1142,-2.9601,-2.7012,0.0,0.0,0.0,0.0,0.0,0.0,0.0,0.0,0.0,0.0,0.0,0.0,0.0,0.0,0.0,0.0,0.0,0.0,0.0,0.0,0.0,0.0,0.0,0.0,3.6339,3.5681,3.4403,3.4925,3.5519,3.5489,3.3565,3.2194,3.2164,3.0758,2.9792,2.9766,2.9831,3.0507,3.2123,3.1085,3.0487,3.0487,2.7891,2.8093,3.1443,2.942,2.8071,2.7379,2.5871,2.4641,2.3509,2.2007,2.0985,2.0401,2.0385,2.0261,1.9933,1.9447,1.892,1.8189,0.0,0.0,0.0,0.0,1.6286,1.6943,0.0,0.0,0.0,0.0,0.0,0.0,2.7075,2.8172,2.882,2.8756,2.8418,2.7755,2.6622,2.5799,2.5104,2.4505,2.4548,2.4454,2.4078,2.6742,2.9028,3.0688,3.0646,3.0842,3.1379,2.9518,2.8147,2.7363,2.5974,2.3182,1.8997,1.1586,0.4331,-0.3049,-1.6588,-2.2681,-2.2981,-2.6357,-2.8465,-2.9637,-3.085,-3.259,-3.4529,-3.542,-3.5639,-3.5343,-3.4308,-3.4678,-3.5094,-3.1674,0.0,0.0,0.0,0.0,0.0,0.0,0.0,0.0,0.0,0.0,0.0,0.0,0.0,0.0,0.0,0.0,0.0,0.0,0.0,0.0,0.0,0.0,0.0,0.0,3.8787,3.915,3.6381,3.6029,3.591,3.5574,3.5499,3.5377,3.5083,3.1963,2.9968,2.9996,3.0008,3.1485,3.4861,3.278,0.0,0.0,0.0,2.8429,3.1364,3.0352,2.9232,2.8175,2.6624,2.5647,2.5023,2.2724,2.1615,2.1502,2.1507,2.152,2.1456,2.0454,1.9165,1.783,1.779,1.7749,1.7626,1.6499,1.6224,1.6382,0.0,0.0,0.0,0.0,0.0,0.0,2.7059,2.7948,2.833,2.7834,2.7561,2.6887,2.5483,2.5078,2.4861,2.4739,2.4745,2.5027,2.5617,2.6962,2.8224,2.927,2.8825,2.8642,2.8803,2.7538,2.6344,2.5283,2.4441,2.2486,1.9354,1.1719,0.5116,-0.079,-1.0498,-1.6753,-2.0209,-2.2465,-2.4402,-2.6126,-2.7822,-3.0427,-3.3391,-3.4122,-3.4772,-3.5365,-3.5427,-3.6099,-3.647,-3.3397,-3.1779,-2.9501,-2.0726,-1.5148,0.0,0.0,0.0,0.0,0.0,0.0,0.0,0.0,0.0,0.0,0.0,0.0,0.0,0.0,0.0,0.0,0.0,0.0,0.0,3.7448,3.9089,3.9884,3.9311,3.9226,3.8286,3.5797,3.5472,3.4651,3.2478,3.1626,3.1192,3.1161,3.1197,3.1456,3.2201,3.1781,3.1482,3.1513,3.0859,3.0824,3.1471,3.108,3.0333,2.9264,2.7885,0.0,2.696,2.4268,2.2525,2.1657,2.1672,2.1657,2.1642,2.1413,2.0543,1.9378,1.9356,1.9339,1.9326,1.9076,1.9019,1.9034,0.0,0.0,0.0,0.0,0.0,0.0,2.694,2.7795,2.7959,2.7025,2.6771,2.6131,2.4618,2.439,2.4411,2.4586,2.4842,2.5526,2.6765,2.7071,2.7716,2.8848,2.7935,2.7341,2.7255,2.6131,2.506,2.4054,2.31,2.1104,1.808,1.3044,0.7499,0.1439,-0.6696,-1.2506,-1.6246,-1.8815,-2.1087,-2.314,-2.4765,-2.6711,-2.895,-3.1227,-3.285,-3.3935,-3.4131,-3.4926,-3.5609,-3.3762,-3.1679,-2.8531,-2.0979,-1.4739,-0.9472,0.0,0.0,0.0,0.0,0.0,0.0,0.0,0.0,0.0,0.0,0.0,0.0,0.0,0.0,3.5759,3.6146,0.0,3.8091,3.8857,3.9211,3.8815,3.716,3.7194,3.6947,3.572,3.5566,3.5027,3.3701,3.1128,2.9564,2.952,3.0693,3.1362,3.1346,3.1363,3.1367,3.1331,3.1358,3.1323,3.1323,3.127,3.0945,3.0408,2.8501,2.7442,2.7104,2.5702,2.3928,2.1989,2.2006,2.1508,2.0753,2.1652,2.163,2.1047,2.1038,2.0533,1.9796,1.9796,1.999,2.0208,0.0,0.0,0.0,0.0,0.0,0.0,0.0,2.7538,2.7536,2.6254,2.595,2.5274,2.378,2.3717,2.4005,2.4577,2.5117,2.5968,2.7267,2.6965,2.7156,2.8119,2.7031,2.6282,2.6016,2.4977,2.3977,2.3055,2.1756,1.9515,1.6396,1.3861,0.9504,0.355,-0.3718,-0.8558,-1.1497,-1.4955,-1.7666,-1.976,-2.1234,-2.2384,-2.3567,-2.6773,-2.9438,-3.1482,-3.1599,-3.2404,-3.3273,-3.25,-2.9283,-2.4691,-1.9407,-1.2455,-0.5264,-0.0275,0.5411,0.0,0.0,0.0,0.0,0.0,0.0,0.0,0.0,3.6157,3.6715,3.9712,4.037,4.0429,4.0435,4.0412,4.0391,4.029,3.9382,3.7703,3.4857,3.4283,3.4389,3.4869,3.4692,3.4506,3.4556,3.0621,2.8138,2.8276,3.0122,3.1213,3.1193,3.1222,3.1222,3.1193,3.1188,3.1358,3.1702,3.0768,3.0479,3.0765,2.8494,2.7158,2.6705,2.6355,2.4778,2.2305,2.2551,2.1729,2.0305,2.173,2.2283,2.2316,2.2569,2.1843,2.063,2.0393,2.063,2.109,0.0,0.0,0.0,0.0,0.0,0.0,0.0,0.0,2.6784,2.5493,2.49,2.4101,2.2789,2.303,2.3879,2.5341,2.5909,2.6249,2.6422,2.6455,2.617,2.5554,2.5197,2.4905,2.4638,2.3857,2.2918,2.1806,2.0162,1.7982,1.5211,1.2144,0.882,0.5185,-0.0315,-0.3783,-0.5733,-1.0275,-1.3197,-1.4929,-1.6492,-1.7898,-1.9072,-1.9798,-2.3307,-2.7846,-2.8407,-2.8944,-2.9303,-2.8386,-2.3558,-1.7084,-1.2121,-0.4056,0.4281,0.8209,1.2203,1.5631,1.7431,2.1969,2.7143,3.0852,3.2592,3.444,0.0,3.8187,3.7716,4.0483,4.1353,4.1614,4.1613,4.1594,4.1478,4.1071,3.9717,3.8223,3.6916,3.4246,3.2414,3.2469,3.1443,3.0717,3.0721,3.0156,3.0099,3.0765,3.1044,3.122,3.12,3.1196,3.1196,3.1183,3.1194,3.1936,3.3473,2.9318,2.7903,2.9248,2.7582,2.6778,2.6647,2.5164,2.3685,2.2358,2.3484,2.3223,2.2007,2.222,2.2293,2.2411,2.3555,2.3876,2.3579,2.244,2.2404,2.2806,0.0,0.0,0.0,0.0,0.0,0.0,0.0,0.0,0.0,2.4204,2.4131,2.3569,2.1814,2.2571,2.3879,2.5564,2.6118,2.6498,2.6862,2.6504,2.6032,2.5475,2.4891,2.4242,2.3543,2.3021,2.2082,2.0667,1.9116,1.7103,1.4663,1.1432,0.8755,0.643,0.1957,-0.1627,-0.4471,-0.6535,-0.9205,-1.2192,-1.3712,-1.4873,-1.58,-1.6505,-1.7868,-1.9733,-2.2129,-2.3137,0.0,-2.0822,-1.5613,-0.9147,-0.3903,0.3233,1.0365,1.3984,1.7301,2.069,2.4568,2.7817,3.0812,3.3925,3.5658,3.7127,3.9338,3.952,3.9591,4.0909,4.1727,4.2404,4.3266,4.2293,4.1112,4.0307,3.8437,3.6557,3.5046,3.3697,3.2674,3.2158,3.1686,3.0888,2.9589,2.9474,2.9583,2.9904,2.9922,2.9902,2.991,3.1702,3.1862,2.997,2.9919,3.0695,3.2265,2.9472,2.8366,2.8973,2.6447,2.5253,2.5226,2.4526,2.3912,2.3442,2.3976,2.3886,2.345,2.3868,2.3787,2.3511,2.4448,2.4856,2.4709,2.3768,2.3586,2.3716,0.0,0.0,0.0,0.0,0.0,0.0,0.0,0.0,0.0,0.0,2.3348,2.2891,2.1471,2.2516,2.403,2.5753,2.6322,2.6747,2.718,2.6719,2.6122,2.5431,2.463,2.3741,2.2695,2.2053,2.0975,1.9391,1.7904,1.6081,1.3932,1.0987,0.8795,0.7079,0.363,0.0224,-0.2983,-0.3657,-0.595,-0.9207,-1.087,-1.1929,-1.2633,-1.3322,-1.328,-1.3411,-1.7534,-1.7902,-1.6055,-1.3124,-0.7653,-0.1304,0.3296,0.9444,1.5598,1.8896,2.1937,2.5183,2.9543,3.1842,3.3629,3.6241,3.8098,3.9526,4.0499,4.0925,4.1324,4.2042,4.2483,4.3061,4.4068,4.2842,4.1222,3.9751,3.7642,3.5645,3.3956,3.3218,3.2836,3.2775,3.2642,3.1984,3.0561,2.9887,2.9445,2.9161,2.9133,2.9151,2.9177,3.1392,3.1546,2.9091,2.9253,2.9466,2.9561,2.8503,2.7979,2.7934,2.5652,2.4534,2.4489,2.4498,2.4543,2.461,2.461,2.4601,2.4592,2.5139,2.5039,2.4611,2.5118,2.5295,2.5244,2.4653,2.4411,2.433,0.0,0.0,0.0,0.0,0.0,0.0,0.0,0.0,0.0,0.0,0.0,0.0,0.0,2.2981,2.4278,2.6026,2.6685,2.6988,2.7018,2.6995,2.6255,2.4699,2.4056,2.3202,2.2152,2.0782,1.9341,1.7879,1.6313,1.4607,1.2704,1.0637,0.8765,0.6981,0.4562,0.2237,0.0122,-0.1815,-0.3548,-0.5203,-0.7448,-0.8689,-0.9271,-0.9258,-0.9792,-1.1164,-1.6362,-1.4205,-0.8573,-0.6203,-0.0329,0.6348,0.8667,1.4362,2.069,2.3258,2.6191,2.8963,3.0556,3.2854,3.5367,3.7757,3.9492,4.1085,4.2893,4.2742,4.274,4.4364,4.4147,4.3591,4.3375,4.3276,4.241,3.9905,3.8112,3.6589,3.5228,3.2979,3.2204,3.4197,3.368,3.3381,3.3886,3.211,3.0526,2.9568,2.9492,2.9532,2.9664,2.9775,2.9568,2.9026,2.9883,2.8772,2.5508,2.5431,2.5408,2.5415,2.5442,2.5393,2.5278,2.528,2.5418,2.564,2.564,2.5571,2.5468,2.5475,2.5474,2.5453,2.5335,2.5297,2.5278,2.5139,2.4985,2.4888,0.0,0.0,0.0,0.0,0.0,0.0,0.0,0.0,0.0,0.0,0.0,0.0,0.0,0.0,0.0,0.0,2.6784,2.6549,2.6311,2.5941,2.5146,2.3858,2.3222,2.2271,2.0938,2.0021,1.8768,1.7124,1.622,1.4736,1.2704,1.115,0.9408,0.7512,0.5378,0.3918,0.2969,0.0257,-0.1172,-0.1842,-0.4826,-0.6954,-0.8372,-0.8387,-0.8293,-0.7822,0.0,-0.3499,-0.2442,0.0697,0.5787,1.1394,1.4677,1.9298,2.4029,2.6625,2.9224,3.1597,3.3055,3.5393,3.7831,3.956,4.0517,4.1273,4.2254,4.2333,4.2374,4.2963,4.2029,4.114,4.1227,4.0196,3.8937,3.7827,3.6146,3.4868,3.4619,3.2938,3.2431,3.4276,3.4789,3.5042,3.5217,3.3916,3.2596,3.1508,3.0887,3.038,2.9994,2.9969,2.9499,2.8445,2.7581,2.6598,2.5437,2.5437,2.5436,2.5432,2.5569,2.5611,2.5568,2.5564,2.5615,2.5693,2.5693,2.5667,2.5632,2.5622,2.5628,2.5626,2.5531,2.551,2.549,2.5394,2.5352,2.5258,0.0,0.0,0.0,0.0,0.0,0.0,0.0,0.0,0.0,0.0,0.0,0.0,0.0,0.0,0.0,0.0,0.0,2.593,2.5681,2.5092,2.433,2.333,2.244,2.1436,2.023,1.9311,1.8018,1.6277,1.5763,1.4661,1.2993,1.1707,1.0226,0.8567,0.6966,0.5774,0.4839,0.2773,0.1191,-0.0211,-0.2322,-0.4341,-0.6169,-0.6918,-0.557,0.0,0.2979,0.4725,0.5058,0.8659,1.2388,1.6078,1.9315,2.3087,2.6733,2.8895,3.0962,3.2863,3.4409,3.6472,3.8531,4.0027,4.0774,4.1335,4.2131,4.2393,4.2486,4.2593,4.1296,4.0179,4.0391,3.9102,3.7635,3.6492,3.5014,3.4084,3.4264,3.2905,3.2887,3.5582,3.6469,3.6972,3.7246,3.6592,3.5332,3.3307,3.2347,3.1534,3.0768,3.0152,2.9399,2.8458,2.6943,2.5939,2.5507,2.5507,2.5492,2.5469,2.5586,2.5648,2.5657,2.5637,2.5637,2.5637,2.5637,2.5637,2.5637,2.5637,2.5637,2.5616,2.5551,2.5527,2.5527,2.5488,2.5469,2.5439,0.0,0.0,0.0,0.0,0.0,0.0,0.0,0.0,0.0,0.0,0.0,0.0,0.0,0.0,0.0,0.0,0.0,0.0,2.5137,2.453,2.3825,2.3075,2.1792,2.0738,1.9967,1.8745,1.7201,1.5393,1.5042,1.4423,1.3477,1.2212,1.1113,1.005,0.9189,0.7753,0.5787,0.5451,0.3285,0.0146,0.0146,-0.0861,-0.2602,-0.4467,-0.1345,0.4453,0.7192,1.0353,1.3641,1.7,1.9062,2.0582,2.2703,2.5773,2.8867,3.0228,3.1584,3.2994,3.4666,3.6131,3.7565,3.9204,4.0248,4.1162,4.2357,4.2659,4.2776,4.305,4.1714,4.0505,4.0583,3.9824,3.8421,3.6115,3.4982,3.4453,3.4555,3.3191,3.3731,3.7968,3.8588,3.9004,3.9883,3.9922,3.8451,3.4959,3.3807,3.2887,3.2005,3.0261,2.9191,2.8953,2.7858,2.6697,2.551,2.549,2.5468,2.5403,2.5461,2.5538,2.5586,2.5508,2.5489,2.5489,2.5489,2.5489,2.5493,2.5493,2.5493,2.5498,2.5428,2.5403,2.5403,2.5403,2.5403,2.5393,0.0,0.0,0.0,0.0,0.0,0.0,0.0,0.0,0.0,0.0,0.0,0.0,0.0,0.0,0.0,0.0,0.0,0.0,2.4513,2.4,2.3292,2.2374,2.1603,2.0548,1.9142,1.8295,1.7363,1.6365,1.5589,1.4744,1.3905,1.2899,1.2023,1.1243,0.9976,0.8325,0.6367,0.4442,0.3156,0.2295,0.2298,0.2058,0.1734,0.2769,0.6766,1.1909,1.226,1.5959,2.0159,1.6874,2.0116,2.5722,2.6785,2.8342,3.0129,3.1977,3.2778,3.3408,3.5094,3.628,3.7288,3.8255,3.8677,3.8871,3.893,3.9492,3.9832,3.9261,3.8317,3.7648,3.7842,3.7811,3.7694,3.7554,3.7469,3.7615,3.8244,3.6883,3.6755,3.9235,3.955,3.9902,4.0781,4.0189,3.9108,3.7515,3.5439,3.3838,3.2918,3.0652,2.9042,2.8354,2.742,2.6462,2.5512,2.5492,2.548,2.5477,2.5496,2.5425,2.5312,2.5292,2.5292,2.5292,2.5292,2.5362,2.5493,2.5493,2.5493,2.5493,2.5488,2.5477,2.5477,2.5477,2.5477,2.5472,0.0,0.0,0.0,0.0,0.0,0.0,0.0,0.0,0.0,0.0,0.0,0.0,0.0,0.0,0.0,0.0,0.0,0.0,0.0,2.3371,2.2636,2.1732,2.0933,1.9957,1.8689,1.8154,1.7328,1.6192,1.5539,1.4664,1.3443,1.2866,1.2332,1.1917,1.1156,0.9567,0.7251,0.5329,0.4482,0.0,0.0,0.5101,0.6063,0.8005,1.1932,1.6643,1.8258,2.2689,2.7539,2.6588,2.8162,3.0599,3.0948,3.1245,3.1702,3.2856,3.2884,3.2845,3.4192,3.4914,3.5545,3.6562,3.6872,3.6933,3.7007,3.7711,3.821,3.7715,3.6887,3.6607,3.768,3.7923,3.805,3.8222,3.8668,3.9262,4.0111,3.8811,3.8559,4.0695,4.0625,4.0422,4.0521,4.0001,3.9146,3.7883,3.5782,3.4152,3.3241,3.0762,2.8964,2.8135,2.7173,2.6378,2.5768,2.5735,2.5726,2.5726,2.536,2.513,2.5022,2.5022,2.5022,2.5022,2.5022,2.5081,2.5186,2.5186,2.5186,2.5186,2.5186,2.5186,2.5186,2.5186,2.5186,2.5177,0.0,0.0,0.0,0.0,0.0,0.0,0.0,0.0,0.0,0.0,0.0,0.0,0.0,0.0,0.0,0.0,0.0,0.0,0.0,0.0,2.1988,2.1186,2.0159,1.9252,1.8454,1.8138,1.7216,1.5678,1.5334,1.4361,1.2787,1.2497,1.2305,1.2311,1.2177,1.07,0.8378,0.7036,0.6441,0.6305,0.6777,0.7848,0.9548,0.0,1.5146,1.9501,2.4217,2.9398,3.4694,3.8955,3.7883,3.4729,3.4523,3.3824,3.3096,3.3125,3.2361,3.1733,3.2742,3.2947,3.3184,3.4547,3.5039,3.5276,3.5694,3.6541,3.7198,3.7098,3.6544,3.6663,3.851,3.8888,3.8882,3.869,3.9334,4.0212,4.1187,4.0064,3.9937,4.2019,4.1496,4.0637,3.9763,3.9377,3.8552,3.7063,3.5321,3.402,3.3232,3.0672,2.8864,2.8009,2.7086,2.6476,2.6255,2.608,2.6004,2.5985,2.5186,2.479,2.476,2.476,2.476,2.476,2.476,2.4775,2.4804,2.4804,2.4804,2.4804,2.4804,2.4804,2.4804,2.4804,2.4804,2.4804,0.0,0.0,0.0,0.0,0.0,0.0,0.0,0.0,0.0,0.0,2.2973,2.3533,0.0,0.0,0.0,0.0,0.0,0.0,0.0,0.0,0.0,2.074,1.9835,1.8986,1.8093,1.8037,1.7503,1.6428,1.559,1.4601,1.3509,1.2684,1.2305,1.2231,1.1453,1.0338,0.9042,0.7974,0.7045,0.6433,0.7525,0.8458,0.9585,1.3228,0.0,0.0,2.7238,3.3333,3.8457,3.8285,3.7559,3.6544,3.5586,3.4257,3.2992,3.2822,3.1713,3.0843,3.2232,3.2077,3.1799,3.3001,3.3608,3.377,3.319,3.4498,3.5631,3.4921,3.5731,3.6756,3.7353,3.8132,3.9084,4.0326,4.0986,4.1855,4.3335,4.2969,4.2448,4.2169,4.137,4.0519,3.9708,3.8054,3.6909,3.6619,3.4722,3.3455,3.3121,3.0482,2.848,2.7386,2.7176,2.7055,2.7016,2.634,2.6004,2.5985,2.5186,2.4716,2.4543,2.4543,2.4543,2.4543,2.4543,2.4639,2.4804,2.4804,2.4804,2.4804,2.4804,2.4804,2.4804,2.4804,2.4804,2.4804,0.0,0.0,0.0,0.0,0.0,0.0,0.0,2.2936,2.2748,2.1767,2.2668,2.3447,2.3537,2.3649,2.4037,0.0,0.0,0.0,0.0,0.0,0.0,0.0,1.9497,1.8911,1.8008,1.7501,1.6958,1.6251,0.0,1.4078,1.3356,1.2663,1.2305,1.2305,1.1768,1.072,0.9296,0.877,0.776,0.6541,0.7801,0.9287,1.116,0.0,0.0,0.0,3.1273,3.4929,3.7426,3.7779,3.6783,3.543,3.5725,3.4532,3.2808,3.1827,3.0546,2.9566,3.0273,3.0448,3.0716,3.195,3.2455,3.2569,3.2423,3.3183,3.3829,3.3382,3.4302,3.536,3.6066,3.7202,3.8471,3.9829,4.1209,4.2589,4.3957,4.3939,4.3449,4.2616,4.1707,4.0435,3.8582,3.744,3.6476,3.5637,3.4226,3.3355,3.3249,3.0715,2.8768,2.7696,2.766,2.7624,2.7511,2.712,2.684,2.6608,2.5429,2.4686,2.4384,2.4185,2.4098,2.4098,2.4266,2.441,2.4495,2.4495,2.4495,2.4495,2.4495,2.4495,2.4495,2.4495,2.4495,2.4495,0.0,0.0,0.0,0.0,0.0,0.0,0.0,2.2733,2.263,2.1303,2.2021,2.2894,2.3632,2.3903,2.4515,0.0,0.0,0.0,0.0,0.0,0.0,0.0,0.0,0.0,1.7716,0.0,0.0,1.5532,1.4355,0.0,0.0,0.0,0.0,0.0,1.2305,1.1174,0.9296,0.9296,0.8322,0.0,0.0,1.0796,1.3712,0.0,0.0,0.0,0.0,3.5062,3.522,3.6687,3.5558,3.3719,3.4812,3.398,3.2281,3.0541,2.9547,2.8941,2.8616,2.915,3.008,3.1204,3.1679,3.1923,3.2196,3.2493,3.2679,3.2519,3.3119,3.4015,3.5091,3.6172,3.7352,3.8708,4.0435,4.2178,4.379,4.3948,4.3717,4.3173,4.2066,4.0404,3.8004,3.7156,3.623,3.4969,3.402,3.3285,3.2821,3.0903,2.9364,2.8327,2.8307,2.8181,2.7935,2.7771,2.7482,2.7087,2.5685,2.4772,2.4307,2.4147,2.3907,2.3628,2.4099,2.4238,2.4094,2.417,2.419,2.419,2.419,2.419,2.419,2.419,2.419,2.419,0.0,0.0,0.0,0.0,0.0,0.0,0.0,2.1467,2.1327,1.9812,2.0112,2.0771,2.1384,2.2989,2.4217,0.0,0.0,0.0,0.0,0.0,0.0,0.0,0.0,0.0,0.0,0.0,0.0,1.4372,1.4253,0.0,0.0,0.0,0.0,0.0,0.0,1.1174,0.9296,0.9296,0.0,0.0,0.0,0.0,0.0,0.0,0.0,0.0,0.0,3.364,3.4083,3.4227,3.3724,3.2895,3.2303,3.176,3.0995,2.9154,2.9425,3.0044,2.8698,2.9212,3.0276,3.075,3.1651,3.229,3.1877,3.2668,3.3315,3.2626,3.3119,3.3949,3.4694,3.4976,3.5699,3.7703,3.8469,3.9853,4.2937,4.3369,4.3445,4.3708,4.2025,4.0434,3.941,3.7084,3.5589,3.544,3.4407,3.2908,3.0958,3.0644,3.0015,2.8952,2.8911,2.8735,2.8337,2.7615,2.7079,2.6747,2.5853,2.5031,2.4317,2.5014,2.4569,2.3312,2.4316,2.436,2.3774,2.4074,2.419,2.419,2.419,2.419,2.419,2.419,2.419,2.419,0.0,0.0,0.0,0.0,0.0,0.0,2.1449,2.1499,2.0953,1.9275,1.9618,2.0161,2.0432,2.2418,2.4025,2.4888,0.0,0.0,0.0,0.0,0.0,0.0,0.0,0.0,0.0,0.0,1.5405,1.4163,1.3767,0.0,0.0,0.0,0.0,0.0,0.0,1.1702,1.019,1.019,0.0,0.0,0.0,0.0,0.0,0.0,0.0,0.0,0.0,0.0,3.3125,3.3597,3.2723,3.1452,3.1518,3.1172,3.05,2.9015,2.8824,2.9006,2.8828,2.9355,3.022,3.1422,3.128,3.115,3.2413,3.2418,3.2076,3.1783,3.2317,3.2959,3.3252,3.3532,3.4391,3.6453,3.7911,3.963,4.1968,4.2845,4.3226,4.3205,4.223,4.0874,3.9185,3.8044,3.6693,3.4971,3.3719,3.2427,3.1083,3.1291,3.0805,2.9403,2.9115,2.8721,2.8102,2.7781,2.7447,2.7046,2.6295,2.5611,2.5067,2.4691,2.4444,2.4296,2.4445,2.4604,2.4788,2.4927,2.4974,2.492,2.4459,2.4262,2.4231,2.3997,2.3896,2.3917,0.0,0.0,0.0,0.0,0.0,2.1386,2.0867,2.0755,2.0128,1.8419,1.8533,1.8927,1.9272,2.1203,2.2808,2.3833,2.4261,0.0,0.0,0.0,0.0,0.0,0.0,0.0,0.0,0.0,1.4872,1.4007,1.3543,1.334,0.0,0.0,1.3126,1.2822,0.0,0.0,0.0,0.0,0.0,0.0,0.0,0.0,0.0,0.0,0.0,0.0,0.0,0.0,0.0,0.0,0.0,3.0575,3.1025,3.0533,2.9689,2.8779,2.8746,2.8914,2.8767,2.9124,2.987,3.1435,3.0708,3.0227,3.2444,3.2093,3.1227,3.1202,3.1782,3.2381,3.2577,3.3089,3.4077,3.6037,3.7774,3.9476,4.1126,4.2263,4.2849,4.2678,4.2312,4.1269,3.9125,3.8289,3.6866,3.4393,3.3339,3.24,3.1491,3.1767,3.1166,2.9466,2.9147,2.86,2.7725,2.7707,2.75,2.7115,2.6599,2.6082,2.5575,2.5005,2.4763,2.4844,2.4836,2.5024,2.5366,2.5447,2.55,2.5447,2.4882,2.4494,2.4279,2.3968,2.3804,2.3735,0.0,0.0,0.0,0.0,0.0,0.0,1.8967,1.8819,1.844,1.7025,1.6428,1.651,1.7602,1.8976,2.0262,2.1356,2.3606,0.0,0.0,0.0,0.0,0.0,0.0,0.0,0.0,0.0,1.4259,1.3634,1.3634,1.3641,1.3641,1.3641,1.332,1.2822,0.0,0.0,0.0,0.0,0.0,0.0,0.0,0.0,0.0,0.0,0.0,0.0,0.0,0.0,0.0,0.0,0.0,0.0,0.0,2.9528,2.8295,2.8139,2.944,3.0529,2.8405,2.8334,2.9182,3.0335,3.0087,2.9912,3.1531,3.1644,3.1364,3.1207,3.1782,3.251,3.3254,3.3981,3.5061,3.6879,3.7866,3.8974,4.0573,4.1662,4.2298,4.23,4.2303,4.1558,3.9665,3.7312,3.5332,3.3808,3.3632,3.3055,3.1842,3.1808,3.0924,2.9071,2.9001,2.8451,2.7334,2.7303,2.7115,2.6691,2.6691,2.6302,2.5625,2.6336,2.5895,2.454,2.5639,2.5668,2.5034,2.5366,2.55,2.55,2.55,2.5006,2.4282,2.4307,2.4046,2.3692,0.0,0.0,0.0,0.0,0.0,0.0,0.0,1.8672,1.7509,1.5771,1.5411,1.5606,1.6331,1.9033,2.0948,2.1345,2.2077,0.0,0.0,0.0,0.0,0.0,0.0,0.0,0.0,0.0,1.4166,1.3347,1.3347,1.3347,1.3353,1.4335,1.4518,1.4197,1.5173,1.5227,0.0,0.0,0.0,0.0,0.0,0.0,2.9954,0.0,0.0,0.0,0.0,0.0,0.0,0.0,0.0,0.0,0.0,0.0,0.0,2.8887,2.881,2.8722,2.7863,2.7603,2.7713,2.8075,2.7664,2.7694,2.9319,3.0183,3.0615,3.0609,3.1909,3.3119,3.3372,3.3871,3.4874,3.6596,3.7269,3.838,4.0673,4.1548,4.2257,4.3021,4.3108,4.2201,3.9801,3.8504,3.7325,3.6204,3.3515,3.1781,3.1421,3.1402,3.0999,3.019,2.9402,2.8545,2.7657,2.7129,2.6825,2.6691,2.6691,2.6573,2.6336,2.6065,2.5964,2.5981,2.5839,2.5904,2.6175,2.6285,2.6316,2.6265,2.5767,2.5407,2.5163,2.4871,2.4689,2.4611,0.0,0.0,0.0,0.0,0.0,0.0,0.0,1.7313,1.614,1.4486,1.4662,1.5217,1.5873,1.8881,2.0839,2.0862,2.1291,0.0,0.0,0.0,0.0,0.0,0.0,0.0,0.0,1.4706,1.433,1.3493,1.3988,1.4207,1.4029,1.5101,1.5382,1.5148,1.6179,1.6436,0.0,0.0,0.0,0.0,0.0,0.0,3.0807,0.0,0.0,0.0,0.0,0.0,0.0,0.0,0.0,0.0,0.0,0.0,0.0,0.0,2.8234,2.7352,2.6947,2.6602,2.6348,2.6488,2.6079,2.6153,2.7963,2.9189,3.0103,3.0596,3.2009,3.3254,3.3633,3.4252,3.5061,3.6114,3.6956,3.8188,4.0194,4.1594,4.2549,4.2847,4.2857,4.2243,4.0584,3.8649,3.7438,3.7207,3.45,3.2367,3.1271,3.1213,3.0938,3.0347,2.9634,2.8636,2.738,2.6928,2.6691,2.6691,2.6691,2.6691,2.6674,2.6218,2.6268,2.6674,2.6218,2.6285,0.0,2.6691,2.6691,2.664,2.6184,2.5845,2.5573,2.5299,2.5119,2.5034,0.0,0.0,0.0,0.0,0.0,0.0,0.0,1.5152,1.4527,1.3247,1.4104,1.5158,1.6178,1.8822,2.036,2.0017,0.0,0.0,0.0,0.0,0.0,0.0,0.0,0.0,1.4351,1.4844,1.4773,1.4096,1.5336,1.5756,1.5373,1.5847,1.5997,1.588,1.6221,1.6363,0.0,0.0,0.0,0.0,0.0,0.0,0.0,0.0,0.0,0.0,0.0,0.0,0.0,0.0,0.0,0.0,0.0,0.0,0.0,0.0,0.0,0.0,0.0,2.5373,2.5077,2.546,2.5151,2.528,2.7248,2.8622,0.0,3.1063,3.2117,3.3093,3.3957,3.4931,3.5591,3.5576,3.6999,3.8372,3.9301,4.2192,4.3576,4.1859,4.1695,4.1665,4.1693,3.8074,3.6135,3.7022,3.6052,3.4184,3.1355,3.1213,3.0762,2.9825,2.9675,2.8706,2.6803,2.6708,2.6691,2.6691,2.6691,2.6691,2.6691,2.6691,2.6691,2.6691,2.6691,2.6691,2.6691,2.6691,2.6691,2.6691,2.6691,2.6251,2.5609,2.5659,2.5405,2.5034,0.0,0.0,0.0,0.0,0.0,0.0,0.0,0.0,0.0,0.0,1.3962,1.5355,1.6727,1.9648,2.137,0.0,0.0,0.0,0.0,0.0,0.0,0.0,0.0,0.0,1.5575,1.5479,1.5426,1.5184,1.5356,1.5369,1.5287,1.6102,1.7171,1.8398,1.8514,1.9319,0.0,0.0,0.0,0.0,0.0,0.0,0.0,0.0,0.0,0.0,2.9961,2.9204,0.0,0.0,0.0,0.0,0.0,0.0,0.0,0.0,2.8074,2.7354,2.5987,0.0,2.4725,2.3689,2.442,2.555,0.0,2.8261,3.0277,3.031,3.2197,3.3799,3.362,3.4699,3.5623,3.561,3.7827,3.969,3.9891,4.6275,4.8312,4.1329,4.0526,4.0511,4.0499,3.8603,3.6962,3.6056,3.4694,3.3128,3.1275,3.1217,3.1089,3.083,2.934,2.8207,2.7568,2.6962,2.6691,2.6691,2.6691,2.6691,2.6691,2.6691,2.6691,2.6691,2.6691,2.6691,2.6691,2.6691,2.6691,2.6691,2.6691,2.6251,2.5676,2.6234,2.6029,2.5533,0.0,0.0,0.0,0.0,0.0,0.0,0.0,0.0,0.0,0.0,0.0,0.0,0.0,0.0,0.0,0.0,0.0,0.0,0.0,0.0,0.0,0.0,0.0,1.6987,1.6195,1.6613,1.6839,1.6927,1.7406,1.7378,1.6812,1.7899,1.8889,1.9676,2.0082,2.0872,0.0,0.0,0.0,0.0,2.9875,0.0,0.0,0.0,0.0,0.0,2.9648,2.8839,0.0,2.7435,2.7365,2.7739,0.0,0.0,0.0,0.0,2.8355,2.7886,2.747,2.676,2.5902,2.4834,2.5735,2.6918,2.7026,2.892,3.0692,3.0742,3.1832,3.3158,3.4201,3.7339,3.9627,3.9289,3.9721,4.0078,4.0099,4.4774,4.6191,4.0735,3.9486,3.9106,3.9118,3.8363,3.7253,3.5719,3.4851,3.3457,3.1316,3.1197,3.101,3.0543,2.8996,2.8138,2.7971,2.713,2.6691,2.6691,2.6691,2.6877,2.7199,2.6843,2.6877,2.7147,2.6621,2.6505,2.6691,2.6487,2.6521,2.6691,2.6691,2.6251,2.5693,2.642,2.6234,2.571,0.0,0.0,0.0,0.0,0.0,0.0,0.0,0.0,0.0,0.0,0.0,0.0,0.0,0.0,0.0,0.0,0.0,0.0,0.0,0.0,0.0,0.0,0.0,1.7657,1.6989,1.8184,1.8895,1.8985,2.0056,1.9909,1.8721,1.9684,2.0139,2.016,2.1161,2.2039,0.0,0.0,0.0,0.0,3.0792,0.0,0.0,0.0,0.0,0.0,0.0,0.0,0.0,2.7112,2.6677,2.6756,2.7515,0.0,0.0,0.0,0.0,0.0,2.9673,2.9351,2.8526,2.7584,2.8272,2.9204,2.9492,3.063,3.1746,3.2221,3.2362,3.3415,3.6574,4.1357,4.4675,4.4278,4.2658,4.1288,4.0745,4.1453,4.1512,4.0248,3.8991,3.8221,3.8252,3.8012,3.7337,3.6051,3.5514,3.4176,3.1666,3.1307,3.079,2.9981,2.8861,2.8323,2.8323,2.7249,2.6691,2.6691,2.681,2.7199,2.7772,2.7283,2.7385,2.7924,2.6762,2.6499,2.6826,2.6312,2.6332,2.6691,2.6691,2.6251,2.5693,2.6302,2.6133,2.571,0.0,0.0,0.0,0.0,0.0,0.0,0.0,0.0,0.0,0.0,0.0,0.0,0.0,0.0,0.0,0.0,0.0,0.0,0.0,0.0,0.0,2.0896,1.9712,1.9316,1.977,2.0692,2.1174,2.1198,2.0665,2.0018,1.9183,1.8314,1.8665,2.016,2.187,2.3804,2.5644,0.0,0.0,0.0,3.183,0.0,0.0,0.0,0.0,0.0,0.0,0.0,0.0,2.7505,2.7051,2.6789,2.7975,0.0,0.0,0.0,0.0,0.0,3.1676,3.3131,3.3728,3.0998,3.1457,3.2639,3.2982,3.4006,3.5013,3.5415,3.688,3.9345,4.3531,4.5088,4.6099,4.7366,4.7543,4.6572,4.3803,4.1681,4.0323,4.012,3.9902,3.9749,3.9778,3.8614,3.7821,3.757,3.5182,3.3541,3.3086,3.1894,3.1117,3.0987,2.9617,2.889,2.889,2.7435,2.6691,2.6708,2.7334,2.7671,2.7806,2.8383,2.8687,2.8755,2.7906,2.7568,2.757,2.6894,2.6624,2.6691,2.6691,2.6251,2.5625,2.5744,2.571,2.571,0.0,0.0,0.0,0.0,0.0,0.0,0.0,0.0,0.0,0.0,0.0,0.0,0.0,0.0,0.0,0.0,0.0,0.0,0.0,0.0,0.0,2.2855,2.312,2.3097,2.2714,2.2857,2.2979,2.3088,2.1611,2.0087,1.8501,1.8102,1.8755,2.0424,2.2169,2.4155,2.6345,2.6768,0.0,0.0,0.0,0.0,0.0,0.0,0.0,0.0,0.0,0.0,0.0,0.0,2.6763,2.6719,2.7862,0.0,0.0,0.0,0.0,0.0,3.3294,3.4862,3.6082,3.5945,3.624,3.6717,3.7339,3.7737,3.8245,3.9212,4.0141,4.1866,4.5257,4.7368,4.879,4.9519,4.8702,4.7069,4.4628,4.2489,4.0895,4.0206,4.0088,3.9935,3.9559,3.8529,3.7736,3.733,3.525,3.3829,3.3423,3.2374,3.1596,3.1207,3.0159,2.9397,2.9011,2.8281,2.7706,2.73,2.762,2.8228,2.9059,2.9008,2.9211,2.9516,2.8062,2.7559,2.7722,2.6754,2.647,2.6691,2.6691,2.6251,2.5609,2.5609,2.5862,2.6234,0.0,0.0,0.0,0.0,0.0,0.0,0.0,0.0,0.0,0.0,0.0,0.0,0.0,0.0,0.0,0.0,0.0,0.0,0.0,0.0,2.4099,2.5265,2.693,2.6963,2.5134,2.4679,2.4459,2.4441,2.2165,1.9771,1.7349,1.7527,1.8526,2.0419,2.1892,2.4107,2.6827,2.7706,2.9935,0.0,0.0,0.0,0.0,0.0,0.0,0.0,0.0,0.0,0.0,0.0,0.0,0.0,0.0,0.0,0.0,3.1115,3.2086,3.2787,3.4644,3.6085,3.7574,3.9698,3.9865,3.9892,4.1411,4.1317,4.1397,4.3061,4.3259,4.3745,4.5709,4.8077,4.9824,5.0138,4.8229,4.631,4.5117,4.3332,4.1694,4.0477,4.0189,3.9783,3.9056,3.8328,3.7601,3.684,3.5351,3.4252,3.3694,3.278,3.2019,3.1461,3.0412,2.9567,2.9028,2.8805,2.8416,2.7789,2.8161,2.8975,3.0091,2.9685,2.9719,2.9985,2.8302,2.7654,2.7722,2.6597,2.6367,2.6691,2.6691,2.6251,2.5625,2.5795,2.6116,2.6471,0.0,0.0,0.0,0.0,0.0,0.0,0.0,0.0,0.0,0.0,0.0,0.0,0.0,0.0,0.0,0.0,0.0,0.0,0.0,0.0,2.701,2.8836,3.0522,2.9809,2.6352,2.606,2.5575,2.4858,2.1781,1.8669,1.5652,1.5497,1.6927,1.9617,2.0811,2.3822,2.8112,2.9327,3.1655,3.4457,0.0,0.0,0.0,0.0,0.0,0.0,0.0,0.0,0.0,0.0,0.0,0.0,0.0,0.0,2.9685,3.1755,3.2875,3.3873,3.5702,3.7432,3.9028,4.0327,4.0358,4.0959,4.444,4.4403,4.4319,4.6781,4.6747,4.6321,4.6526,4.6544,4.6971,4.8284,4.689,4.5798,4.6277,4.4023,4.2001,4.1204,4.051,3.9783,3.9056,3.8328,3.7601,3.684,3.5351,3.4472,3.4421,3.3051,3.2256,3.2205,3.0197,2.9025,2.9011,2.8264,2.784,2.7806,2.9262,3.0006,3.0125,3.0751,3.07,3.0057,2.9208,2.8448,2.7722,2.6978,2.6657,2.6691,2.6691,2.6251,2.5693,2.637,2.6218,2.5795,0.0,0.0,0.0,0.0,0.0,0.0,0.0,0.0,0.0,0.0,0.0,0.0,0.0,0.0,0.0,0.0,0.0,0.0,0.0,2.7016,2.8418,3.012,3.1833,3.1692,2.9519,2.7641,2.5951,2.4388,1.9342,1.6148,1.4757,1.5141,1.6747,1.9261,2.1468,2.4378,2.7686,2.9407,3.1402,3.3409,3.3518,0.0,0.0,0.0,0.0,0.0,0.0,0.0,0.0,0.0,2.9152,2.9262,3.0911,3.1127,3.1155,3.3227,3.4167,3.4903,3.6633,3.847,4.0252,4.1812,4.245,4.3246,4.5268,4.6198,4.6735,4.7127,4.7628,4.7834,4.7386,4.7408,4.7853,4.8909,4.7016,4.547,4.5797,4.3368,4.1339,4.0595,3.9851,3.9292,3.9022,3.7905,3.7094,3.6806,3.4945,3.3829,3.3829,3.2408,3.1613,3.1613,3.0784,2.9922,2.8991,2.96,2.9211,2.7806,2.8907,2.9651,3.0108,2.9905,2.9668,2.9364,2.8586,2.8095,2.7722,2.6996,2.6691,2.6691,2.6691,2.6522,2.6319,2.659,2.6522,2.6319,0.0,0.0,0.0,0.0,0.0,0.0,0.0,0.0,0.0,0.0,0.0,0.0,0.0,0.0,0.0,0.0,0.0,0.0,2.6444,2.7985,2.9627,3.1448,3.2876,3.3158,3.2115,2.8955,2.6348,2.4389,1.8307,1.5051,1.4488,1.5091,1.6745,1.9332,2.1744,2.4595,2.7684,2.9445,3.1357,3.3242,3.3501,3.4121,0.0,0.0,0.0,0.0,0.0,0.0,0.0,0.0,3.0482,3.0733,3.2162,3.2404,3.246,3.396,3.5115,3.6152,3.7383,3.9279,4.12,4.2393,4.3701,4.4963,4.5935,4.7225,4.8243,4.8279,4.8372,4.823,4.7289,4.6985,4.7085,4.7727,4.6014,4.4589,4.4389,4.2561,4.0933,4.0172,3.9428,3.8903,3.8667,3.7297,3.6315,3.6079,3.4404,3.3406,3.3406,3.2222,3.1546,3.1546,3.1089,3.0362,2.9347,3.0345,2.9956,2.8197,2.8558,2.9117,2.9736,2.9211,2.8839,2.8586,2.8061,2.7654,2.7418,2.6911,2.6691,2.6691,2.6691,2.6691,2.6691,2.6691,2.6691,2.6691,0.0,0.0,0.0,0.0,0.0,0.0,0.0,0.0,0.0,0.0,0.0,0.0,0.0,0.0,0.0,0.0,0.0,0.0,2.751,2.8997,3.0858,3.3195,3.3913,3.4129,3.3807,2.9849,2.6823,2.4942,1.9189,1.5888,1.4907,1.5138,1.6872,1.9897,2.1399,2.4403,2.8441,2.9546,3.1756,3.4477,3.3801,3.4378,3.5531,0.0,0.0,0.0,0.0,0.0,0.0,0.0,3.2205,3.247,3.2753,3.3116,3.3488,3.3753,3.5634,3.7655,3.7943,3.9873,4.1816,4.1816,4.3739,4.5855,4.6721,4.7528,4.8721,5.0832,4.9419,4.7396,4.6139,4.476,4.3826,4.3906,4.35,4.2964,4.2285,4.1612,4.0916,4.0155,3.9428,3.87,3.7956,3.6502,3.5301,3.4539,3.3812,3.3389,3.3389,3.2679,3.2313,3.2313,3.0869,3.0125,3.0108,3.0125,2.9736,2.8975,2.846,2.8498,2.9011,2.8975,2.8535,2.7772,2.7772,2.7385,2.6691,2.6691,2.6691,2.6691,2.6691,2.6691,2.6691,2.6691,2.6691,2.6691,0.0,0.0,0.0,0.0,0.0,0.0,0.0,0.0,0.0,0.0,0.0,0.0,0.0,0.0,0.0,0.0,0.0,0.0,2.8439,2.9677,3.1139,3.2792,3.3206,3.3321,3.319,2.8388,2.4248,2.0917,1.8195,1.6891,1.692,1.8107,1.9563,2.1296,2.3834,2.577,2.7311,2.9636,3.1149,3.2144,3.3594,3.446,3.488,0.0,0.0,0.0,0.0,0.0,0.0,0.0,0.0,0.0,3.5059,3.547,3.5745,3.5825,3.7241,3.8812,3.8877,4.0777,4.2854,4.3412,4.547,4.7338,4.7329,4.82,4.9198,4.9903,4.7867,4.5955,4.5918,4.5077,4.4326,4.3963,4.297,4.2226,4.2223,4.1167,4.0138,3.9394,3.8667,3.7719,3.6434,3.5402,3.4523,3.3778,3.3034,3.2611,3.2611,3.1918,3.1512,3.1512,3.1106,3.0632,3.0125,3.0615,3.0226,2.8991,2.9349,2.9029,2.8146,2.7286,2.6954,2.7029,2.7029,2.6894,2.6691,2.6691,2.6691,2.6691,2.6691,2.6691,2.6691,2.6691,2.6691,2.6691,0.0,0.0,0.0,0.0,0.0,0.0,0.0,0.0,0.0,0.0,0.0,0.0,0.0,0.0,0.0,0.0,0.0,0.0,0.0,3.032,3.1477,3.25,3.3153,3.2755,3.1214,2.7529,2.3844,2.0333,1.8744,1.8093,1.848,2.0004,2.1604,2.3284,2.4869,2.6236,2.7476,2.8858,2.9878,3.0723,3.251,3.3464,3.4028,0.0,0.0,0.0,0.0,0.0,0.0,0.0,0.0,0.0,3.6755,3.7091,3.7276,3.7623,3.895,4.0373,4.0719,4.2662,4.4739,4.522,4.699,4.8414,4.7701,4.7891,4.8213,4.8294,4.6557,4.5075,4.535,4.4764,4.3962,4.3202,4.2365,4.171,4.1423,4.0387,3.9613,3.9442,3.8004,3.6869,3.6531,3.4762,3.3516,3.3143,3.2347,3.185,3.185,3.1427,3.119,3.119,3.119,3.0987,3.0548,3.097,3.0446,2.8991,2.953,2.8925,2.7368,2.692,2.6721,2.6691,2.6691,2.686,2.7114,2.6826,2.686,2.7114,2.681,2.6691,2.6691,2.6691,2.6691,2.6691,0.0,0.0,0.0,0.0,0.0,0.0,0.0,0.0,0.0,0.0,1.9772,0.0,0.0,0.0,0.0,0.0,0.0,0.0,0.0,0.0,3.1929,3.2416,3.3433,3.2347,2.8771,2.7026,2.484,2.2189,2.037,1.9583,1.9868,2.1324,2.3223,2.5354,2.5096,2.6298,2.8403,2.7683,2.8373,3.001,3.0913,3.1914,3.3072,3.4745,0.0,0.0,0.0,0.0,0.0,0.0,0.0,0.0,3.7855,3.812,3.8389,3.915,4.0611,4.2148,4.2912,4.4893,4.6797,4.6894,4.8106,4.8948,4.7674,4.6817,4.6248,4.6363,4.5441,4.4617,4.469,4.3975,4.2996,4.1855,4.1633,4.1209,4.005,3.9309,3.9105,3.9742,3.7305,3.6129,3.7449,3.438,3.2398,3.2666,3.1755,3.119,3.119,3.119,3.119,3.119,3.119,3.119,3.1112,3.1123,3.0412,2.9039,2.9176,2.8398,2.6826,2.7433,2.7367,2.6691,2.6691,2.708,2.7672,2.6979,2.7097,2.7638,2.6962,2.6691,2.6691,2.6691,2.6691,2.6691,0.0,0.0,0.0,0.0,0.0,0.0,0.0,0.0,0.0,0.0,0.0,0.0,0.0,0.0,0.0,0.0,0.0,0.0,0.0,0.0,3.2312,3.3511,3.2859,3.1512,2.9419,2.6015,2.4048,2.3636,2.1988,2.1594,2.2551,2.4313,2.5432,2.6,2.7428,2.7771,2.7323,2.8223,2.8655,2.8921,3.0936,3.1854,3.2347,3.4826,3.5989,0.0,0.0,0.0,0.0,0.0,0.0,0.0,3.818,3.915,4.016,3.9986,4.1571,4.333,4.315,4.4451,4.6028,4.674,4.7723,4.8045,4.6196,4.543,4.5137,4.5443,4.4539,4.3956,4.458,4.3534,4.2176,4.1113,4.0394,3.9631,3.8537,3.8244,3.7956,3.7577,3.6366,3.5487,3.528,3.3431,3.233,3.2381,3.163,3.119,3.119,3.119,3.119,3.119,3.119,3.0975,3.0518,3.0404,2.995,2.9135,2.908,2.8527,2.7553,2.7331,2.7033,2.6691,2.6691,2.6793,2.6911,2.6759,2.6793,2.6911,2.6759,2.6691,2.6691,2.6691,2.6691,2.6691,0.0,0.0,0.0,0.0,0.0,0.0,0.0,0.0,0.0,0.0,0.0,0.0,0.0,0.0,0.0,0.0,0.0,0.0,0.0,0.0,3.2913,3.39,3.2693,3.0989,2.879,2.6352,2.5039,2.4902,2.4697,2.4555,2.4521,2.6636,2.7832,2.8315,2.8456,2.8519,2.8462,2.8359,2.8159,2.8066,3.0223,3.1093,3.1423,3.4566,3.6077,3.6667,3.7849,0.0,0.0,0.0,0.0,0.0,0.0,0.0,4.1405,4.1575,4.2553,4.3646,4.3961,4.4978,4.6147,4.7029,4.7289,4.6978,4.5597,4.4809,4.4354,4.4369,4.3907,4.3626,4.4048,4.313,4.1939,4.0864,4.0046,3.914,3.8061,3.7601,3.7077,3.6315,3.5233,3.4404,3.4015,3.2628,3.1975,3.2473,3.1704,3.119,3.119,3.0869,3.0666,3.0666,3.0666,3.0364,2.9705,2.9955,2.9568,2.8531,2.8864,2.8569,2.7772,2.719,2.684,2.6691,2.6691,2.6894,2.7199,2.6843,2.6911,2.7199,2.6843,2.6691,2.6691,2.6691,2.6691,2.6691,0.0,0.0,0.0,0.0,0.0,0.0,0.0,0.0,0.0,0.0,0.0,0.0,0.0,0.0,0.0,0.0,0.0,0.0,0.0,0.0,0.0,3.378,3.2414,3.0501,2.8046,2.7174,2.65,2.6031,2.737,2.7561,2.6776,2.8796,3.0056,3.0573,2.9389,2.9307,3.002,2.8829,2.8197,2.8099,2.9917,3.0689,3.1029,3.4335,3.5878,3.6486,3.7973,3.8579,3.8768,3.9128,0.0,0.0,0.0,0.0,4.2205,4.2998,4.3307,4.3648,4.4729,4.5601,4.6382,4.711,4.6701,4.5937,4.5182,4.4426,4.3836,4.3582,4.3497,4.3497,4.3497,4.264,4.1632,4.0691,3.9646,3.8611,3.7623,3.6975,3.6299,3.552,3.4235,3.3406,3.3406,3.207,3.1602,3.254,3.1738,3.119,3.119,3.0497,3.0176,3.0294,3.004,2.9631,2.905,2.9495,2.9003,2.7631,2.8296,2.8247,2.757,2.6979,2.6691,2.6691,2.6691,2.7046,2.7571,2.6945,2.7063,2.7571,2.6945,2.6691,2.6691,2.6691,2.6691,2.6691,0.0,0.0,0.0,0.0,0.0,0.0,0.0,0.0,0.0,0.0,2.7345,0.0,0.0,0.0,0.0,0.0,0.0,0.0,3.0867,0.0,0.0,3.2957,3.1287,2.987,2.885,2.7493,2.6862,2.7001,2.851,2.9682,3.049,3.1446,3.1341,3.0423,3.1671,3.128,2.9749,3.0801,3.0986,3.0699,3.2019,3.241,3.2441,3.4685,3.5826,3.6413,3.7312,3.8102,3.8799,3.954,3.9866,0.0,0.0,0.0,4.2332,4.275,4.3359,4.4015,4.4516,4.5243,4.5885,4.5999,4.5726,4.5151,4.4011,4.3655,4.3529,4.3513,4.3497,4.3497,4.3497,4.1885,4.0401,3.985,3.8088,3.6602,3.6,3.5842,3.5487,3.4742,3.3914,3.3406,3.3406,3.207,3.1512,3.2313,3.163,3.119,3.119,3.0497,3.0395,3.1021,2.9803,2.9177,2.9178,2.8485,2.7743,2.7015,2.7024,2.6945,2.6843,2.6742,2.6691,2.6691,2.6691,2.6759,2.6843,2.6742,2.6759,2.6843,2.6725,2.6691,2.6691,2.6691,2.6691,2.6691,0.0,0.0,0.0,0.0,0.0,0.0,0.0,0.0,0.0,0.0,0.0,2.8905,0.0,0.0,0.0,2.9872,2.9312,2.9245,2.9871,3.0977,3.1532,3.1346,3.017,2.9339,2.8934,2.8894,2.9157,2.9678,3.065,3.194,3.3506,3.3572,3.3268,3.2723,3.3009,3.2746,3.2124,3.2331,3.2076,3.1656,3.2826,3.3088,3.2991,3.4989,3.6056,3.6619,3.7461,3.8151,3.8817,3.9625,4.0194,4.0708,4.1534,0.0,0.0,0.0,4.343,4.3804,4.4146,4.471,4.5081,4.4843,4.4688,4.4371,4.3637,4.3497,4.3497,4.3497,4.325,4.305,4.305,4.156,4.0036,3.923,3.7596,3.6069,3.5135,3.4979,3.4556,3.3389,3.2966,3.278,3.278,3.1816,3.1495,3.2222,3.1613,3.1021,3.0615,2.9871,2.9431,2.9313,2.867,2.8157,2.7805,2.7784,2.7448,2.6799,2.6741,2.6691,2.6691,2.6691,2.6691,2.6691,2.6691,2.6691,2.6691,2.6691,2.6691,2.6691,2.6691,2.6691,2.6691,2.6691,2.6691,2.6691,0.0,0.0,0.0,0.0,0.0,0.0,0.0,0.0,0.0,0.0,0.0,0.0,0.0,0.0,0.0,0.0,2.8983,2.8555,2.9206,2.9791,3.007,2.9867,2.9475,2.9255,2.915,3.042,3.1132,3.1356,3.2104,3.3125,3.4428,3.4326,3.4276,3.4261,3.4043,3.4053,3.4195,3.3775,3.3421,3.323,3.3865,3.4016,3.4006,3.5248,3.6052,3.663,3.7418,3.8069,3.8773,3.9939,4.0738,4.1388,4.232,4.2873,0.0,0.0,0.0,4.3373,4.3698,4.396,4.4098,4.4028,4.3924,4.3804,4.3582,4.3497,4.3497,4.3497,4.305,4.2655,4.248,4.1074,3.9615,3.885,3.7318,3.5797,3.4677,3.4489,3.3947,3.25,3.2313,3.2246,3.2019,3.1512,3.141,3.1968,3.1495,3.0869,3.0142,2.9397,2.8704,2.8129,2.774,2.7351,2.6979,2.7351,2.7249,2.6691,2.6691,2.6691,2.6691,2.6691,2.6691,2.6691,2.6691,2.6691,2.6691,2.6691,2.6691,2.6691,2.6691,2.6691,2.6691,2.6691,2.6691,2.6691,0.0,0.0,0.0,0.0,0.0,0.0,0.0,0.0,0.0,0.0,0.0,0.0,3.016,3.0321,3.0025,2.9236,2.9608,2.9655,2.9155,2.8959,2.8895,2.8887,2.9423,0.0,2.9871,3.1671,3.1942,3.064,3.1951,3.2411,3.2104,3.2959,3.3378,3.3438,3.5045,3.5311,3.4619,3.5212,3.5918,3.6567,3.5795,3.5836,3.6246,3.5507,3.556,3.614,3.6871,3.7649,3.8649,4.0793,4.1537,4.1794,4.3045,4.2928,4.2506,0.0,0.0,0.0,4.3171,4.3014,4.2996,4.3812,4.374,4.3513,4.3479,4.3497,4.3497,4.3497,4.305,4.2537,4.1937,4.0182,3.8764,3.8721,3.6987,3.5351,3.4607,3.4489,3.3947,3.25,3.2313,3.2019,3.1326,3.1207,3.1207,3.1241,3.1207,3.0869,3.0142,2.9397,2.8958,2.8924,2.752,2.708,2.7722,2.7097,2.6725,2.6691,2.6691,2.6691,2.6691,2.6691,2.6691,2.6691,2.6691,2.6691,2.6691,2.6691,2.6691,2.6691,2.6691,2.6691,2.6691,2.6691,2.6691,2.6691,0.0,0.0,0.0,0.0,0.0,0.0,0.0,0.0,0.0,0.0,0.0,0.0,0.0,3.0094,3.0316,2.9979,2.9846,2.9158,2.7671,2.7657,2.7663,2.7568,2.8648,2.9559,3.0279,3.2433,3.3173,3.2384,3.2645,3.2748,3.2668,3.2491,3.3012,3.4198,3.5374,3.5689,3.5314,3.5554,3.6489,3.7675,3.6181,3.6365,3.7383,3.5997,3.6481,3.7812,3.6961,3.8099,4.0103,4.0603,4.1491,4.2411,4.264,4.2317,4.1796,4.1733,4.189,4.2144,4.2275,4.2213,4.2185,4.251,4.2508,4.2386,4.2386,4.2714,4.2884,4.2483,4.1873,4.1392,4.127,3.9834,3.858,3.8242,3.6316,3.4641,3.3897,3.3389,3.2696,3.1698,3.1579,3.1478,3.1224,3.119,3.119,3.119,3.0768,3.0176,2.9414,2.8653,2.801,2.7537,2.6979,2.6826,2.7097,2.6826,2.6691,2.6691,2.6691,2.6691,2.6691,2.6691,2.6691,2.6691,2.6691,2.6691,2.6691,2.6691,2.6691,2.6691,2.6691,2.6691,2.6691,2.6691,2.6691,2.6691,0.0,0.0,0.0,0.0,0.0,0.0,0.0,0.0,0.0,2.839,0.0,0.0,0.0,0.0,3.0808,3.0364,2.9901,2.9004,2.75,2.7437,2.7535,2.7638,2.887,3.0049,3.1029,3.2849,3.3677,3.3391,3.3062,3.2821,3.2666,3.2441,3.2835,3.3788,3.4933,3.5587,3.5788,3.5954,3.6678,3.7609,3.6774,3.7235,3.8291,3.7279,3.8012,3.9443,3.8267,3.9168,4.086,4.0618,4.1076,4.1754,4.1937,4.1651,4.1053,4.0241,4.0506,4.1156,4.142,4.149,4.1534,4.175,4.181,4.181,4.181,4.2121,4.2213,4.154,4.1064,4.063,4.0231,3.9209,3.8317,3.7936,3.5994,3.4235,3.3508,3.2763,3.2019,3.1275,3.119,3.119,3.119,3.119,3.119,3.119,3.0751,3.004,2.9025,2.8484,2.774,2.6725,2.6691,2.6691,2.6691,2.6691,2.6691,2.6691,2.6691,2.6691,2.6691,2.6691,2.6691,2.6691,2.6691,2.6691,2.6691,2.6691,2.6691,2.6691,2.6691,2.6691,2.6691,2.6691,2.6691,2.6691,0.0,0.0,0.0,0.0,0.0,0.0,0.0,0.0,3.0106,3.0254,0.0,0.0,0.0,0.0,0.0,3.0309,2.9783,2.9345,2.8879,2.8458,2.8488,2.9083,3.0266,3.1273,3.2032,3.2966,3.3428,3.3391,3.3081,3.2559,3.1854,3.2737,3.2766,3.2143,3.3822,3.5061,3.5931,3.645,3.6622,3.667,3.7672,3.8447,3.9066,3.9283,3.995,4.078,4.0676,4.0682,4.0769,4.0919,4.0412,3.9902,4.0992,4.1032,4.0406,3.8955,3.9126,3.9915,0.0,0.0,0.0,4.1586,4.175,4.1768,4.1768,4.175,4.158,4.0819,4.0736,4.04,3.8989,3.8208,3.7855,3.7872,3.5977,3.4252,3.3541,3.2797,3.2036,3.1309,3.1224,3.1207,3.119,3.119,3.119,3.119,3.1173,3.0531,2.9059,2.8941,2.823,2.6742,2.6691,2.6691,2.6691,2.6691,2.6691,2.6691,2.6691,2.6691,2.6691,2.6691,2.6691,2.6691,2.6691,2.6691,2.6691,2.6691,2.6691,2.6691,2.6691,2.6691,2.6691,2.6691,2.6691,2.6691,0.0,0.0,0.0,0.0,0.0,3.2964,3.2885,3.1968,3.1508,0.0,0.0,0.0,3.1882,3.1351,3.0746,3.0252,3.0087,3.0,2.9969,2.914,2.8846,2.9386,3.0351,3.0992,3.1237,3.3032,3.3786,3.3391,3.3494,3.3226,3.2598,3.2309,3.2776,3.3804,3.3651,3.4459,3.5896,3.5891,3.6935,3.8445,3.7486,3.8281,3.9961,3.8875,3.9424,4.0647,3.9411,4.0213,4.1719,4.0757,4.1284,4.2106,4.0564,3.9971,3.9488,3.7806,3.7848,3.8495,3.8683,0.0,0.0,0.0,0.0,0.0,4.0546,4.0891,4.0989,4.0367,3.9779,3.9237,3.8982,3.7471,3.6434,3.7009,3.5622,3.4421,3.4218,3.3558,3.2814,3.207,3.1985,3.1782,3.1241,3.119,3.119,3.119,3.0717,2.9989,2.9025,2.7926,2.7131,2.6708,2.6691,2.6691,2.6691,2.6691,2.6691,2.6691,2.6691,2.6691,2.6691,2.6691,2.6691,2.6691,2.6691,2.6691,2.6691,2.6691,2.6691,2.6691,2.6691,2.6691,2.6691,2.6691,2.6691,2.6691,0.0,0.0,0.0,0.0,0.0,3.414,3.4134,3.3374,3.2961,0.0,0.0,0.0,3.3035,3.1913,3.1248,3.1447,3.1081,3.0989,3.1298,3.0734,3.0565,3.095,3.1488,3.1879,3.2111,3.3258,3.3886,3.3938,3.3963,3.3973,3.3968,3.3197,3.3595,3.4933,3.4518,3.5078,3.6372,3.6657,3.7307,3.8142,3.8238,3.9138,4.0365,3.9895,4.0665,4.1785,4.0444,4.121,4.2588,4.0846,4.117,4.1838,3.934,3.922,3.9688,3.8077,3.79,3.815,3.7936,3.8447,3.892,3.8616,0.0,0.0,3.9698,4.0114,4.0412,3.9781,3.9225,3.8682,3.8187,3.6992,3.6146,3.6282,3.5554,3.4844,3.4539,3.3863,3.3237,3.2797,3.2476,3.2121,3.1681,3.1376,3.119,3.119,3.0801,3.0091,2.9079,2.752,2.6691,2.6691,2.6691,2.6691,2.6691,2.6691,2.6691,2.6691,2.6691,2.6691,2.6691,2.6691,2.6691,2.6691,2.6691,2.6691,2.6691,2.6691,2.6691,2.6691,2.6691,2.6691,2.6691,2.6691,2.6691,2.6691,0.0,0.0,3.5722,3.5801,3.5708,3.5401,3.4818,3.4505,3.442,0.0,3.4437,3.4382,3.4562,3.3046,3.231,3.312,3.2346,3.2064,3.2691,3.2626,3.2691,3.3019,3.303,3.3245,3.3755,3.3705,3.4071,3.4866,3.4668,3.4955,3.5622,3.4805,3.4844,3.5621,3.5794,3.6306,3.709,3.8092,3.7877,3.7064,3.9427,4.0444,4.0607,4.1531,4.2469,4.3216,4.2436,4.2655,4.3012,4.1043,4.0532,4.0362,3.809,3.8829,4.0339,3.9048,3.8547,3.8321,3.7836,3.8292,3.87,3.7956,3.8886,0.0,3.9024,3.9311,3.9547,3.8874,3.8688,3.8248,3.7017,3.6776,3.6586,3.5977,3.5876,3.5588,3.4742,3.4066,3.3626,3.3541,3.2933,3.2493,3.2408,3.1816,3.141,3.1326,3.1157,3.0497,2.9178,2.7655,2.6826,2.6826,2.6742,2.6691,2.6691,2.6691,2.6691,2.6691,2.6691,2.6691,2.6691,2.6691,2.6691,2.6691,2.6691,2.6691,2.6691,2.6691,2.6691,2.6691,2.6691,2.6691,2.6691,2.6691,2.6691,2.6691,0.0,3.5074,3.5864,3.6406,3.6056,3.6054,3.7191,3.6192,3.5593,3.6372,3.5308,3.4471,3.4516,3.3002,3.2283,3.2976,3.2322,3.2367,3.3478,3.2762,3.2581,3.3296,3.3103,3.3134,3.3458,3.4747,3.5608,3.6005,3.6608,3.6779,3.6449,3.5649,3.5391,3.5591,3.564,3.6216,3.7265,3.875,3.9259,3.9117,3.9591,4.0567,4.1703,4.1226,4.1234,4.1484,4.1308,4.1366,4.1379,4.0526,4.0672,4.0944,3.9483,3.9392,3.9652,3.8727,3.7691,3.6824,3.6715,3.741,3.7939,3.7195,3.8108,0.0,3.8233,3.7715,3.7397,3.7259,3.676,3.6456,3.6738,3.6779,3.6924,3.7381,3.7466,3.6975,3.5588,3.5284,3.4962,3.4353,3.415,3.3829,3.3237,3.3068,3.2713,3.2121,3.0987,3.0192,2.9905,2.8433,2.7604,2.7604,2.7012,2.6691,2.6691,2.6691,2.6691,2.6691,2.6691,2.6691,2.6691,2.6691,2.6691,2.6691,2.6691,2.6691,2.6691,2.6691,2.6691,2.6691,2.6691,2.6691,2.6691,2.6691,2.6691,2.6691,3.4847,3.5377,3.5938,3.6719,3.6182,3.623,3.7887,3.6667,3.5951,3.7109,3.6428,3.5682,3.529,3.4284,3.3949,3.4683,3.4152,3.4244,3.5277,3.5259,3.5105,3.485,3.4718,3.4469,3.4054,3.5401,3.6159,3.6304,3.7321,3.7878,3.7988,3.7142,3.6775,3.6869,3.7375,3.7663,3.792,3.9666,4.0643,4.1001,4.0429,4.048,4.085,4.0374,3.9984,3.9707,3.9666,3.9626,3.9618,3.9758,4.0072,4.0299,3.969,3.9882,4.0138,3.9068,3.8096,3.7253,3.6602,3.6884,3.7161,3.6383,3.7043,0.0,0.0,3.6544,3.6409,3.6741,3.5937,3.5438,3.6137,3.5971,3.5828,3.619,3.6256,3.6124,3.5646,3.6281,3.662,3.6248,3.552,3.4912,3.4539,3.3846,3.3085,3.2341,3.1258,3.0497,3.0125,2.9025,2.8213,2.7806,2.7452,2.708,2.6691,2.6691,2.6691,2.6691,2.6691,2.6691,2.6691,2.6691,2.6691,2.6691,2.6691,2.6691,2.6691,2.6691,2.6691,2.6691,2.6691,2.6691,2.6691,2.6691,2.6691,2.6691,3.5597,3.5947,3.6265,3.7284,3.6733,3.6697,3.8421,3.7109,3.6236,3.7148,3.7126,3.6726,3.5985,3.5458,3.5488,3.6375,3.5849,3.5817,3.6664,3.7434,3.7314,3.6143,3.6398,3.61,3.5116,3.6269,3.6889,3.6889,3.7951,3.8757,3.9277,3.859,3.8299,3.8391,3.9224,3.9421,3.9247,4.0599,4.164,4.2304,4.1265,4.0578,4.0162,3.9765,3.9209,3.8595,3.8298,3.8152,3.8191,3.8762,3.9103,3.9307,3.9406,3.9909,4.0286,3.9349,3.8526,3.7715,3.6661,3.6593,3.6586,3.5808,3.61,3.6388,0.0,0.0,0.0,3.5839,3.5163,3.467,3.5211,3.5022,3.4844,3.4814,3.4942,3.5192,3.5728,3.7025,3.7835,3.7713,3.6443,3.574,3.6028,3.4844,3.3677,3.278,3.2154,3.1444,3.0581,2.982,2.8991,2.8078,2.7857,2.7452,2.6708,2.6691,2.6691,2.6691,2.6691,2.6691,2.6691,2.6691,2.6691,2.6691,2.6691,2.6691,2.6674,2.6539,2.6573,2.6691,2.6691,2.6691,2.6691,2.6691,2.6691,2.6691,3.6405,3.6814,3.7322,3.8853,3.8552,3.8617,4.0176,3.873,3.7211,3.6526,3.6423,3.6222,3.569,3.4962,3.4986,3.6231,3.5226,3.4983,3.6033,3.6359,3.6173,3.5345,3.6692,3.7154,3.6492,3.8097,3.8958,3.8958,3.9796,3.9892,3.9311,3.9264,3.9251,3.9265,3.9496,4.0435,4.1823,4.1257,4.155,4.2324,4.1357,4.1387,4.1833,4.0288,3.9589,3.9303,3.8179,3.7745,3.7714,3.7452,3.7896,3.8591,3.9018,3.8755,3.8368,3.8943,3.7739,3.6227,3.6365,3.6593,3.6586,3.5808,3.5716,3.5628,3.4917,0.0,3.2949,3.297,0.0,3.3778,3.3881,0.0,0.0,3.5669,3.6188,3.6565,3.6646,3.7335,3.7566,3.6915,3.6111,3.6163,3.7516,3.6891,3.5791,3.4353,3.4167,3.3508,3.2104,3.1343,3.0294,2.889,2.818,2.7452,2.6708,2.6691,2.6691,2.6691,2.6691,2.6691,2.6691,2.6691,2.6691,2.6691,2.6691,2.6691,2.664,2.5998,2.6116,2.6691,2.6691,2.6691,2.6691,2.6691,2.6691,2.6691,3.583,3.6581,3.7365,3.8569,3.8534,3.889,4.0509,3.9783,3.8474,3.6925,3.7535,3.7843,3.7166,3.6937,3.6894,3.7042,3.6998,3.704,3.726,3.8163,3.8592,3.84,3.8559,3.8543,3.8272,3.8945,3.9296,3.9296,4.0104,4.0315,4.0004,4.002,4.0087,4.0217,4.0279,4.0803,4.1675,4.1771,4.1728,4.1607,4.1706,4.1309,4.0493,3.9295,3.8055,3.6922,3.6381,3.6086,3.6005,3.6307,3.6848,3.7448,3.7653,3.8006,3.8335,3.8204,3.7466,3.6673,3.6816,3.6163,3.5487,3.5588,3.5031,3.443,3.4594,3.3841,3.3282,3.3646,0.0,0.0,0.0,0.0,0.0,0.0,3.4793,3.5349,3.4963,3.5486,3.6413,3.781,3.6957,3.6303,3.6554,3.6687,3.6114,3.4624,3.4895,3.4506,3.3017,3.2222,3.1343,3.0294,2.911,2.8129,2.7351,2.6911,2.6691,2.6691,2.6691,2.6691,2.6691,2.6691,2.6691,2.6691,2.6691,2.6691,2.664,2.5913,2.5907,2.6319,2.5874,2.5851,2.6065,2.6065,2.5778,2.5473,3.6103,3.6851,3.778,3.9112,3.9369,3.9743,4.0788,4.0514,3.9547,3.7675,3.8475,3.8912,3.822,3.8292,3.828,3.79,3.8437,3.8625,3.8287,3.952,4.0173,3.9883,4.0025,4.0004,3.976,3.9956,4.0056,4.0039,4.0636,4.0896,4.0854,4.0896,4.1119,4.1459,4.1283,4.1437,4.1824,4.2202,4.1956,4.132,4.1713,4.0673,3.882,3.8003,3.6613,3.5088,3.4907,3.4735,3.4663,3.5405,3.5906,3.6244,3.6233,3.6897,3.7539,3.6845,3.6438,3.6268,3.6597,3.5607,3.4675,3.5436,3.4714,3.395,3.446,3.4087,3.3726,3.4238,3.3546,0.0,0.0,0.0,3.302,3.2317,0.0,3.3769,3.329,3.397,3.5381,3.7753,3.7383,3.6644,3.5665,3.6453,3.6403,3.4918,3.5501,3.5244,3.3795,3.3186,3.2357,3.1241,3.0142,2.9025,2.7806,2.7283,2.6894,2.6691,2.6691,2.6691,2.6691,2.6691,2.6691,2.6691,2.6691,2.6639,2.6451,2.5624,2.5552,2.5854,2.4919,2.4795,2.5173,2.536,2.5178,2.4864,3.8052,3.8247,3.9048,4.1542,4.2092,4.1993,4.1453,4.0977,4.0166,3.8754,3.8599,3.8446,3.795,3.7902,3.8116,3.852,3.867,3.8634,3.8405,3.9407,3.9353,3.786,4.0449,4.1523,4.0688,4.1552,4.1985,4.1916,4.1931,4.1879,4.1758,4.1892,4.2369,4.3102,4.2513,4.2646,4.3284,4.2598,4.2217,4.1988,4.111,3.9499,3.7561,3.6684,3.5846,3.5016,3.4427,3.4223,3.4282,3.486,3.5037,3.5055,3.5055,3.5092,3.5026,3.4558,3.4077,3.3953,3.497,3.4898,3.4675,3.5436,3.5081,3.4543,3.4576,3.4087,3.3598,3.3614,3.3614,3.3391,3.2711,3.2648,3.2388,3.167,3.2138,0.0,0.0,3.3634,3.4802,3.5623,3.6896,3.7173,3.5712,3.6942,3.7141,3.5695,3.6238,3.6008,3.453,3.4438,3.344,3.1258,3.114,3.0057,2.7806,2.7772,2.7418,2.6691,2.6691,2.6691,2.6691,2.6691,2.6691,2.6691,2.6691,2.6465,2.6057,2.4968,2.4925,2.5385,2.3973,2.3659,2.4026,2.4752,2.524,2.5575,3.9706,4.0348,4.0856,4.117,4.1493,4.1533,4.1036,4.0928,4.0572,3.945,3.9465,3.935,3.8715,3.8901,3.8763,3.7949,3.9008,3.9331,3.8467,4.0325,4.1075,4.0256,4.1869,4.2694,4.2496,4.2701,4.2851,4.2937,4.2834,4.277,4.2717,4.2145,4.2342,4.3136,4.184,4.173,4.2529,4.2266,4.1774,4.1042,3.9522,3.8696,3.8175,3.6249,3.5097,3.4414,3.3672,3.3276,3.3098,3.2732,3.2981,3.3303,3.2797,3.3348,3.4183,3.4026,3.3782,3.3811,3.4708,3.4012,3.3322,3.4573,3.4314,3.4063,3.5036,3.5115,3.4911,3.4911,3.4202,3.3531,3.3287,3.2832,3.2309,3.1599,3.2452,3.3021,0.0,3.3318,3.4256,3.5394,3.6384,3.662,3.5654,3.6036,3.6152,3.5645,3.5839,3.5736,3.5239,3.4776,3.3931,3.2696,3.1715,3.0362,2.8602,2.8078,2.7435,2.6691,2.6691,2.6691,2.6691,2.6691,2.6691,2.6691,2.6691,2.6447,2.6006,2.4934,2.458,2.4645,2.3984,2.3788,2.3957,2.4487,2.4445,2.4272,4.1473,4.1988,4.2179,4.1967,4.2155,4.2095,4.1361,4.1284,4.1008,3.9979,3.9997,3.9883,3.9313,3.9508,3.9292,3.8241,3.9409,3.986,3.9079,4.0727,4.1715,4.1705,4.2421,4.3144,4.3847,4.3535,4.3533,4.3853,4.3782,4.3683,4.3573,4.2668,4.2587,4.3123,4.1763,4.13,4.1556,4.1917,4.1507,4.0468,3.8719,3.8153,3.8136,3.5944,3.4735,3.4088,3.3287,3.263,3.21,3.1568,3.1733,3.2027,3.1219,3.188,3.2889,3.2596,3.2549,3.277,3.3568,3.3072,3.2565,3.3505,3.3779,3.4071,3.4832,3.5275,3.5419,3.526,3.4363,3.354,3.3241,3.2602,3.1985,3.154,3.2418,3.313,0.0,3.3233,3.3817,3.47,3.5442,3.583,3.5874,3.5915,3.5991,3.5989,3.6006,3.587,3.5594,3.5165,3.4438,3.344,3.2476,3.114,2.9397,2.8619,2.7841,2.7097,2.6826,2.6691,2.6691,2.6691,2.6691,2.6691,2.6691,2.639,2.5814,2.4876,2.4354,2.4058,2.3831,2.3615,2.3559,2.4384,2.4552,2.4552,4.3238,4.3038,4.302,4.3864,4.4001,4.3624,4.2484,4.2042,4.142,4.0286,4.0121,4.0029,3.9692,3.9652,3.9591,3.9358,3.9835,4.0131,4.0131,4.0541,4.1127,4.1987,4.2058,4.2872,4.4542,4.4025,4.4064,4.4701,4.4742,4.4618,4.4352,4.3489,4.3104,4.3082,4.2311,4.1448,4.0562,4.1571,4.1409,4.0354,3.8719,3.7901,3.7468,3.5791,3.4735,3.4051,3.3231,3.2247,3.1329,3.1274,3.1274,3.1146,3.0375,3.0668,3.1127,3.0411,3.0446,3.0908,3.1636,3.2068,3.2278,3.2246,3.3406,3.4427,3.4021,3.453,3.4967,3.455,3.3952,3.3337,3.261,3.1992,3.1576,3.1595,3.2226,3.2897,3.3352,3.3467,3.3471,3.3484,3.4055,3.4938,3.6383,3.6445,3.6506,3.6645,3.6668,3.634,3.5695,3.5673,3.5013,3.3558,3.344,3.2374,3.0192,2.9414,2.8619,2.7772,2.7097,2.6725,2.6691,2.6657,2.664,2.664,2.6607,2.6138,2.5394,2.4739,2.4153,2.371,2.3495,2.3181,2.3015,2.4441,2.5524,2.629,4.3283,4.3496,4.3743,4.395,4.3988,4.368,4.2737,4.2523,4.2038,4.0827,4.0703,4.0233,3.8995,3.9233,3.9146,3.8366,3.8958,3.9361,3.9383,3.99,4.0346,4.0669,4.155,4.2252,4.2761,4.3866,4.4533,4.4701,4.5257,4.5493,4.538,4.384,4.3104,4.3066,4.2225,4.1343,4.0562,4.1474,4.1324,4.0412,3.9373,3.8786,3.8308,3.663,3.4868,3.3194,3.2396,3.1413,3.0411,2.9824,2.9622,2.9586,2.9384,2.9457,2.9696,3.0099,3.0046,3.008,3.0872,3.0873,3.0797,3.1329,3.1802,3.2299,3.3038,3.3339,3.3532,3.3643,3.3167,3.2935,3.3684,3.3264,3.3048,3.4027,3.4459,3.4219,3.2866,3.3178,3.3566,3.3487,3.3152,3.3468,3.4914,3.4579,3.475,3.5809,3.5887,3.6064,3.6468,3.6485,3.6045,3.5081,3.3981,3.2611,3.0937,3.0192,2.9144,2.7789,2.7621,2.7232,2.6674,2.6133,2.5879,2.5845,2.5287,2.4895,2.4549,2.3922,2.3877,2.4091,2.359,2.3994,2.4849,2.4679,2.5445,2.6585,4.4327,4.4739,4.4872,4.4397,4.4309,4.3947,4.2862,4.2711,4.2342,4.1402,4.0971,4.0394,3.9417,3.8933,3.8474,3.7966,3.7978,3.8242,3.8721,3.8845,3.9279,4.0114,4.03,4.0733,4.1503,4.2556,4.3411,4.4035,4.4839,4.5195,4.5109,4.4113,4.3431,4.3066,4.22,4.1739,4.1643,4.1758,4.1296,4.0431,3.9623,3.8949,0.0,3.6993,3.4886,3.2589,3.2141,3.099,2.9622,2.914,2.8994,2.8994,2.8994,2.8994,2.9085,2.9549,2.9533,2.9432,2.9886,3.0071,3.0158,3.022,3.0758,3.1344,3.1602,3.1969,3.2156,3.197,3.2102,3.2311,3.2823,3.3342,3.4075,3.5063,3.4482,3.3579,3.2789,3.315,3.3409,3.311,3.3208,3.3653,3.4473,3.4201,3.4692,3.6488,3.6303,3.6315,3.6755,3.6772,3.6265,3.5165,3.4641,3.3508,3.1681,3.0954,2.982,2.8332,2.7655,2.7114,2.6674,2.6268,2.5913,2.5592,2.5152,2.467,2.4086,2.3591,2.3481,2.3562,2.3112,2.4019,2.5507,2.4763,2.5533,2.6939,4.566,4.6097,4.6042,4.5088,4.4818,4.4345,4.3213,4.2918,4.2562,4.1837,4.115,4.0566,4.0075,3.8707,3.7816,3.7894,3.7105,3.705,3.812,3.7585,3.8032,3.9765,3.8752,3.8867,4.0448,4.0689,4.1526,4.3027,4.3886,4.437,4.447,4.4355,4.3932,4.322,4.247,4.2489,4.3047,4.2181,4.1296,4.0431,3.9738,3.8873,3.7911,3.7113,3.4904,3.2203,3.2166,3.0779,2.8994,2.8994,2.8994,2.8994,2.8994,2.8994,2.8994,2.8994,2.8994,2.8994,2.8994,2.9512,2.9879,2.9159,3.0063,3.0896,3.0142,3.0539,3.0891,3.0148,3.0917,3.1617,3.1296,3.3,3.4619,3.5226,3.3604,3.2338,3.2611,3.3162,3.3255,3.2594,3.3675,0.0,3.4688,3.4675,3.5544,3.7604,3.733,3.7026,3.6924,3.6924,3.6282,3.4844,3.5233,3.4539,3.2594,3.1749,3.0598,2.911,2.7672,2.6826,2.6539,2.6454,2.6015,2.5321,2.522,2.4637,2.3715,2.3386,2.3033,2.2625,2.249,2.368,2.5372,2.4611,2.5504,2.704,4.5727,4.5952,4.6024,4.6145,4.534,4.4722,4.4837,4.3984,4.2923,4.1643,4.1351,4.0759,3.9356,3.8365,3.7816,3.7894,3.6766,3.6507,3.7566,3.6517,3.665,3.845,3.7646,3.765,3.8711,3.9354,4.048,4.2131,4.2941,4.4039,4.5355,4.4643,4.422,4.4085,4.3932,4.3585,4.3047,4.2181,4.1296,4.0489,4.0335,3.9373,3.7954,3.7587,3.5245,3.2166,3.1952,3.0646,2.8994,2.8994,2.8994,2.8994,2.8994,2.8994,2.8994,2.8994,2.8994,2.8994,2.8994,2.9085,2.9177,2.903,2.9195,2.9375,2.9247,2.9572,2.984,2.9642,3.0164,3.0951,3.1901,3.3405,3.458,3.4842,3.4479,3.3309,3.1003,3.2417,3.3414,3.2717,3.344,3.4312,3.5194,3.5424,3.5924,3.6912,3.799,3.8345,3.7736,3.7719,3.7297,3.64,3.5284,3.4506,3.41,3.2763,3.136,2.9905,2.9008,2.7604,2.5778,2.5152,2.4475,2.3748,2.3156,2.288,2.2894,2.2603,2.244,2.2428,2.2999,2.3816,2.4594,2.3849,2.4588,2.5959,4.6771,4.733,4.754,4.6866,4.6277,4.5674,4.5021,4.4053,4.3039,4.201,4.1503,4.0793,3.961,3.8131,3.7302,3.7461,3.6262,3.5759,3.6422,3.6131,3.6319,3.7225,3.7302,3.7531,3.7979,3.8984,4.0309,4.1941,4.2837,4.386,4.5032,4.507,4.4797,4.4297,4.4297,4.3605,4.2412,4.1989,4.1296,4.0489,4.0489,3.9488,3.7973,3.7689,3.536,3.2166,3.1909,3.058,2.8994,2.8994,2.8994,2.8994,2.8994,2.8994,2.8994,2.8994,2.8994,2.8994,2.8994,2.8994,2.8994,2.8994,2.8994,2.8949,2.8748,2.8838,2.8955,2.8858,2.9538,3.0643,3.2144,3.3354,3.4017,3.3644,3.3626,3.312,3.1693,3.2626,3.3277,3.2826,3.3576,3.4314,3.4634,3.5251,3.5807,3.6134,3.7212,3.7516,3.6772,3.7483,3.7381,3.6214,3.5842,3.5115,3.3947,3.322,3.1749,2.9516,2.8755,2.7402,2.5592,2.5236,2.4458,2.3376,2.3021,2.2745,2.2508,2.2785,2.3325,2.4019,2.3968,2.4408,2.4983,2.4222,2.4171,2.456,4.7834,4.8581,4.8768,4.734,4.6917,4.6286,4.4909,4.3914,4.305,4.2347,4.1551,4.0738,3.9907,3.8013,3.6967,3.7432,3.6179,3.5515,3.5902,3.6317,3.6533,3.6553,3.7223,3.7603,3.7705,3.8644,3.9998,4.1724,4.2655,4.3575,4.4517,4.5406,4.5291,4.4325,4.4295,4.3374,4.1797,4.1797,4.1296,4.0489,4.0489,3.9488,3.7973,3.7689,3.536,3.2166,3.1909,3.058,2.8994,2.8994,2.8994,2.8994,2.8994,2.8994,2.8994,2.8994,2.8994,2.8994,2.8994,2.8865,2.8741,2.8741,2.8741,2.8631,2.8243,2.8345,2.8478,2.8276,2.9009,3.0193,3.1922,3.2409,3.2539,3.253,3.2298,3.2241,3.2552,3.2969,3.3146,3.2873,3.388,3.4358,3.387,3.4878,3.5453,3.5198,3.618,3.6586,3.6129,3.7094,3.711,3.591,3.6451,3.5842,3.3897,3.3558,3.2002,2.9211,2.8433,2.7199,2.5609,2.5439,2.4644,2.3393,2.3224,2.2936,2.2581,2.3156,2.4171,2.5304,2.4743,2.4949,2.5507,2.4763,2.4222,2.39,4.8227,4.822,4.8134,4.7552,4.6594,4.5715,4.5141,4.4056,4.302,4.2215,4.1362,4.0516,3.9712,3.8079,3.7497,3.8556,3.7146,3.6514,3.7258,3.7374,3.7262,3.7036,3.7112,3.7319,3.77,3.7704,3.8716,4.0821,4.1709,4.2934,4.4518,4.5457,4.5384,4.4473,4.4357,4.3374,4.1797,4.1797,4.1296,4.0489,4.0489,3.9488,3.7973,3.7689,3.536,3.2166,3.1909,3.058,2.8994,2.8994,2.8994,2.8994,2.8994,2.8994,2.8994,2.8994,2.8994,2.8994,2.8994,2.8484,2.7915,2.7915,2.7915,2.7812,2.7411,2.8155,2.8839,2.8453,2.8458,2.9129,3.1055,2.9787,2.9358,3.2138,3.1283,3.0717,3.2071,3.29,3.3262,3.2994,3.4034,3.435,3.3283,3.4495,3.4905,3.3864,3.565,3.7043,3.7652,3.7178,3.6823,3.6671,3.6738,3.6349,3.5419,3.4083,3.2256,2.9989,2.9228,2.7723,2.5592,2.4898,2.4154,2.3359,2.2699,2.275,2.3291,2.3359,2.3866,2.4608,2.454,2.4949,2.5507,2.4763,2.4881,2.522,4.7827,4.7962,4.7936,4.7258,4.6755,4.6044,4.4806,4.379,4.2869,4.2029,4.1279,4.05,3.9693,3.8715,3.8308,3.8747,3.7898,3.7463,3.7789,3.8113,3.8155,3.7819,3.8504,3.8876,3.884,3.9225,4.01,4.1477,4.2474,4.3535,4.4635,4.5041,4.4692,4.3692,4.3065,4.2431,4.1777,4.1239,4.0527,3.9777,3.9777,3.8738,3.7171,3.6728,3.5059,3.2788,3.1898,3.077,2.9659,2.914,2.8994,2.8994,2.8994,2.8994,2.8994,2.8994,2.8994,2.8883,2.8411,2.8044,2.7787,2.7787,2.7787,2.7893,2.8213,2.8787,2.9185,2.9038,2.9195,2.93,2.9051,2.9666,2.9925,2.9135,3.0145,3.1038,3.1116,3.1851,3.205,3.1186,3.2113,3.2221,3.0707,3.2807,3.4368,3.4609,3.6679,3.7845,3.7561,3.8119,3.8432,3.8475,3.7241,3.62,3.5511,3.4108,3.207,2.9431,2.9127,2.7791,2.5575,2.4831,2.3849,2.2733,2.2446,2.297,2.4052,2.4052,2.4746,2.5812,2.5812,2.5998,2.6167,2.5423,2.5355,2.5456,4.736,4.7548,4.749,4.6663,4.6317,4.5643,4.4162,4.3258,4.2393,4.1527,4.1017,4.0507,3.9939,3.9319,3.9029,3.9278,3.8741,3.8439,3.8607,3.8972,3.9029,3.8712,3.9496,3.9901,3.9754,4.0277,4.0874,4.1625,4.2641,4.3443,4.4002,4.4266,4.3697,4.2434,4.1735,4.1143,4.0642,4.0027,3.9431,3.8911,3.8911,3.8027,3.6637,3.6103,3.4866,3.3221,3.189,3.087,3.0081,2.925,2.8994,2.8994,2.8994,2.8994,2.8994,2.8994,2.8929,2.8657,2.7985,2.7537,2.7309,2.7416,2.7485,2.7751,2.8562,2.9082,2.9412,2.9412,2.9454,2.9106,2.7755,2.9187,2.9794,2.7371,2.9217,3.0879,3.0682,3.1181,3.1288,3.0487,3.1414,3.1452,2.9786,3.2033,3.3952,3.48,3.689,3.7985,3.76,3.861,3.9195,3.9195,3.7755,3.6441,3.5392,3.4226,3.206,2.9011,2.9011,2.7909,2.5896,2.5152,2.4137,2.2953,2.2953,2.3663,2.4814,2.4814,2.5558,2.6691,2.6691,2.6691,2.664,2.6116,2.593,2.5795,4.6992,4.6913,4.6644,4.5759,4.4893,4.4066,4.3239,4.2374,4.1508,4.0623,4.0508,4.0508,4.0489,3.9777,3.9604,4.0412,3.9738,3.9509,4.0043,4.0081,3.9924,3.9603,3.9599,3.9754,4.0081,4.0101,4.0298,4.0723,4.1664,4.2182,4.235,4.3075,4.2461,4.0726,4.0574,3.9604,3.8046,3.8027,3.8027,3.8027,3.8027,3.7488,3.6637,3.6103,3.4866,3.3221,3.189,3.087,3.0081,2.925,2.8994,2.8994,2.8994,2.8994,2.8994,2.8994,2.8725,2.8334,2.7899,2.6941,2.6121,2.6508,2.6743,2.7121,2.7941,2.8779,2.9412,2.9412,2.8895,2.8234,2.7613,2.7738,2.7928,2.789,2.8582,2.9651,3.1107,3.1306,3.1414,3.1736,3.2841,3.2981,3.1513,3.2732,3.3681,3.3799,3.5628,3.7166,3.8213,3.8359,3.8376,3.8337,3.8263,3.7325,3.533,3.4567,3.2452,2.9011,2.9011,2.818,2.6657,2.593,2.5169,2.4489,2.4489,2.4881,2.5592,2.5592,2.6031,2.6691,2.6691,2.6691,2.6691,2.6674,2.6674,2.6471,4.603,4.6089,4.6061,4.5791,4.5092,4.4292,4.3419,4.2565,4.1668,4.0759,4.0636,4.0596,4.0504,4.0258,4.0219,4.0469,4.0258,4.0204,4.0353,4.0372,4.025,3.9943,4.012,4.0176,4.0101,4.038,4.0281,3.9809,4.1447,4.2265,4.2298,4.1889,4.1023,3.9785,3.9108,3.8507,3.8007,3.8007,3.7661,3.7123,3.7123,3.6622,3.583,3.5287,3.4732,3.403,3.2088,3.1237,3.0797,2.9475,2.8994,2.8994,2.8994,2.8994,2.8994,2.8994,2.8905,2.8657,2.7985,2.7519,2.7273,2.7398,2.7577,2.7941,2.8779,2.9307,2.9607,2.9607,2.9611,2.9392,2.8598,2.9149,2.9164,2.7376,2.8184,2.876,2.8013,2.8749,2.9162,2.854,3.0296,3.0978,2.9493,3.2028,3.4098,3.503,3.7453,3.8802,3.8583,3.9091,3.967,4.0199,3.8275,3.6756,3.5839,3.4219,3.2173,2.9736,2.9228,2.7926,2.593,2.5186,2.4712,2.4472,2.3951,2.4441,2.5609,2.5609,2.6031,2.6691,2.6691,2.6691,2.6691,2.6691,2.6691,2.6623,4.568,4.5764,4.5739,4.5437,4.5007,4.4303,4.3097,4.2455,4.1769,4.0849,4.0742,4.071,4.0616,4.0604,4.0597,4.0588,4.0588,4.0596,4.0604,4.0604,4.0532,4.038,4.0532,4.0532,4.0365,4.0614,4.049,3.9993,4.0883,4.1306,4.1276,4.0342,3.9345,3.8356,3.7775,3.7334,3.7065,3.7065,3.6757,3.6257,3.6257,3.5949,3.5446,3.4908,3.4694,3.4406,3.2181,3.1384,3.1146,2.9549,2.8994,2.8994,2.8994,2.8994,2.8994,2.8994,2.8887,2.8633,2.7985,2.7679,2.7616,2.7765,2.8029,2.8501,2.9419,2.9731,2.9829,2.9886,3.0048,2.9963,2.9226,2.9901,2.9795,2.7415,2.8095,2.8358,2.6744,2.7304,2.7882,2.7848,2.9729,3.0828,3.021,3.2576,3.4367,3.4943,3.7011,3.8122,3.7808,3.9423,4.0451,4.0653,3.8291,3.666,3.5915,3.4164,3.226,3.0321,2.9134,2.7807,2.642,2.5659,2.5321,2.5319,2.4831,2.5152,2.6015,2.6015,2.6116,2.6302,2.659,2.6522,2.6319,2.659,2.6691,2.6657,4.5822,4.5861,4.5674,4.4934,4.4748,4.4153,4.2471,4.2167,4.1816,4.0926,4.0809,4.0809,4.0801,4.0801,4.0779,4.0718,4.0696,4.0731,4.0793,4.0801,4.0801,4.0801,4.0801,4.0801,4.0801,4.0809,4.0857,4.0906,4.0036,3.9565,3.947,3.8549,3.7614,3.6699,3.6642,3.6199,3.5493,3.5493,3.5493,3.5493,3.5493,3.5493,3.5417,3.4908,3.4674,3.4365,3.2181,3.1384,3.1146,2.9549,2.8994,2.8994,2.8994,2.8994,2.8994,2.8994,2.8749,2.8377,2.7995,2.7619,2.7417,2.7871,2.8353,2.8906,2.9798,3.0013,3.0051,3.0175,3.0221,3.0085,2.957,3.0042,2.9881,2.7988,2.8255,2.8255,2.699,2.686,2.7475,2.904,3.0777,3.212,3.2854,3.402,3.4517,3.4107,3.5069,3.5948,3.6607,3.9423,4.0653,3.9827,3.8303,3.6906,3.5612,3.4329,3.2668,3.0629,2.8816,2.7891,2.7755,2.7046,2.6691,2.6691,2.664,2.664,2.6691,2.6691,2.6302,2.5744,2.642,2.6285,2.5761,2.6437,2.6691,2.659,4.5872,4.5967,4.5986,4.5791,4.5304,4.4562,4.3488,4.2765,4.1995,4.1081,4.0955,4.0914,4.0809,4.0801,4.0824,4.0928,4.0848,4.0768,4.0793,4.0801,4.0801,4.0801,4.0801,4.0801,4.0801,4.0908,4.0645,4.0012,3.9136,3.8642,3.8501,3.7617,3.7035,3.668,3.6065,3.568,3.5493,3.5493,3.5493,3.5493,3.5493,3.5369,3.5174,3.4832,3.4551,3.4064,3.2109,3.1384,3.1146,2.9549,2.8994,2.8994,2.8994,2.8994,2.8994,2.8994,2.8929,2.8827,2.8737,2.8636,2.8792,2.9715,3.0282,3.0521,3.0094,3.015,3.0285,3.0217,3.0366,3.0477,3.0347,3.0502,3.0197,2.8819,2.8107,2.7333,2.615,2.6507,2.7047,2.7438,3.0208,3.2184,3.2371,3.3786,3.5315,3.6835,3.7177,3.8109,3.9863,4.0102,3.9827,3.9019,3.801,3.6906,3.5612,3.4329,3.2564,3.0245,2.9773,2.8958,2.7755,2.7046,2.6691,2.6657,2.6099,2.6184,2.6691,2.6691,2.659,2.6454,2.6623,2.659,2.6454,2.6623,2.6691,2.6674,4.4858,4.525,4.5475,4.5065,4.4997,4.457,4.3301,4.2695,4.2089,4.1201,4.1082,4.1055,4.0992,4.0988,4.1,4.108,4.0964,4.092,4.0988,4.0988,4.0988,4.0988,4.0988,4.0988,4.0988,4.1052,4.084,4.0297,3.8985,3.8305,3.8158,3.6872,3.6215,3.6122,3.5276,3.4911,3.4872,3.4487,3.4314,3.4301,3.4213,3.432,3.4461,3.4069,3.3795,3.3445,3.1931,3.1146,3.065,2.9439,2.8994,2.8994,2.8994,2.8994,2.8994,2.8994,2.8994,2.8994,2.8994,2.8994,2.9181,2.9998,3.0442,3.0729,3.0776,3.0567,3.0498,3.0865,3.0754,3.0606,3.0606,3.0553,3.0203,2.9225,2.8316,2.7407,2.6512,2.6672,2.7232,2.8107,3.0368,3.2119,3.2859,3.4238,3.5552,3.6721,3.7262,3.8122,3.9399,3.9038,3.8927,3.9239,3.7734,3.6618,3.5933,3.4089,3.2389,3.0871,3.0357,2.9482,2.8332,2.7554,2.7012,2.6674,2.6285,2.6336,2.6691,2.6691,2.6488,2.6234,2.6573,2.6488,2.6234,2.6573,2.6691,2.6691,4.3794,4.4446,4.4766,4.4023,4.4629,4.4609,4.2851,4.2598,4.2266,4.1328,4.1191,4.1191,4.1191,4.1191,4.1191,4.1191,4.1103,4.108,4.1191,4.1191,4.1191,4.1191,4.1191,4.1191,4.1191,4.1171,4.0988,4.0593,3.9033,3.811,3.7757,3.6222,3.543,3.5276,3.4526,3.4122,3.3949,3.3218,3.2891,3.2878,3.2694,3.2988,3.3517,3.313,3.291,3.2655,3.1722,3.087,3.0081,2.925,2.8994,2.8994,2.8994,2.8994,2.8994,2.8994,2.8994,2.8994,2.8994,2.9159,2.9376,2.9662,3.0098,3.0672,3.1507,3.1218,3.0964,3.1652,3.127,3.0737,3.0568,3.0438,3.0179,2.9639,2.8782,2.8033,2.7603,2.7324,2.7808,2.9595,3.0864,3.2206,3.3723,3.4851,3.5518,3.5572,3.6404,3.7031,3.7316,3.7312,3.7936,3.9313,3.7367,3.6201,3.6014,3.375,3.2366,3.188,3.0837,2.9898,2.9085,2.8317,2.752,2.6691,2.6691,2.6691,2.6691,2.6691,2.6404,2.5998,2.6623,2.6488,2.6015,2.664,2.686,2.6843,4.4647,4.4902,4.4961,4.4824,4.5527,4.5508,4.3769,4.3496,4.2949,4.1406,4.1191,4.1191,4.1191,4.1191,4.1191,4.1191,4.1171,4.1171,4.1191,4.1191,4.1191,4.1191,4.1191,4.1191,4.1191,4.1082,4.0266,3.8721,3.8382,3.7428,3.5913,3.5636,3.5122,3.4391,3.4257,3.3795,3.3083,3.2968,3.2891,3.2878,3.2694,3.2528,3.2487,3.286,3.2437,3.1624,3.1464,3.087,3.0081,2.925,2.8994,2.8994,2.8994,2.8994,2.8994,2.8994,2.8994,2.8994,2.8994,2.9834,3.0564,3.0079,3.1202,3.2327,3.1802,3.2122,3.2382,3.1903,3.1689,3.135,3.0432,3.0478,3.0646,3.0743,2.9531,2.873,2.9089,2.8632,2.8638,2.9687,3.1499,3.3044,3.4043,3.4974,3.5583,3.5821,3.5991,3.6194,3.646,3.6486,3.6597,3.6853,3.6486,3.5773,3.4715,3.3653,3.2858,3.2366,3.1811,3.0818,2.9505,2.9038,2.8027,2.6691,2.6691,2.6691,2.6691,2.6691,2.7012,2.7451,2.757,2.7571,2.7451,2.757,2.7638,2.7554,4.2871,4.3301,4.3594,4.3594,4.3926,4.3926,4.3125,4.2637,4.207,4.1308,4.1191,4.1191,4.1191,4.1191,4.1191,4.1191,4.1191,4.1191,4.1191,4.1191,4.1191,4.1191,4.1191,4.1171,4.1082,4.0959,4.024,3.8898,3.8433,3.7498,3.6142,3.5699,3.5026,3.418,3.3699,3.3045,3.2218,3.1756,3.1476,3.1312,3.1118,3.1164,3.1349,3.1463,3.1181,3.0742,3.0742,3.0246,2.9512,2.9122,2.8994,2.8994,2.8994,2.8994,2.8994,2.8994,2.8994,2.904,2.9178,2.9755,3.0237,3.0049,3.1148,3.2275,3.2333,3.2295,3.2256,3.2225,3.1534,3.0671,2.9775,2.972,2.9835,2.9801,2.9565,2.9474,2.9822,2.9743,3.0171,3.158,3.2324,3.3316,3.4762,3.5257,3.5618,3.5885,3.5899,3.6007,3.6305,3.5862,3.5605,3.5605,3.5605,3.5117,3.4087,3.3484,3.2768,3.1898,3.183,3.0679,2.8648,2.888,2.8146,2.6691,2.6691,2.6928,2.7266,2.686,2.7385,2.8399,2.7977,2.8078,2.845,2.845,2.8594,2.8613,4.1445,4.1973,4.2402,4.2402,4.2578,4.2637,4.2422,4.1875,4.1406,4.1211,4.1191,4.1191,4.1191,4.1191,4.1191,4.1151,4.115,4.1149,4.1105,4.1105,4.1126,4.115,4.1126,4.1055,4.0955,4.0836,4.0238,3.9127,3.8473,3.7559,3.6411,3.5795,3.5026,3.416,3.3506,3.2596,3.1559,3.0887,3.0341,2.9908,2.9713,2.9907,3.032,3.0236,3.0081,2.9953,3.0136,2.9696,2.8994,2.8994,2.8994,2.8994,2.8994,2.8994,2.8994,2.8994,2.8994,2.9067,2.9394,2.9626,2.9796,2.9969,3.0953,3.2045,3.2598,3.2565,3.2431,3.2585,3.1641,3.0462,2.9391,2.9271,2.9311,2.9302,2.9534,2.9888,3.0366,3.0367,3.1007,3.2883,3.2813,3.3364,3.5306,3.5493,3.5522,3.5601,3.5616,3.5656,3.5707,3.5092,3.4715,3.4715,3.4715,3.4431,3.3807,3.3494,3.2769,3.166,3.1861,3.0595,2.8117,2.8727,2.8146,2.6708,2.6877,2.7283,2.7755,2.7385,2.8027,2.9178,2.8586,2.8721,2.9245,2.9245,2.94,2.9418,4.2168,4.2363,4.2402,4.2402,4.3066,4.332,4.2519,4.2344,4.2031,4.1308,4.1191,4.1191,4.1191,4.1191,4.115,4.1023,4.1,4.0959,4.0843,4.0824,4.0877,4.1019,4.0902,4.0816,4.0809,4.0732,3.9901,3.8294,3.8099,3.7175,3.5603,3.5532,3.5026,3.4199,3.4122,3.3081,3.1321,3.1264,3.0646,2.9713,2.9494,2.945,2.9539,3.0033,2.9751,2.92,2.9934,2.9696,2.8994,2.8994,2.8994,2.8994,2.8994,2.8994,2.8994,2.8994,2.8994,2.9093,2.9551,2.9829,2.9984,2.9999,3.1234,3.2406,3.2276,3.3412,3.4146,3.2948,3.2601,3.1898,2.9846,2.9769,3.016,3.0675,2.9896,2.9676,3.0944,3.0188,3.0186,3.2071,3.2471,3.3364,3.5306,3.5493,3.5293,3.4829,3.4788,3.4551,3.3999,3.3917,3.3899,3.3899,3.3899,3.3862,3.3807,3.3762,3.3331,3.2491,3.2465,3.1232,2.8988,2.9008,2.8146,2.6725,2.7435,2.7739,2.784,2.8535,2.9296,3.0023,2.9956,2.9973,3.0023,3.0023,2.9826,2.9384,4.1601,4.166,4.166,4.166,4.1933,4.2031,4.1719,4.166,4.1543,4.123,4.1191,4.1171,4.108,4.108,4.1023,4.0902,4.087,4.0857,4.0801,4.0801,4.0816,4.087,4.079,4.0742,4.0742,4.063,3.9758,3.808,3.8031,3.7142,3.5493,3.5493,3.5026,3.4199,3.4031,3.2951,3.1291,3.113,3.045,2.9513,2.9434,2.931,2.9175,2.937,2.925,2.903,2.9342,2.925,2.8994,2.8994,2.8994,2.8994,2.8994,2.8994,2.8994,2.8994,2.9112,2.92,2.8968,2.9246,2.9548,2.9153,3.0701,3.2295,3.2204,3.309,3.3627,3.2704,3.1781,3.0712,2.9211,2.8829,2.8843,2.9108,2.8874,2.9145,3.0581,2.9972,3.0338,3.2895,3.2842,3.3364,3.5306,3.5493,3.5354,3.4981,3.4944,3.4695,3.4093,3.3876,3.3807,3.3807,3.3807,3.3807,3.3807,3.3807,3.2922,3.1186,3.1609,3.0595,2.8283,2.8287,2.7943,2.7402,2.7689,2.8095,2.8569,2.8856,2.9685,3.0734,3.0294,3.0378,3.0755,3.0492,3.0491,3.0442,4.108,4.1105,4.1149,4.1149,4.1171,4.1191,4.1191,4.1191,4.1191,4.1191,4.1151,4.1103,4.1019,4.0959,4.0896,4.0779,4.0761,4.0752,4.0713,4.0703,4.0723,4.0761,4.0676,4.0649,4.0649,4.0545,3.9681,3.8007,3.8007,3.7142,3.5493,3.5398,3.5062,3.4467,3.4208,3.3237,3.182,3.1657,3.082,2.9638,2.9638,2.94,2.8994,2.8994,2.8994,2.8994,2.8994,2.8994,2.8994,2.8994,2.8994,2.8994,2.8994,2.8994,2.8994,2.8994,2.9134,2.9126,2.8483,2.8839,2.9248,2.8625,3.0129,3.1827,3.1933,3.2459,3.2845,3.2484,3.1523,3.0384,2.934,2.8657,2.8385,2.856,2.844,2.881,3.0116,3.0083,3.0791,3.3146,3.3157,3.3651,3.5325,3.5493,3.5383,3.5122,3.5105,3.4889,3.4379,3.4068,3.3928,3.3928,3.3842,3.3807,3.3807,3.3662,3.269,3.0832,3.1299,3.0401,2.8338,2.8452,2.8416,2.8197,2.8433,2.8839,2.9347,2.9583,3.0277,3.114,3.0649,3.0811,3.1342,3.1074,3.1042,3.0991,4.0836,4.0914,4.0996,4.0996,4.1105,4.1191,4.1191,4.1191,4.1191,4.1191,4.108,4.0996,4.0996,4.0877,4.077,4.0715,4.0711,4.0649,4.0523,4.0489,4.0559,4.0692,4.0574,4.0489,4.0489,4.0489,3.9681,3.8007,3.8007,3.7142,3.5493,3.5223,3.5105,3.5088,3.4832,3.406,3.3007,3.3007,3.1936,3.021,3.021,2.9732,2.8994,2.8994,2.8994,2.8994,2.8994,2.8994,2.8994,2.8994,2.8994,2.8994,2.8994,2.8994,2.8994,2.8994,2.8994,2.886,2.8273,2.8723,2.9248,2.8572,2.966,3.0977,3.131,3.1728,3.211,3.2406,3.2127,3.1476,3.0485,2.9683,2.9317,2.9614,2.8969,2.8731,2.9746,3.0536,3.1385,3.2473,3.3306,3.4244,3.5383,3.5493,3.5383,3.5122,3.5105,3.4981,3.4714,3.4379,3.42,3.42,3.3935,3.3807,3.3788,3.339,3.2787,3.2,3.1861,3.0993,2.954,2.9904,2.9702,2.9025,2.9786,3.0108,3.0176,3.0903,3.119,3.119,3.119,3.1449,3.1789,3.1808,3.1364,3.08,4.0801,4.0914,4.0996,4.0996,4.1105,4.1191,4.1191,4.1191,4.1171,4.1077,4.1023,4.0944,4.0809,4.0752,4.0936,4.1441,4.147,4.1455,4.1412,4.0835,4.0519,4.0559,4.0519,4.0489,4.0489,4.0489,3.9681,3.8007,3.7811,3.6865,3.5207,3.4944,3.4832,3.4812,3.4489,3.3863,3.2985,3.281,3.2072,3.098,3.043,3.0063,2.9787,2.9195,2.8994,2.8994,2.8994,2.8994,2.8994,2.8994,2.8994,2.8994,2.8994,2.8994,2.8994,2.8994,2.8994,2.8887,2.8446,2.895,2.9437,2.8657,2.9588,3.0723,3.0813,3.1661,3.2282,3.1777,3.1672,3.1222,2.9788,2.9214,2.8735,2.8253,2.8066,2.8296,2.9218,2.9923,3.0977,3.2626,3.3555,3.4452,3.5416,3.5493,3.5479,3.5383,3.5207,3.4981,3.4714,3.4379,3.3863,3.3098,3.3548,3.3378,3.2563,3.2972,3.2649,3.1586,3.1199,3.0626,2.9904,2.9522,2.9482,2.9786,3.0006,3.0108,3.0176,3.0903,3.119,3.123,3.1507,3.1696,3.1827,3.1898,3.181,3.1578,4.0682,4.0799,4.0883,4.0914,4.1026,4.1149,4.1191,4.115,4.1082,4.1019,4.0933,4.0843,4.0715,4.0971,4.1301,4.1758,4.2124,4.2181,4.1816,4.1316,4.0854,4.0508,4.0489,4.0489,4.0489,4.0389,3.9736,3.8507,3.7772,3.6786,3.5562,3.4846,3.4508,3.4486,3.4171,3.3765,3.3297,3.3132,3.2614,3.1806,3.0999,3.0485,3.0118,2.9329,2.8994,2.8994,2.8994,2.8994,2.8994,2.8994,2.8994,2.8994,2.8994,2.8994,2.8994,2.8994,2.9085,2.9116,2.895,2.9349,2.9731,2.9364,2.9815,3.0321,3.0141,3.084,3.1435,3.1172,3.1062,3.0716,2.9734,2.9257,2.8905,2.8499,2.8468,2.8809,2.9833,3.0729,3.1838,3.3277,3.424,3.5143,3.6013,3.5781,3.5574,3.5534,3.5713,3.5522,3.4889,3.4572,3.3892,3.2779,3.3002,3.2774,3.2,3.1839,3.1682,3.1561,3.0802,3.0492,3.0497,2.9465,2.955,3.0531,3.0243,3.0277,3.0581,3.1021,3.119,3.123,3.1623,3.1915,3.2109,3.2384,3.2368,3.2183,4.0515,4.061,4.0729,4.0796,4.0914,4.1049,4.1151,4.108,4.0992,4.0983,4.0818,4.073,4.0796,4.1403,4.1873,4.2008,4.2758,4.2835,4.197,4.1854,4.1412,4.0527,4.0489,4.0489,4.0473,4.025,3.9849,3.9246,3.7889,3.6914,3.631,3.4989,3.4357,3.4258,3.4013,3.3862,3.3807,3.3807,3.3385,3.2632,3.1751,3.0962,3.021,2.9347,2.8994,2.8994,2.8994,2.8994,2.8994,2.8994,2.8994,2.8994,2.8994,2.8994,2.8994,2.9085,2.9292,2.9584,2.985,3.0073,3.0266,3.0362,3.0324,3.0095,2.9494,2.9662,3.0106,3.0604,3.0433,3.015,3.0061,2.9658,2.9463,2.9789,2.9734,3.0059,3.1172,3.2405,3.348,3.4236,3.5205,3.6138,3.6923,3.6345,3.5865,3.5737,3.6443,3.6344,3.5143,3.4775,3.4041,3.2846,3.2273,3.1921,3.1786,3.0384,3.0421,3.1771,3.064,3.0497,3.114,2.9803,2.9871,3.1055,3.0395,3.0446,3.1004,3.1072,3.1106,3.1128,3.1679,3.2127,3.255,3.3075,3.3011,3.2601,4.0504,4.061,4.0729,4.0796,4.0914,4.1019,4.1049,4.1023,4.0939,4.0781,4.0738,4.0913,4.1508,4.1697,4.2335,4.3643,4.3932,4.3682,4.2874,4.2181,4.1412,4.0527,4.0489,4.0389,4.0195,4.0339,3.9917,3.8916,3.8376,3.7585,3.6606,3.6073,3.5478,3.4806,3.477,3.4394,3.3807,3.3807,3.3697,3.3421,3.1971,3.1292,3.098,2.9549,2.8994,2.8994,2.8994,2.8994,2.8994,2.8994,2.8994,2.8994,2.8994,2.8994,2.9104,2.9751,3.0128,3.0519,3.1431,3.1834,3.1771,3.0669,3.1347,3.1864,3.0209,3.0152,3.0368,3.0149,3.0387,3.0406,2.9617,2.9644,2.9643,2.932,3.0187,3.1054,3.1411,3.2954,3.4147,3.4431,3.5801,3.678,3.6982,3.7411,3.7375,3.6677,3.6709,3.6174,3.487,3.4073,3.2973,3.1391,3.122,3.0814,3.0064,3.0316,3.0889,3.1771,3.064,3.0497,3.119,3.0852,3.0581,3.0345,3.0176,2.9854,2.9499,3.0108,3.0345,3.0472,3.1812,3.2417,3.2583,3.339,3.3413,3.2929,4.0489,4.0559,4.0642,4.0752,4.0807,4.0863,4.0902,4.0877,4.0827,4.0715,4.1016,4.1364,4.1758,4.2508,4.3508,4.4797,4.4913,4.4566,4.372,4.2893,4.2027,4.1162,4.0719,4.0422,4.0285,4.0441,4.0072,3.9176,3.8493,3.786,3.7247,3.6602,3.5844,3.499,3.499,3.4559,3.3807,3.3807,3.3807,3.366,3.2045,3.1623,3.1806,3.0191,2.9586,2.9586,2.9586,2.9347,2.8994,2.8994,2.8994,2.8994,2.8994,2.8994,2.914,2.9971,3.0479,3.0997,3.194,3.2469,3.2555,3.1789,3.2256,3.2295,2.9961,3.0224,3.0716,2.9953,3.0058,3.0111,2.9599,2.9741,2.9982,3.0131,3.0902,3.1801,3.2673,3.4028,3.5098,3.5588,3.6802,3.7622,3.7622,3.873,3.8889,3.7577,3.7788,3.7179,3.5378,3.4273,3.285,3.0948,3.0148,2.9673,2.9488,2.9369,3.0071,3.149,3.0544,3.0311,3.0649,3.0128,3.0031,3.0287,2.957,2.928,2.9245,2.9471,2.9583,2.9746,3.1338,3.2001,3.2101,3.3128,3.3087,3.2429,4.0489,4.0489,4.053,4.0667,4.0703,4.0718,4.0779,4.0742,4.0692,4.0667,4.133,4.1873,4.2008,4.3528,4.4797,4.5528,4.5586,4.522,4.4355,4.3547,4.272,4.1854,4.0969,4.0473,4.0422,4.0473,4.0193,3.9599,3.864,3.8145,3.8032,3.7127,3.6193,3.521,3.5357,3.4835,3.3807,3.3954,3.3935,3.366,3.2045,3.188,3.2412,3.0668,3.0081,3.021,3.021,2.9769,2.9177,2.9049,2.8994,2.8994,2.8994,2.9085,2.9365,3.0173,3.0884,3.1581,3.2411,3.2988,3.3314,3.316,3.3237,3.266,3.0079,3.0424,3.1035,3.0175,2.9825,2.9713,2.9729,3.0007,3.0471,3.124,3.1916,3.2788,3.4026,3.5264,3.625,3.6851,3.7868,3.858,3.8716,3.998,4.0082,3.8384,3.889,3.8251,3.5857,3.4618,3.3031,3.093,2.9435,2.8968,2.9593,2.8679,2.9144,3.1004,3.059,3.0374,3.036,2.9283,2.9367,3.037,2.9003,2.8625,2.9024,2.8847,2.8789,2.8948,3.0565,3.1288,3.1533,3.2647,3.2533,3.1737,4.0489,4.0489,4.053,4.0667,4.0703,4.0703,4.0707,4.0715,4.0674,4.053,4.1274,4.2085,4.2835,4.4412,4.547,4.5586,4.5586,4.522,4.4355,4.3547,4.272,4.1854,4.0969,4.0389,4.0158,4.0372,4.0193,3.9599,3.9439,3.9107,3.8584,3.8444,3.7569,3.6156,3.6835,3.5899,3.3844,3.4559,3.4449,3.366,3.2045,3.188,3.2357,3.0044,2.9604,3.021,3.021,3.0136,2.9934,2.9214,2.8994,2.8994,2.8994,2.9494,3.021,3.0999,3.2095,3.3261,3.4128,3.4745,3.4968,3.4199,3.4584,3.4647,3.2769,3.1804,3.1253,3.1108,3.0341,2.9746,2.9924,3.0609,3.1236,3.1578,3.3532,3.4828,3.435,3.6287,3.7559,3.7039,3.8424,3.9704,4.0385,4.0607,4.0203,3.8975,3.8884,3.7732,3.5106,3.4115,3.2744,3.0798,2.9832,2.9575,2.9997,2.9892,2.9956,3.026,3.1133,3.1578,3.1543,3.0698,3.0093,2.9693,2.8778,2.7908,2.7131,2.7706,2.7977,2.8115,2.9744,3.0796,3.1501,3.2299,3.2264,3.1598,4.0489,4.0489,4.0519,4.0588,4.0582,4.0582,4.0582,4.0582,4.0574,4.0504,4.1681,4.2662,4.3066,4.4605,4.5586,4.5586,4.5586,4.5432,4.5047,4.3816,4.2931,4.2547,4.1219,4.0438,4.0339,4.0441,4.0302,3.988,3.969,3.9358,3.8923,3.8762,3.8083,3.6982,3.7331,3.6358,3.4504,3.4844,3.4559,3.3697,3.254,3.2559,3.3109,3.1604,3.1237,3.1421,3.0522,2.9916,2.9549,2.9641,2.9677,2.9677,2.9677,3.0228,3.0944,3.1292,3.2337,3.3601,3.4449,3.5088,3.5411,3.5026,3.5096,3.5082,3.4297,3.328,3.2286,3.1656,3.1024,3.0665,3.091,3.1257,3.2031,3.357,3.4776,3.5707,3.6286,3.7752,3.882,3.8941,3.9642,4.0242,4.0602,4.0468,4.0159,3.9655,3.8956,3.7675,3.5634,3.4119,3.2517,3.0751,2.9747,2.9479,3.0091,3.0108,3.0428,3.1065,3.156,3.1582,3.1185,3.0856,3.0423,2.9878,2.8654,2.7709,2.7019,2.6707,2.6826,2.7284,2.8265,2.9618,3.1058,3.139,3.162,3.1685]}]]